[[{"header":{"parameterUnit":"m.s-1","parameterCategory":1,"la1":30.6,"la2":28.766,"lo1":-90.7593,"lo2":-88.6598,"dx":0.0162,"dy":0.0183,"nx":116,"ny":114,"refTime":"2022-12-30T18:00:00:Z","depth":0,"parameterNumber":2,"parameterNumberName":"U-component_of_WINDS"},"data":[0.0,0.0,0.0,0.0,0.0,0.0,0.0,0.0,0.0,0.0,0.0,0.0,0.0,0.0,0.0,0.0,0.0,0.0,0.0,0.0,0.0,0.0,0.0,0.0,0.0,0.0,0.0,0.0,0.0,0.0,0.0,0.0,0.0,0.0,0.0,0.0,0.0,0.0,0.0,0.0,0.0,0.0,0.0,0.0,0.0,0.0,0.0,0.0,0.0,0.0,0.0,0.0,0.0,0.0,0.0,0.0,0.0,0.0,0.0,0.0,0.0,0.0,0.0,0.0,0.0,0.0,0.0,0.0,0.0,0.0,0.0,0.0,0.0,0.0,0.0,0.0,0.0,0.0,0.0,0.0,0.0,0.0,0.0,0.0,0.0,0.0,0.0,0.0,0.0,0.0,0.0,0.0,0.0,0.0,0.0,0.0,0.0,0.0,0.0,0.0,0.0,0.0,0.0,0.0,0.0,0.0,0.0,0.0,0.0,0.0,0.0,0.0,0.0,0.0,0.0,0.0,0.0,0.0,0.0,0.0,0.0,0.0,0.0,0.0,0.0,0.0,0.0,0.0,0.0,0.0,0.0,0.0,0.0,0.0,0.0,0.0,0.0,0.0,0.0,0.0,0.0,0.0,0.0,0.0,0.0,0.0,0.0,0.0,0.0,0.0,0.0,0.0,0.0,0.0,0.0,0.0,0.0,0.0,0.0,0.0,0.0,0.0,0.0,0.0,0.0,0.0,0.0,0.0,0.0,0.0,0.0,0.0,0.0,0.0,0.0,0.0,0.0,0.0,0.0,0.0,0.0,0.0,0.0,0.0,0.0,0.0,0.0,0.0,0.0,0.0,0.0,0.0,0.0,0.0,0.0,0.0,0.0,0.0,0.0,0.0,0.0,0.0,0.0,0.0,0.0,0.0,0.0,0.0,0.0,0.0,0.0,0.0,0.0,0.0,0.0,0.0,0.0,0.0,0.0,0.0,0.0,0.0,0.0,0.0,0.0,0.0,0.0,0.0,0.0,0.0,0.0,0.0,0.0,0.0,0.0,0.0,0.0,0.0,0.0,0.0,0.0,0.0,0.0,0.0,0.0,0.0,0.0,0.0,0.0,0.0,0.0,0.0,0.0,0.0,0.0,0.0,0.0,0.0,0.0,0.0,0.0,0.0,0.0,0.0,0.0,0.0,0.0,0.0,0.0,0.0,0.0,0.0,0.0,0.0,0.0,0.0,0.0,0.0,0.0,0.0,0.0,0.0,0.0,0.0,0.0,0.0,0.0,0.0,0.0,0.0,0.0,0.0,0.0,0.0,0.0,0.0,0.0,0.0,0.0,0.0,0.0,0.0,0.0,0.0,0.0,0.0,0.0,0.0,0.0,0.0,0.0,0.0,0.0,0.0,0.0,0.0,0.0,0.0,0.0,0.0,0.0,0.0,0.0,0.0,0.0,0.0,0.0,0.0,0.0,0.0,0.0,0.0,0.0,0.0,0.0,0.0,0.0,0.0,0.0,0.0,0.0,0.0,0.0,0.0,0.0,0.0,0.0,0.0,0.0,0.0,0.0,0.0,0.0,0.0,0.0,0.0,0.0,0.0,0.0,0.0,0.0,0.0,0.0,0.0,0.0,0.0,0.0,0.0,0.0,0.0,0.0,0.0,0.0,0.0,0.0,0.0,0.0,0.0,0.0,0.0,0.0,0.0,0.0,0.0,0.0,0.0,0.0,0.0,0.0,0.0,0.0,0.0,0.0,0.0,0.0,0.0,0.0,0.0,0.0,0.0,0.0,0.0,0.0,0.0,0.0,0.0,0.0,0.0,0.0,0.0,0.0,0.0,0.0,0.0,0.0,0.0,0.0,0.0,0.0,0.0,0.0,0.0,0.0,0.0,0.0,0.0,0.0,0.0,0.0,0.0,0.0,0.0,0.0,0.0,0.0,0.0,0.0,0.0,0.0,0.0,0.0,0.0,0.0,0.0,0.0,0.0,0.0,0.0,0.0,0.0,0.0,0.0,0.0,0.0,0.0,0.0,0.0,0.0,0.0,0.0,0.0,0.0,0.0,0.0,0.0,0.0,0.0,0.0,0.0,0.0,0.0,0.0,0.0,0.0,0.0,0.0,0.0,0.0,0.0,0.0,0.0,0.0,0.0,0.0,0.0,0.0,0.0,0.0,0.0,0.0,0.0,0.0,0.0,0.0,0.0,0.0,0.0,0.0,0.0,0.0,0.0,0.0,0.0,0.0,0.0,0.0,0.0,0.0,0.0,0.0,0.0,0.0,0.0,0.0,0.0,0.0,0.0,0.0,0.0,0.0,0.0,0.0,0.0,0.0,0.0,0.0,0.0,0.0,0.0,0.0,0.0,0.0,0.0,0.0,0.0,0.0,0.0,0.0,0.0,0.0,0.0,0.0,0.0,0.0,0.0,0.0,0.0,0.0,0.0,0.0,0.0,0.0,0.0,0.0,0.0,0.0,0.0,0.0,0.0,0.0,0.0,0.0,0.0,0.0,0.0,0.0,0.0,0.0,0.0,0.0,0.0,0.0,0.0,0.0,0.0,0.0,0.0,0.0,0.0,0.0,0.0,0.0,0.0,0.0,0.0,0.0,0.0,0.0,0.0,0.0,0.0,0.0,0.0,0.0,0.0,0.0,0.0,0.0,0.0,0.0,0.0,0.0,0.0,0.0,0.0,0.0,0.0,0.0,0.0,0.0,0.0,0.0,0.0,0.0,0.0,0.0,0.0,0.0,0.0,0.0,0.0,0.0,0.0,0.0,0.0,0.0,0.0,0.0,0.0,0.0,0.0,0.0,0.0,0.0,0.0,0.0,0.0,0.0,0.0,0.0,0.0,0.0,0.0,0.0,0.0,0.0,0.0,0.0,0.0,0.0,0.0,0.0,0.0,0.0,0.0,0.0,0.0,0.0,0.0,0.0,0.0,0.0,0.0,0.0,0.0,0.0,0.0,0.0,0.0,0.0,0.0,0.0,0.0,0.0,0.0,0.0,0.0,0.0,0.0,0.0,0.0,0.0,0.0,0.0,0.0,0.0,0.0,0.0,0.0,0.0,0.0,0.0,0.0,0.0,0.0,0.0,0.0,0.0,0.0,0.0,0.0,0.0,0.0,0.0,0.0,0.0,0.0,0.0,0.0,0.0,0.0,0.0,0.0,0.0,0.0,0.0,0.0,0.0,0.0,0.0,0.0,0.0,0.0,0.0,0.0,0.0,0.0,0.0,0.0,0.0,0.0,0.0,0.0,0.0,0.0,0.0,0.0,0.0,0.0,0.0,0.0,0.0,0.0,0.0,0.0,0.0,0.0,0.0,0.0,0.0,0.0,0.0,0.0,0.0,0.0,0.0,0.0,0.0,0.0,0.0,0.0,0.0,0.0,0.0,0.0,0.0,0.0,0.0,0.0,0.0,0.0,0.0,0.0,0.0,0.0,0.0,0.0,0.0,0.0,0.0,0.0,0.0,0.0,0.0,0.0,0.0,0.0,0.0,0.0,0.0,0.0,0.0,0.0,0.0,0.0,0.0,0.0,0.0,0.0,0.0,0.0,0.0,0.0,0.0,0.0,0.0,0.0,0.0,0.0,0.0,0.0,0.0,0.0,0.0,0.0,0.0,0.0,0.0,0.0,0.0,0.0,0.0,0.0,0.0,0.0,0.0,0.0,0.0,0.0,0.0,0.0,0.0,0.0,0.0,0.0,0.0,0.0,0.0,0.0,0.0,0.0,0.0,0.0,0.0,0.0,0.0,0.0,0.0,0.0,0.0,0.0,0.0,0.0,0.0,0.0,0.0,0.0,0.0,0.0,0.0,0.0,0.0,0.0,0.0,0.0,0.0,0.0,0.0,0.0,0.0,0.0,0.0,0.0,0.0,0.0,0.0,0.0,0.0,0.0,0.0,0.0,0.0,0.0,0.0,0.0,0.0,0.0,0.0,0.0,0.0,0.0,0.0,0.0,0.0,0.0,0.0,0.0,0.0,0.0,0.0,0.0,0.0,0.0,0.0,0.0,0.0,0.0,0.0,0.0,0.0,0.0,0.0,0.0,0.0,0.0,0.0,0.0,0.0,0.0,0.0,0.0,0.0,0.0,0.0,0.0,0.0,0.0,0.0,0.0,0.0,0.0,0.0,0.0,0.0,0.0,0.0,0.0,0.0,0.0,0.0,0.0,0.0,0.0,0.0,0.0,0.0,0.0,0.0,0.0,0.0,0.0,0.0,0.0,0.0,0.0,0.0,0.0,0.0,0.0,0.0,0.0,0.0,0.0,0.0,0.0,0.0,0.0,0.0,0.0,0.0,0.0,0.0,0.0,0.0,0.0,0.0,0.0,0.0,0.0,0.0,0.0,0.0,0.0,0.0,0.0,0.0,0.0,0.0,0.0,0.0,0.0,0.0,0.0,0.0,0.0,0.0,0.0,0.0,0.0,0.0,0.0,0.0,0.0,0.0,0.0,0.0,0.0,0.0,0.0,0.0,0.0,0.0,0.0,0.0,0.0,0.0,0.0,0.0,0.0,0.0,0.0,0.0,0.0,0.0,0.0,0.0,0.0,0.0,0.0,0.0,0.0,0.0,0.0,0.0,0.0,0.0,0.0,0.0,0.0,0.0,0.0,0.0,0.0,0.0,0.0,0.0,0.0,0.0,0.0,0.0,0.0,0.0,0.0,0.0,0.0,0.0,0.0,0.0,0.0,0.0,0.0,0.0,0.0,0.0,0.0,0.0,0.0,0.0,0.0,0.0,0.0,0.0,0.0,0.0,0.0,0.0,0.0,0.0,0.0,0.0,0.0,0.0,0.0,0.0,0.0,0.0,0.0,0.0,0.0,0.0,0.0,0.0,0.0,0.0,0.0,0.0,0.0,0.0,0.0,0.0,0.0,0.0,0.0,0.0,0.0,0.0,0.0,0.0,0.0,0.0,0.0,0.0,0.0,0.0,0.0,0.0,0.0,0.0,0.0,0.0,0.0,0.0,0.0,0.0,0.0,0.0,0.0,0.0,0.0,0.0,0.0,0.0,0.0,0.0,0.0,0.0,0.0,0.0,0.0,0.0,0.0,0.0,0.0,0.0,0.0,0.0,0.0,0.0,0.0,0.0,0.0,0.0,0.0,0.0,0.0,0.0,0.0,0.0,0.0,0.0,0.0,0.0,0.0,0.0,0.0,0.0,0.0,0.0,0.0,0.0,0.0,0.0,0.0,0.0,0.0,0.0,0.0,0.0,0.0,0.0,0.0,0.0,0.0,0.0,0.0,0.0,0.0,0.0,0.0,0.0,0.0,0.0,0.0,0.0,0.0,0.0,0.0,0.0,0.0,0.0,0.0,0.0,0.0,0.0,0.0,0.0,0.0,0.0,0.0,0.0,0.0,0.0,0.0,0.0,0.0,0.0,0.0,0.0,0.0,0.0,0.0,0.0,0.0,0.0,0.0,0.0,0.0,0.0,0.0,0.0,0.0,0.0,0.0,0.0,0.0,0.0,0.0,0.0,0.0,0.0,0.0,0.0,0.0,0.0,0.0,0.0,0.0,0.0,0.0,0.0,0.0,0.0,0.0,0.0,0.0,0.0,0.0,0.0,0.0,0.0,0.0,0.0,0.0,0.0,0.0,0.0,0.0,0.0,0.0,0.0,0.0,0.0,0.0,0.0,0.0,0.0,0.0,0.0,0.0,0.0,0.0,0.0,0.0,0.0,0.0,0.0,0.0,0.0,0.0,0.0,0.0,0.0,0.0,0.0,0.0,0.0,0.0,0.0,0.0,0.0,0.0,0.0,0.0,0.0,0.0,0.0,0.0,0.0,0.0,0.0,0.0,0.0,0.0,0.0,0.0,0.0,0.0,0.0,0.0,0.0,0.0,0.0,0.0,0.0,0.0,0.0,0.0,0.0,0.0,0.0,0.0,0.0,0.0,0.0,0.0,0.0,0.0,0.0,0.0,0.0,0.0,0.0,0.0,0.0,0.0,0.0,0.0,0.0,0.0,0.0,0.0,0.0,0.0,0.0,0.0,0.0,0.0,0.0,0.0,0.0,0.0,0.0,0.0,0.0,0.0,0.0,0.0,0.0,0.0,0.0,0.0,0.0,0.0,0.0,0.0,0.0,0.0,0.0,0.0,0.0,2.4926,2.2703,0.0,0.0,0.0,0.0,0.0,0.0,0.0,0.0,0.0,0.0,0.0,0.0,0.0,0.0,0.0,0.0,0.0,0.0,0.0,0.0,0.0,0.0,0.0,1.0773,1.0773,1.0773,1.0773,0.0,0.0,0.0,0.0,0.0,0.0,0.0,0.0,0.0,1.2887,1.3741,1.4624,1.5931,1.7581,1.6709,1.6089,1.5704,0.0,0.0,0.0,0.0,0.0,0.0,0.0,0.0,0.0,0.0,0.0,0.0,0.0,0.0,0.0,0.0,0.0,0.0,0.0,0.0,0.0,0.0,0.0,0.0,0.0,0.0,0.0,0.0,0.0,0.0,0.0,0.0,0.0,0.0,0.0,0.0,0.0,0.0,0.0,0.0,0.0,0.0,0.0,0.0,0.0,0.0,0.0,0.0,0.0,0.0,0.0,0.0,0.0,0.0,0.0,0.0,0.0,0.0,0.0,0.0,0.0,0.0,0.0,0.0,0.0,0.0,0.0,0.0,0.0,0.0,2.6723,2.4872,0.0,0.0,0.0,0.0,0.0,0.0,0.0,0.0,0.0,0.0,0.0,0.0,0.0,0.0,0.0,0.0,0.0,0.0,0.0,0.0,0.0,1.0756,1.1685,1.1788,1.184,1.1978,1.1996,1.1927,1.1788,1.1788,0.0,0.0,0.0,0.0,1.288,1.376,1.4705,1.5706,1.7398,1.9038,2.0584,2.0748,2.0076,1.8731,1.8377,0.0,0.0,0.0,0.0,0.0,0.0,0.0,0.0,0.0,0.0,0.0,0.0,0.0,0.0,0.0,0.0,0.0,0.0,0.0,0.0,0.0,0.0,0.0,0.0,0.0,0.0,0.0,0.0,0.0,0.0,0.0,0.0,0.0,0.0,0.0,0.0,0.0,0.0,0.0,0.0,0.0,0.0,0.0,0.0,0.0,0.0,0.0,0.0,0.0,0.0,0.0,0.0,0.0,0.0,0.0,0.0,0.0,0.0,0.0,0.0,0.0,0.0,0.0,2.963,3.0392,3.1024,3.1151,3.1225,3.1117,2.9072,2.7785,2.7163,2.7163,0.0,0.0,0.0,0.0,0.0,0.0,0.0,0.0,0.0,0.0,0.0,0.0,0.0,0.0,0.0,0.0,0.0,0.0,0.0,1.1771,1.3156,1.3311,1.3588,1.4295,1.4364,1.407,1.3363,1.3311,0.0,0.0,0.0,1.4398,1.4502,1.5848,1.7072,1.8145,2.0155,2.1363,2.18,2.2486,2.2708,2.2414,2.0659,1.9865,1.9717,0.0,0.0,0.0,0.0,0.0,0.0,0.0,0.0,0.0,0.0,0.0,0.0,0.0,0.0,0.0,0.0,0.0,0.0,0.0,0.0,0.0,0.0,0.0,0.0,0.0,0.0,0.0,0.0,0.0,0.0,0.0,0.0,0.0,0.0,0.0,0.0,0.0,0.0,0.0,0.0,0.0,2.1006,2.1531,0.0,0.0,0.0,0.0,0.0,0.0,0.0,0.0,0.0,0.0,0.0,0.0,0.0,2.8608,2.9946,3.0169,3.0634,3.1318,3.2135,3.2581,3.2692,3.3398,3.3733,3.3714,3.338,0.0,2.9031,2.9031,0.0,0.0,0.0,0.0,0.0,0.0,0.0,0.0,0.0,0.0,0.0,0.0,0.0,0.0,0.0,0.0,0.0,0.0,0.0,0.0,0.0,1.4968,1.5158,1.5506,1.554,1.5384,1.5036,1.5314,0.0,0.0,1.6279,1.69,1.7314,1.8101,1.9351,2.1025,2.2501,2.3507,2.4092,2.4909,2.5281,2.5225,2.3896,2.2774,2.1835,2.0097,0.0,0.0,0.0,0.0,0.0,0.0,0.0,0.0,0.0,0.0,0.0,0.0,0.0,0.0,0.0,0.0,0.0,0.0,0.0,0.0,0.0,0.0,0.0,0.0,0.0,0.0,0.0,0.0,0.0,0.0,0.0,0.0,0.0,0.0,0.0,0.0,0.0,0.0,0.0,2.1735,2.2775,2.3858,2.375,2.4004,0.0,0.0,0.0,0.0,0.0,0.0,0.0,0.0,0.0,2.9413,3.0349,3.1206,3.1931,3.2878,3.3528,3.3881,3.468,3.507,3.5089,3.5442,3.5609,3.5609,3.5609,3.481,3.3417,3.2488,3.1819,3.1318,0.0,0.0,0.0,0.0,2.7981,2.7919,0.0,0.0,0.0,0.0,0.0,0.0,0.0,0.0,0.0,0.0,0.0,0.0,1.6036,1.6458,1.6705,1.6896,1.7088,1.7209,1.7209,1.7631,1.788,1.788,1.8431,1.9016,1.9568,2.0322,2.163,2.3491,2.4524,2.5374,2.6024,2.6619,2.6916,2.6879,2.6284,2.5188,2.3722,2.2004,2.1253,2.1002,0.0,0.0,0.0,0.0,0.0,0.0,0.0,0.0,0.0,0.0,0.0,0.0,0.0,0.0,0.0,0.0,0.0,0.0,0.0,0.0,0.0,0.0,0.0,0.0,0.0,0.0,0.0,0.0,0.0,0.0,0.0,0.0,0.0,0.0,0.0,0.0,0.0,2.3492,2.4389,2.5838,2.5875,2.6111,0.0,0.0,0.0,0.0,0.0,0.0,2.933,3.0538,3.1392,3.1838,3.3008,3.3733,3.3937,3.5386,3.6092,3.6129,3.7151,3.7652,3.7652,3.7856,3.7949,3.7949,3.7949,3.7949,3.7782,3.5702,3.4494,3.3863,3.2945,3.2194,3.1528,3.0715,3.042,3.042,0.0,0.0,0.0,0.0,0.0,0.0,0.0,0.0,0.0,0.0,0.0,1.6088,1.6863,1.7621,1.8383,1.909,1.9797,2.017,2.017,2.0205,2.0222,2.0222,2.0274,2.0308,2.0343,2.2416,2.4016,2.5063,2.6225,2.6804,2.6842,2.6879,2.6916,2.6916,2.686,2.6377,2.5466,2.3778,2.3006,2.2737,2.1058,0.0,0.0,0.0,0.0,0.0,0.0,0.0,0.0,0.0,0.0,0.0,0.0,0.0,0.0,0.0,0.0,0.0,0.0,0.0,0.0,0.0,0.0,0.0,0.0,0.0,0.0,0.0,0.0,0.0,0.0,0.0,0.0,0.0,0.0,0.0,0.0,0.0,0.0,2.6749,2.6823,0.0,0.0,0.0,0.0,3.0278,3.0445,3.1132,3.2655,3.2823,3.3603,3.5182,3.533,3.5739,3.65,3.7355,3.7782,3.7801,3.9417,4.0197,4.0234,4.0996,4.1349,4.1349,4.1349,4.1349,4.1107,3.7894,3.6538,3.6426,3.5627,3.5274,3.5126,3.4271,3.3956,3.3956,0.0,0.0,0.0,0.972,1.0031,1.0635,1.1896,1.2966,1.4244,1.5986,1.6433,1.7277,1.8999,1.922,1.9479,2.009,2.0538,2.0718,2.0535,2.0925,2.1152,2.1152,2.2065,2.3006,2.3934,2.4964,2.602,2.7076,2.8047,2.8775,2.9295,2.9816,3.0036,3.0018,2.9518,2.9128,2.8719,2.6507,2.5244,2.4616,2.3453,2.2591,0.0,0.0,0.0,0.0,0.0,0.0,0.0,0.0,0.0,0.0,0.0,0.0,0.0,0.0,0.0,0.0,0.0,0.0,0.0,0.0,0.0,0.0,0.0,0.0,0.0,0.0,0.0,0.0,0.0,0.0,0.0,0.0,0.0,0.0,0.0,0.0,0.0,2.8422,2.8979,0.0,3.0389,3.0946,3.1485,3.2098,3.312,3.3993,3.4569,3.559,3.6426,3.7021,3.8079,3.8785,3.9064,3.9881,4.0271,4.029,4.0884,4.1163,4.1181,4.146,4.159,4.159,4.159,4.159,4.1497,4.0327,3.9547,3.9045,3.8767,3.8302,3.7782,3.7466,3.7355,3.7355,0.0,0.0,0.0,1.0065,1.0428,1.1119,1.2638,1.3743,1.502,1.6777,1.7449,1.8345,1.986,2.0266,2.0565,2.0906,2.1325,2.161,2.1663,2.2082,2.247,2.2746,2.3796,2.5033,2.647,2.7027,2.7837,2.8922,2.9797,3.0485,3.1024,3.1541,3.1782,3.1764,3.1247,3.1005,3.0913,2.9258,2.7771,2.6433,2.5542,2.4635,2.3658,0.0,0.0,0.0,0.0,0.0,0.0,0.0,0.0,0.0,0.0,0.0,0.0,0.0,0.0,0.0,0.0,0.0,0.0,0.0,0.0,0.0,0.0,0.0,0.0,0.0,0.0,0.0,0.0,0.0,0.0,0.0,0.0,0.0,0.0,2.7746,2.9072,3.0466,3.1098,3.1838,3.2934,3.3528,3.4067,3.4606,3.5665,3.6556,3.7113,3.8154,3.8859,3.9138,4.0215,4.0791,4.0791,4.159,4.1999,4.1999,4.2277,4.2407,4.2407,4.2407,4.2407,4.2407,4.2407,4.2407,4.2407,4.2407,4.2092,4.1553,4.1014,4.0438,3.9937,3.9937,3.9937,3.9937,0.0,0.0,0.934,1.01,1.0877,1.1909,1.3415,1.4934,1.6174,1.6949,1.8362,1.9309,1.9361,2.0711,2.1625,2.1643,2.2298,2.3022,2.3736,2.3788,2.4178,2.5017,2.5392,2.6276,2.7743,2.8572,2.9554,3.0727,3.1485,3.1894,3.1949,3.1949,3.1949,3.1949,3.1949,3.1949,3.1949,3.1894,3.0482,2.8197,2.7344,2.6375,2.5389,0.0,0.0,0.0,0.0,0.0,0.0,0.0,0.0,0.0,0.0,0.0,0.0,0.0,0.0,0.0,0.0,0.0,0.0,0.0,0.0,0.0,0.0,0.0,0.0,0.0,0.0,0.0,0.0,0.0,0.0,0.0,0.0,0.0,2.9175,2.9376,3.0429,3.2748,3.3083,3.3751,3.5404,3.559,3.6259,3.7856,3.7986,3.8711,4.0346,4.0457,4.0828,4.1609,4.1664,4.1664,4.1664,4.2445,4.2835,4.2853,4.3633,4.4005,4.4005,4.4023,4.4042,4.4042,4.4079,4.4079,4.4079,4.4079,4.4079,4.3912,4.2296,4.1664,4.1664,4.1664,4.1664,4.1664,0.9202,0.9109,0.9524,1.0838,1.1252,1.2099,1.4174,1.5279,1.6364,1.769,1.8689,1.9723,2.0866,2.1485,2.1962,2.235,2.2772,2.3232,2.3764,2.3788,2.4497,2.6093,2.7327,2.8421,2.9423,3.0466,3.1714,3.3213,3.3417,3.416,3.5349,3.5349,3.5349,3.5349,3.5349,3.5349,3.5256,3.4048,3.3138,3.2302,2.9741,2.8159,2.7266,0.0,0.0,0.0,0.0,0.0,0.0,0.0,0.0,0.0,0.0,0.0,0.0,0.0,0.0,0.0,0.0,0.0,0.0,0.0,0.0,0.0,0.0,0.0,0.0,0.0,0.0,0.0,0.0,0.0,0.0,0.0,3.0012,3.0928,3.029,3.1741,3.312,3.3788,3.494,3.6073,3.7132,3.7764,3.8562,3.9621,4.0253,4.0773,4.1237,4.1813,4.224,4.2463,4.3039,4.3336,4.3336,4.3559,4.367,4.367,4.3893,4.4005,4.4023,4.4655,4.4934,4.4971,4.5565,4.5807,4.5807,4.5807,4.5807,4.5658,4.3986,4.3336,4.3336,4.3336,4.3336,4.3336,0.9237,0.934,0.9945,1.1183,1.1667,1.2621,1.4917,1.5624,1.645,1.8004,1.9103,2.0102,2.0997,2.1784,2.2364,2.266,2.312,2.3649,2.4264,2.5027,2.6209,2.7861,2.8876,2.9989,3.1286,3.2307,3.3436,3.4736,3.507,3.5739,3.6686,3.6686,3.6686,3.6686,3.6686,3.6686,3.663,3.5646,3.5052,3.455,3.2302,3.0318,2.8587,2.8042,2.7076,2.591,2.5021,2.4413,2.3824,2.2611,0.0,0.0,0.0,0.0,0.0,0.0,0.0,0.0,0.0,0.0,0.0,0.0,0.0,0.0,0.0,0.0,0.0,0.0,0.0,0.0,0.0,0.0,0.0,0.0,3.1945,3.3008,3.3566,3.4271,3.5107,3.6129,3.7113,3.8154,3.9342,3.9863,4.0494,4.133,4.1832,4.224,4.2593,4.3039,4.3299,4.3299,4.3763,4.4172,4.4544,4.4544,4.4711,4.5045,4.5045,4.5045,4.5064,4.5565,4.5788,4.5825,4.629,4.6494,4.6494,4.6494,4.6494,4.6401,0.0,0.0,0.0,0.0,4.5045,4.5045,0.9375,0.9755,1.0445,1.127,1.2013,1.3277,1.5554,1.5899,1.645,1.8004,1.9481,2.0394,2.0394,2.1772,2.2712,2.2712,2.3357,2.4195,2.5103,2.6894,2.8477,2.9743,3.0118,3.1138,3.2953,3.3881,3.4773,3.5627,3.6426,3.6872,3.6965,3.6965,3.6965,3.6965,3.6965,3.6965,3.6946,3.6872,3.6408,3.5683,3.4717,3.2507,2.9797,2.9723,2.8645,2.7102,2.6377,2.6005,2.5578,2.3877,0.0,0.0,0.0,0.0,0.0,0.0,0.0,0.0,0.0,0.0,0.0,0.0,0.0,0.0,0.0,0.0,0.0,0.0,0.0,0.0,0.0,0.0,0.0,0.0,3.3975,3.5516,3.7726,3.6965,3.6946,3.899,3.9324,3.9993,4.1571,4.1739,4.2073,4.2872,4.2946,4.3243,4.3968,4.4098,0.0,0.0,0.0,4.4655,4.5417,4.5435,4.5788,4.6494,4.6494,4.6494,4.6494,4.6587,4.6643,4.6643,4.6735,4.6773,4.6773,4.6773,4.6773,4.6754,4.6568,4.6494,4.6494,4.6494,4.6494,4.6494,1.0255,1.01,1.0445,1.127,1.2013,1.3277,1.5554,1.5899,1.645,1.8004,1.9481,2.0394,2.0394,2.1772,2.2712,2.2712,2.3357,2.4475,2.604,2.7691,2.896,2.9769,3.087,3.196,3.2971,3.4476,3.5646,3.6463,3.7262,3.7986,3.8637,3.8637,3.8637,3.8637,3.8637,3.8637,3.8581,3.7931,3.7578,3.7299,3.5832,3.4067,3.2228,3.1578,3.0336,2.8905,2.8738,2.7827,2.6507,2.5504,2.5189,2.5022,2.4189,2.3467,0.0,0.0,0.0,0.0,0.0,0.0,0.0,0.0,0.0,0.0,0.0,0.0,0.0,0.0,0.0,0.0,0.0,0.0,0.0,3.3852,3.6307,3.8321,3.8804,3.9751,4.0346,4.016,4.0717,4.1497,4.2463,4.2575,4.289,4.3708,4.3763,4.3838,4.3986,4.4674,4.5045,4.5045,4.5677,4.6104,4.6271,4.6271,4.6345,4.6494,4.6494,0.0,4.6513,4.7163,4.746,4.7497,4.8147,4.8444,4.8444,4.8444,4.8444,4.8314,4.7014,4.6494,4.6494,4.6494,4.6494,4.6494,1.1498,1.1343,1.1481,1.1892,1.2552,1.3675,1.5606,1.5899,1.645,1.8004,1.9481,2.0394,2.0394,2.1772,2.2712,2.2712,2.3902,2.5372,2.7091,2.8185,2.9362,3.0581,3.1381,3.2358,3.3566,3.5237,3.6296,3.6686,3.7912,3.8711,3.9101,3.9101,3.9101,3.9101,3.9101,3.9101,3.9064,3.8674,3.8265,3.7782,3.6575,3.5349,3.4104,3.286,3.1392,2.9965,2.9537,2.8589,2.7381,2.6581,2.6303,2.6172,2.5355,2.4798,2.4371,0.0,0.0,0.0,0.0,0.0,0.0,0.0,0.0,0.0,0.0,0.0,0.0,0.0,0.0,3.0706,3.2019,0.0,3.5155,3.6445,3.8024,3.9528,4.0773,4.1664,4.2054,4.1646,4.1962,4.2519,4.3318,4.3392,4.3578,4.3968,4.4395,4.4655,4.4655,4.5454,4.59,4.59,4.629,4.668,4.7107,4.7107,4.7293,4.7701,4.7701,4.7701,4.7701,4.8129,4.8296,4.8314,4.8723,4.8909,4.8927,4.9336,4.9763,5.0079,4.9262,4.8444,4.7701,4.7701,4.7701,4.7701,1.2707,1.2707,1.2673,1.2517,1.3104,1.4106,1.5658,1.5899,1.645,1.8004,1.9361,2.0239,2.0377,2.1635,2.2582,2.2901,2.4418,2.6064,2.769,2.8336,2.9499,3.1433,3.1691,3.2544,3.416,3.5683,3.6538,3.6686,3.8154,3.8952,3.9101,3.9101,3.9101,3.9101,3.9101,3.9101,3.9101,3.9101,3.8637,3.7819,3.7021,3.6203,3.533,3.3807,3.2321,3.0968,3.0169,2.9314,2.8459,2.7474,2.7139,2.699,2.6191,2.5931,2.5819,2.5169,2.4964,0.0,0.0,0.0,0.0,0.0,0.0,0.0,0.0,2.8505,2.896,3.0887,3.1819,3.2748,3.4383,3.5516,3.6835,3.8785,3.9491,4.0513,4.2519,4.2927,4.302,4.302,4.302,4.328,4.3949,4.4153,4.4246,4.4246,4.5045,4.5528,4.5528,4.629,4.6735,4.6735,4.6884,4.7274,4.7924,4.7924,4.8259,4.8909,4.8909,4.8983,4.9132,4.9132,4.9243,4.9392,4.9392,4.9392,4.9447,5.0098,5.0766,5.1398,5.1398,5.058,4.9392,4.9392,4.9392,4.9392,1.3484,1.3484,1.3277,1.2603,1.3104,1.4106,1.5658,1.5899,1.645,1.8004,1.8896,1.9671,2.0325,2.1187,2.2263,2.3547,2.441,2.5488,2.6917,2.7753,2.9169,3.1396,3.1691,3.2544,3.416,3.5126,3.5962,3.6686,3.7596,3.8395,3.9101,3.9101,3.9101,3.9101,3.9101,3.9101,3.9101,3.9101,3.8637,3.7819,3.7021,3.6203,3.5386,3.442,3.351,3.2618,3.1819,3.1002,3.0095,2.8494,2.7956,2.7845,2.7028,2.6767,2.6749,2.6674,2.6637,2.6599,2.6482,2.6495,2.6774,2.7692,2.7936,2.8324,0.0,3.0315,3.0965,3.3305,3.3863,3.4439,3.611,3.7671,3.8785,3.9064,4.094,4.2482,4.276,4.3429,4.3875,4.3875,4.3875,4.3893,4.3986,4.4692,4.5138,4.5138,4.59,4.6364,4.6364,4.7125,4.7571,4.7571,4.8259,4.8667,4.876,4.8779,4.8816,4.8909,4.8909,4.928,4.9986,4.9986,5.0395,5.1119,5.1119,5.1119,5.1138,5.1212,5.1305,5.1398,5.1398,5.1286,5.1119,5.1119,5.1119,5.1119,1.3605,1.3605,1.3501,1.319,1.3398,1.3985,1.509,1.5624,1.6295,1.7363,1.8551,1.9413,1.9723,2.0866,2.2194,2.3667,2.4399,2.544,2.6982,2.7714,2.8957,3.0895,3.1518,3.2321,3.3473,3.481,3.5646,3.5999,3.6798,3.7355,3.7689,3.7689,3.7689,3.7689,3.7689,3.7689,3.7689,3.7689,3.7503,3.7132,3.6315,3.5795,3.5386,3.4531,3.3696,3.2953,3.2618,3.1968,0.0,2.9965,2.9535,2.9332,2.8013,2.7604,2.7604,2.7604,2.7604,2.7807,2.873,2.8968,2.9193,3.0055,3.0241,3.0668,3.2321,3.2692,3.325,3.5237,3.6017,3.6705,3.7875,3.9064,4.016,4.1107,4.211,4.2965,4.3429,4.3782,4.4005,4.4005,4.4451,4.4748,4.4748,4.5082,4.5491,4.5955,4.6735,4.72,4.72,4.7961,4.8407,4.8407,4.8723,4.8909,4.8909,4.9355,4.9596,4.9596,5.0116,5.0525,5.0859,5.0859,5.1063,5.1398,5.1398,5.1676,5.2104,5.2104,5.2364,5.281,5.281,5.281,5.2679,5.1751,5.1398,5.1398,1.3605,1.3605,1.3605,1.3605,1.3605,1.3864,1.4692,1.5245,1.5916,1.688,1.7966,1.8913,1.9533,2.0815,2.2125,2.3374,2.4007,2.4962,2.6441,2.7233,2.8433,3.0185,3.1021,3.1838,3.2637,3.4067,3.4903,3.5126,3.5962,3.6482,3.6686,3.6686,3.6686,3.6686,3.6686,3.6686,3.6686,3.6686,3.6556,3.6315,3.572,3.5219,3.4736,3.4104,3.3361,3.2692,3.2915,3.2446,3.1603,3.0854,3.0553,3.025,2.8903,2.8626,2.8773,2.8773,2.9089,2.9665,3.0671,3.1098,3.1448,3.2247,3.2451,3.2878,3.4513,3.4884,3.5293,3.6723,3.7671,3.8469,3.9305,4.0327,4.1441,4.2612,4.2983,4.3336,4.3912,4.4005,4.4098,4.4321,4.4915,4.5472,4.5918,4.5955,4.6197,4.6791,4.7571,4.8036,4.8036,4.8574,4.9002,4.9224,4.9243,4.9355,4.9596,5.0172,5.0469,5.0469,5.1101,5.1528,5.1732,5.1955,5.2067,5.2067,5.2067,5.2401,5.294,5.294,5.3274,5.3813,5.3813,5.3813,5.3664,5.2494,5.2067,5.2067,1.3605,1.3605,1.3605,1.3605,1.3605,1.3864,1.4692,1.483,1.5349,1.6812,1.7053,1.7914,2.0119,2.1083,2.1918,2.2677,2.2993,2.3632,2.4797,2.5925,2.7414,2.9349,3.0225,3.1002,3.1819,3.2637,3.3454,3.4234,3.5107,3.5925,3.6686,3.6686,3.6686,3.6686,3.6686,3.6686,3.6686,3.6686,3.624,3.5516,3.5497,3.4513,3.3064,3.3045,3.2525,3.1931,3.2711,3.2353,3.1415,3.0828,3.0446,3.0125,2.9548,2.9909,3.0522,3.0522,3.1615,3.2692,3.1949,3.2321,3.312,3.3918,3.4123,3.4569,3.624,3.6612,3.6853,3.7689,3.8488,3.9324,4.0197,4.1664,4.2742,4.2797,4.3448,4.3968,4.4005,4.4005,4.4302,4.5157,4.5268,4.59,4.7478,4.7627,4.7646,4.7664,4.8407,4.8872,4.8872,4.889,4.9262,5.0042,5.006,5.0469,5.1323,5.1342,5.1361,5.1361,5.1398,5.1806,5.2587,5.3367,5.3738,5.3738,5.3738,5.3738,5.3775,5.3775,5.3775,5.3813,5.3813,5.3813,5.3794,5.3757,5.3738,5.3738,1.3605,1.3605,1.3605,1.3605,1.3605,1.3691,1.3967,1.4451,1.4969,1.5487,1.6381,0.0,0.0,0.0,0.0,0.0,2.2223,2.2994,2.445,2.5212,2.6188,2.7414,2.8989,2.9946,3.0206,3.1504,3.234,3.26,3.2897,3.3175,3.3454,3.3993,3.4234,3.4234,3.4234,3.4234,3.4197,3.3677,3.3287,3.3045,3.3045,3.2692,3.2191,3.2191,3.1689,3.1095,0.0,3.1866,3.1396,3.0655,3.0332,3.0231,3.0042,3.0265,3.0913,3.2507,3.377,3.4717,3.4977,3.4847,3.4847,3.5646,3.585,3.6147,3.7243,3.7503,3.7708,3.8525,3.9361,4.0215,4.1033,4.2073,4.2965,4.3503,4.3819,4.4005,4.4005,4.4005,4.4321,4.5194,4.5769,4.6513,4.7608,4.7701,4.7924,4.8463,4.876,4.9132,4.967,4.9707,5.0098,5.0933,5.0971,5.1101,5.1398,5.1936,5.2197,5.2197,5.2735,5.3144,5.3423,5.3683,5.3813,5.3813,5.3813,5.3813,5.3813,5.3813,5.3813,5.3813,5.3813,5.3813,5.3813,5.3813,5.3813,5.3813,0.0,1.3605,1.3605,1.3605,1.3847,0.0,0.0,0.0,0.0,0.0,0.0,0.0,0.0,0.0,0.0,0.0,0.0,2.2435,2.383,2.4549,2.5216,2.587,2.7383,2.8187,2.8187,2.9752,3.0599,3.0599,3.1283,3.1626,3.1644,3.2256,3.2562,3.2562,3.2562,3.2562,3.2525,3.2005,3.247,3.3417,3.1949,3.1875,3.2488,3.1017,2.9959,0.0,2.9783,3.0064,3.0212,3.0314,3.0332,3.0268,3.0378,3.108,3.2172,3.3733,3.5219,3.6333,3.6278,3.6296,3.6482,3.7002,3.7132,3.7336,3.8154,3.8321,3.8469,3.899,4.0011,4.0977,4.1497,4.2482,4.3392,4.3912,4.4005,4.4005,4.4005,4.4005,4.4432,4.5584,4.6197,4.6921,4.8017,4.8129,4.8333,4.8872,4.9169,4.9559,5.0079,5.0395,5.0952,5.1806,5.1825,5.1974,5.2252,5.2772,5.3032,5.3051,5.3553,5.3813,5.3813,5.3813,5.3813,5.3813,5.3813,5.3813,5.3813,5.3813,5.3813,5.3813,5.3813,5.3813,5.3813,5.3813,5.3813,5.3813,0.0,0.0,1.3605,0.0,0.0,0.0,0.0,0.0,0.0,0.0,0.0,0.0,0.0,0.0,0.0,0.0,0.0,0.0,2.2957,2.3848,2.4462,2.4685,2.551,2.5924,2.5924,2.7457,2.8294,2.8294,3.0115,3.1052,3.1052,3.1422,3.1597,3.1615,3.1615,3.1597,3.1597,3.1559,3.3343,3.585,3.1968,3.1782,3.3417,2.9508,2.7524,2.68,2.6777,2.7195,2.8015,2.9773,3.0323,3.0304,3.0587,3.2302,3.4271,3.4309,3.598,3.7522,3.6073,3.676,3.7912,3.7949,3.7949,3.8154,3.8934,3.9101,3.9101,3.9101,4.0401,4.1553,4.159,4.2872,4.3949,4.3986,4.4005,4.4005,4.4005,4.4005,4.4618,4.629,4.6494,4.7125,4.8742,4.8909,4.8927,4.8964,4.967,5.0153,5.0228,5.1008,5.1825,5.2642,5.2661,5.3032,5.3794,5.3813,5.3813,5.3813,5.3813,5.3813,5.3813,5.3813,5.3813,5.3813,5.3813,5.3813,5.3813,5.3813,5.3831,5.3868,5.3868,5.3887,5.3943,5.3943,5.3943,5.3943,0.0,0.0,0.0,0.0,0.0,0.0,0.0,0.0,0.0,0.0,0.0,0.0,0.0,0.0,0.0,0.0,0.0,0.0,2.194,2.2884,2.3466,2.3537,2.4544,2.5108,2.5108,2.6105,2.6616,2.6616,2.7103,2.744,2.7657,2.8352,2.8776,2.8966,2.9026,2.9026,2.8989,2.8402,2.8604,2.923,2.8192,2.8135,2.8577,2.7539,2.6982,2.6777,2.6515,2.6707,2.7202,2.8172,2.9678,3.1218,3.144,3.3175,3.5274,3.5887,3.65,3.7169,3.7968,3.8042,3.8042,3.8637,3.8785,3.8841,3.9045,3.9101,3.9101,3.9101,3.9955,4.0884,4.1479,4.2426,4.3299,4.3893,4.4005,4.4005,4.4005,4.4005,4.4618,4.629,4.6494,4.7125,4.8742,4.8909,4.915,4.9763,4.9986,5.0655,5.1899,5.2178,5.2661,5.3478,5.3497,5.359,5.3813,5.3813,5.3813,5.3813,5.3813,5.3813,5.3813,5.3813,5.3813,5.3813,5.3813,5.3813,5.3813,5.3813,5.4166,5.4704,5.4704,5.5094,5.567,5.567,5.567,5.567,0.0,0.0,0.0,0.0,0.0,0.0,0.0,0.0,0.0,0.0,0.0,0.0,0.0,0.0,0.0,0.0,0.0,0.0,0.0,2.192,2.2436,2.2436,2.3375,2.3879,2.3879,2.464,2.5037,2.5037,2.5544,2.5853,2.6033,2.6607,2.6982,2.7112,2.7175,2.7175,2.7178,2.6806,2.7493,0.0,0.0,2.7075,2.8162,2.6351,2.5649,2.5629,2.5309,2.5829,2.6751,2.7643,2.9566,3.1668,3.176,3.3491,3.5572,3.6036,3.6668,3.7411,3.8321,3.8488,3.8544,3.899,3.9101,3.9101,3.9101,3.9101,3.9101,3.9101,3.9788,4.0531,4.0977,4.2017,4.2946,4.3392,4.3763,4.4005,4.4005,4.4005,4.4618,4.629,4.6494,4.7125,4.8742,4.9224,4.9782,5.0618,5.0673,5.1249,5.2531,5.294,5.333,5.3794,5.3813,5.3813,5.3813,5.3813,5.3813,5.3813,5.3813,5.3813,5.3813,5.3813,5.3998,5.4333,5.4333,5.4537,5.4909,5.4909,5.5169,5.5577,5.5577,5.5874,5.6302,5.6302,5.6302,5.6357,0.0,0.0,0.0,0.0,0.0,0.0,0.0,0.0,0.0,0.0,0.0,1.7208,1.7294,1.7828,0.0,0.0,0.0,0.0,0.0,0.0,2.1453,2.1453,2.2177,2.2556,2.2556,2.3298,2.3633,2.3633,2.4637,2.5138,2.519,2.5475,2.5625,2.5649,2.5695,2.5737,2.5737,2.5976,2.773,3.0027,2.6615,2.6974,2.9134,0.0,2.4173,2.4154,2.3899,2.4863,2.6417,2.752,2.9551,3.1652,3.1764,3.3343,3.52,3.5423,3.6556,3.7764,3.7856,3.8488,3.9101,3.9101,3.9101,3.9101,3.9101,3.9101,3.9064,3.8952,3.9528,4.0085,4.0197,4.1367,4.2426,4.2742,4.3392,4.3875,4.3986,4.4005,4.4618,4.629,4.6494,4.7125,4.8742,4.9633,5.0469,5.1323,5.1491,5.1918,5.2717,5.3423,5.3813,5.3813,5.3813,5.3813,5.3813,5.3813,5.3813,5.3813,5.3813,5.3868,5.3961,5.3961,5.4407,5.5169,5.5169,5.5614,5.6302,5.6302,5.6357,5.6469,5.6469,5.6525,5.6617,5.6617,5.6617,5.6729,0.0,0.0,0.0,0.0,0.0,0.0,0.0,0.0,0.0,0.0,1.8672,1.8207,0.0,0.0,0.0,0.0,0.0,0.0,0.0,0.0,0.0,2.0601,2.1384,2.1798,2.1798,2.2522,2.2901,2.2901,2.3075,2.3302,2.353,2.3562,2.3697,2.3871,2.4151,2.4275,2.4275,2.4377,2.4725,2.512,2.4205,2.4281,2.4863,2.4133,2.4016,0.0,2.3958,2.4538,2.5552,2.6463,2.8569,3.0909,3.1578,3.2544,3.3696,3.5089,3.6166,3.7039,3.7708,3.8488,3.9101,3.9101,3.9101,3.9101,3.9101,3.9101,3.8915,3.8247,3.8228,3.8544,3.9194,3.9547,4.0401,4.2463,4.2927,4.3243,4.3912,4.4005,4.4618,4.629,4.6494,4.7125,4.8742,4.9633,5.0469,5.1323,5.2029,5.2735,5.3553,5.372,5.3813,5.3813,5.3813,5.3813,5.3813,5.3813,5.3813,5.3813,5.3813,5.4166,5.4797,5.4797,5.5261,5.6079,5.6079,5.6172,5.6302,5.6302,5.6692,5.7286,5.7286,5.7713,5.8289,5.8289,5.8289,5.8308,0.0,0.0,0.0,0.0,0.0,0.0,0.0,1.9619,1.9998,2.0343,1.9774,1.9481,1.9826,1.9206,1.8896,0.0,0.0,0.0,0.0,0.0,0.0,1.9826,2.0549,2.0963,2.0963,2.1307,2.1497,2.1497,0.0,2.1572,2.1677,2.1677,2.1958,2.2452,2.2305,2.2468,2.2865,2.2705,2.2564,2.2443,2.2463,2.2463,2.2463,2.2562,2.2933,0.0,2.3891,2.4449,2.5125,2.6264,2.7733,2.9422,3.124,3.234,3.3324,3.4996,3.6055,3.6872,3.7671,3.8488,3.9101,3.9101,3.9101,3.899,3.8562,3.8469,3.8247,3.7429,3.7281,3.7392,3.7782,3.8544,3.9491,4.068,4.1962,4.2927,4.3318,4.3745,4.4618,4.629,4.6494,4.7125,4.8742,5.0042,5.0952,5.1361,5.2531,5.3385,5.3775,5.3813,5.3813,5.3813,5.3813,5.3813,5.3813,5.3813,5.4017,5.4426,5.4426,5.4871,5.5689,5.5689,5.6134,5.6933,5.6933,5.7156,5.7565,5.7565,5.7788,5.8122,5.8122,5.8364,5.8716,5.8716,5.8716,5.8716,0.0,0.0,0.0,0.0,0.0,0.0,0.0,2.017,2.0704,2.0859,2.0894,2.0894,2.0894,2.0067,1.9533,0.0,0.0,0.0,0.0,0.0,0.0,0.0,0.0,0.0,2.0153,0.0,0.0,2.0394,2.0394,0.0,0.0,0.0,0.0,0.0,2.0894,2.1061,2.1645,2.1378,2.1171,0.0,0.0,2.1189,2.1167,0.0,0.0,0.0,0.0,2.4262,2.4769,2.6009,2.6898,2.7981,3.0654,3.2057,3.3064,3.4717,3.5795,3.6575,3.7206,3.7968,3.8581,3.8581,3.8581,3.8414,3.7782,3.7634,3.7411,3.6593,3.6426,3.6426,3.6426,3.7466,3.8488,3.9027,4.0884,4.2407,4.2742,4.3485,4.4618,4.629,4.6494,4.7125,4.8742,5.0413,5.1398,5.1398,5.2902,5.3813,5.3813,5.3813,5.3813,5.3813,5.3813,5.3813,5.3813,5.398,5.437,5.5001,5.5206,5.5744,5.6562,5.6562,5.7008,5.7769,5.7769,5.8122,5.8716,5.8716,5.8716,5.8716,5.8716,5.8716,5.8716,5.8716,5.8716,5.8716,0.0,0.0,0.0,0.0,0.0,0.0,0.0,2.0963,2.1746,2.2419,2.2479,2.2479,2.2479,2.117,2.0291,0.0,0.0,0.0,0.0,0.0,0.0,0.0,0.0,0.0,0.0,0.0,0.0,2.0394,2.0394,0.0,0.0,0.0,0.0,0.0,0.0,2.0829,2.0899,2.0855,0.0,0.0,0.0,0.0,0.0,0.0,0.0,0.0,0.0,2.3813,2.4355,2.504,2.597,2.7298,2.9758,3.1158,3.2228,3.3844,3.4922,3.5627,3.5683,3.6296,3.6909,3.6909,3.6909,3.6891,3.6816,3.6798,3.6575,3.5776,3.5609,3.5609,3.5609,3.572,3.6538,3.8729,3.9955,4.1126,4.2593,4.3485,4.4618,4.629,4.6494,4.7125,4.8742,5.0413,5.1398,5.1398,5.2902,5.3813,5.3813,5.3813,5.3813,5.3813,5.3813,5.3813,5.3813,5.4518,5.4946,5.502,5.58,5.6617,5.7398,5.7398,5.7843,5.8605,5.8605,5.8642,5.8716,5.8716,5.8716,5.8716,5.8716,5.8716,5.8716,5.8716,5.8716,5.8716,0.0,0.0,0.0,0.0,0.0,0.0,2.036,2.1445,2.2384,2.2677,2.2712,2.2712,2.2712,2.2134,2.1411,2.0481,0.0,0.0,0.0,0.0,0.0,0.0,0.0,0.0,0.0,0.0,1.9068,1.9068,1.9068,0.0,0.0,0.0,0.0,0.0,0.0,1.9664,2.0051,1.9737,0.0,0.0,0.0,0.0,0.0,0.0,0.0,0.0,0.0,0.0,2.3886,2.497,2.5876,2.6869,2.9008,3.0609,3.2006,3.366,3.4785,3.5497,3.5497,3.6073,3.6686,3.6686,3.6686,3.6426,3.5423,3.52,3.4829,3.3528,3.3268,3.3268,3.3268,3.4048,3.52,3.6686,3.8878,4.0791,4.1924,4.3188,4.4618,4.629,4.6494,4.7125,4.8742,5.0413,5.1806,5.2772,5.3441,5.3813,5.3813,5.3813,5.3813,5.3813,5.3813,5.4035,5.4518,5.4853,5.5522,5.6525,5.6859,5.7453,5.8234,5.8234,5.8401,5.8716,5.8716,5.8716,5.8716,5.8716,5.8716,5.8716,5.8716,5.8716,5.8716,5.8716,5.8716,5.8716,0.0,0.0,0.0,0.0,0.0,2.0394,2.0394,2.1703,2.2712,2.2712,2.2712,2.2712,2.2712,2.2712,2.2065,2.0532,1.9929,0.0,0.0,0.0,0.0,0.0,0.0,0.0,0.0,0.0,1.8211,1.8211,1.8211,1.8211,0.0,0.0,1.8487,1.897,0.0,0.0,0.0,0.0,0.0,0.0,0.0,0.0,0.0,0.0,0.0,0.0,0.0,0.0,0.0,0.0,0.0,2.638,2.8206,2.9747,3.127,3.3167,3.4389,3.5082,3.5107,3.5516,3.5962,3.5962,3.5776,3.5293,3.4104,3.3658,3.3157,3.2024,3.1782,3.1782,3.1782,3.2915,3.4197,3.5312,3.8024,4.0383,4.1441,4.2983,4.4618,4.629,4.6494,4.7125,4.8742,5.0413,5.2067,5.3683,5.3813,5.3813,5.3813,5.3813,5.3813,5.3813,5.4035,5.4444,5.5001,5.5503,5.6339,5.7509,5.7751,5.8159,5.8716,5.8716,5.8716,5.8716,5.8716,5.8716,5.8716,5.8716,5.8716,5.8716,5.8716,5.8716,5.8716,5.8716,5.8716,5.8716,0.0,0.0,0.0,0.0,0.0,0.0,2.0394,2.1703,2.2712,2.2712,2.2712,2.2712,2.2712,2.2712,2.2065,2.0532,2.0394,0.0,0.0,0.0,0.0,0.0,0.0,0.0,0.0,0.0,1.8211,1.8211,1.8211,1.8211,1.8211,1.8211,1.8211,1.8228,0.0,0.0,0.0,0.0,0.0,0.0,0.0,0.0,0.0,0.0,0.0,0.0,0.0,0.0,0.0,0.0,0.0,0.0,0.0,2.8463,2.9699,3.2186,3.3469,3.4142,3.4191,3.4216,3.4234,3.4234,3.3621,3.3027,3.3008,3.2395,3.1819,3.1782,3.1782,3.1782,3.1782,3.2451,3.3547,3.5219,3.7522,3.9695,4.1367,4.2983,4.4618,4.629,4.6494,4.7125,4.8742,5.0413,5.2067,5.3683,5.3813,5.3813,5.3813,5.3813,5.3813,5.3813,5.4574,5.5001,5.5001,5.6655,5.749,5.7509,5.8308,5.8698,5.8716,5.8716,5.8716,5.8716,5.8716,5.8716,5.8716,5.8716,5.8716,5.8716,5.8716,5.8716,5.8716,5.8716,5.8716,5.8716,0.0,0.0,0.0,0.0,0.0,0.0,0.0,2.1703,2.2712,2.2712,2.2712,2.2712,2.2712,2.2263,2.1514,2.0481,2.0394,0.0,0.0,0.0,0.0,0.0,0.0,0.0,0.0,1.8947,1.9189,1.9688,1.9688,1.9688,1.9688,1.9688,1.9688,1.9671,1.9171,1.8947,0.0,0.0,0.0,0.0,0.0,0.0,1.8356,0.0,0.0,0.0,0.0,0.0,0.0,0.0,0.0,0.0,0.0,0.0,0.0,3.0056,3.169,3.3235,3.3308,3.3697,3.4018,3.351,3.3175,3.2692,3.1597,3.1151,3.0838,3.0281,3.0169,3.0169,3.0169,3.1284,3.2711,3.4401,3.7169,3.9695,4.1349,4.2983,4.4618,4.629,4.746,4.8797,5.045,5.1082,5.2067,5.3683,5.3813,5.3813,5.3813,5.3813,5.3813,5.3813,5.4593,5.5299,5.5893,5.697,5.7788,5.8326,5.8586,5.8716,5.8716,5.8716,5.8716,5.8716,5.8716,5.8716,5.8716,5.8716,5.8716,5.8716,5.8716,5.8716,5.8716,5.8716,5.8716,5.8716,0.0,0.0,0.0,0.0,0.0,0.0,0.0,2.1032,2.1824,2.1824,2.1824,2.1824,2.1824,2.1411,2.0825,2.005,1.9981,0.0,0.0,0.0,0.0,0.0,0.0,0.0,1.9275,1.9568,1.9929,2.0394,2.0394,2.0394,2.0394,2.0394,2.0394,2.0377,1.9912,1.955,0.0,0.0,0.0,0.0,0.0,0.0,1.8526,0.0,0.0,0.0,0.0,0.0,0.0,0.0,0.0,0.0,0.0,0.0,0.0,0.0,2.9918,3.1531,3.2218,3.2778,3.3062,3.2609,3.2279,3.1797,3.0816,3.0373,3.002,2.95,2.9407,2.95,2.9797,3.1173,3.2785,3.45,3.7466,4.0048,4.1404,4.2983,4.4618,4.629,4.8184,4.9893,5.1268,5.1676,5.2401,5.3701,5.3813,5.3813,5.3813,5.3813,5.3943,5.424,5.5057,5.5912,5.6747,5.7565,5.8215,5.8716,5.8716,5.8716,5.8716,5.8716,5.8716,5.8716,5.8716,5.8716,0.0,5.8716,5.8716,5.8716,5.8716,5.8716,5.8716,5.8716,5.8716,5.8716,0.0,0.0,0.0,0.0,0.0,0.0,0.0,1.9929,2.0394,2.0394,2.0394,2.0394,2.0394,2.0343,2.005,1.9361,0.0,0.0,0.0,0.0,0.0,0.0,0.0,0.0,1.9378,2.0102,2.0515,2.0567,2.0567,2.0567,2.0567,2.0567,2.0567,2.0549,2.0515,2.0033,1.9263,0.0,0.0,0.0,1.8789,1.886,0.0,0.0,0.0,0.0,0.0,0.0,0.0,0.0,0.0,0.0,0.0,0.0,0.0,0.0,0.0,0.0,0.0,3.1473,3.1584,3.1617,3.1043,3.0509,3.0519,2.9983,0.0,2.95,2.9537,2.9797,3.0559,3.1987,3.3621,3.5237,3.8247,4.068,4.1479,4.3095,4.4804,4.6475,4.8704,5.0469,5.1398,5.2159,5.294,5.3738,5.3813,5.3813,5.3813,5.385,5.4258,5.5076,5.593,5.6747,5.749,5.8308,5.8716,5.8716,5.8716,5.8716,5.8716,5.8716,5.8716,5.8716,5.8716,5.8716,5.8716,5.8716,5.8716,5.8716,5.8716,5.8716,5.8716,5.8716,5.8716,5.8716,0.0,0.0,0.0,0.0,0.0,0.0,0.0,0.0,0.0,0.0,2.0394,2.0394,2.0394,1.9895,1.9481,0.0,0.0,0.0,0.0,0.0,0.0,0.0,0.0,0.0,2.0119,2.0894,2.1583,2.2151,2.2151,2.2151,2.2151,2.2151,2.2151,2.2117,2.1566,2.0573,1.924,1.8547,0.0,0.0,1.8677,1.8734,0.0,0.0,0.0,0.0,2.1113,2.1966,0.0,0.0,0.0,0.0,0.0,0.0,0.0,0.0,2.6521,2.7383,2.8419,0.0,3.1407,3.0909,3.0635,3.0361,0.0,3.002,3.0336,3.0336,3.082,3.1281,3.1489,3.2823,3.4271,3.533,3.8247,4.068,4.1479,4.4079,4.6513,4.8147,4.9392,5.0692,5.2178,5.2494,5.294,5.3738,5.3813,5.3813,5.3813,5.4388,5.5113,5.5967,5.6803,5.7323,5.7509,5.8308,5.8716,5.8716,5.8716,5.8716,5.8716,5.8716,5.8716,5.8716,5.8716,5.8716,5.8716,5.8716,5.8716,5.8716,5.8716,5.8716,5.8716,5.8716,5.8716,5.8716,0.0,0.0,0.0,0.0,0.0,0.0,0.0,0.0,0.0,0.0,0.0,1.9378,0.0,0.0,0.0,0.0,0.0,0.0,0.0,0.0,0.0,0.0,0.0,2.0153,2.0928,2.1729,2.2488,2.3185,2.3185,2.3374,2.3764,2.3384,2.3185,2.315,2.2091,2.0911,1.9757,1.9016,1.8547,1.836,1.8582,0.0,0.0,0.0,0.0,0.0,2.0698,2.1553,0.0,2.3019,2.3666,2.4151,0.0,0.0,0.0,0.0,2.5695,2.63,2.7475,2.8787,2.9826,2.9861,2.9865,2.9891,2.9901,3.0278,3.0708,3.1058,3.1485,3.2024,3.2767,3.4234,3.5739,3.6946,3.9602,4.1906,4.3132,4.5138,4.6958,4.8203,4.9745,5.1045,5.1955,5.2717,5.333,5.3775,5.3813,5.3813,5.3813,5.4574,5.541,5.6265,5.7082,5.7676,5.8048,5.8494,5.8716,5.8716,5.8716,5.8716,5.8716,5.8716,5.8716,5.8716,5.8716,5.8716,5.8716,5.8716,5.8716,5.8716,5.8716,5.8716,5.8716,5.8716,5.8716,5.8698,0.0,0.0,0.0,0.0,0.0,0.0,0.0,0.0,0.0,0.0,0.0,0.0,0.0,0.0,0.0,0.0,0.0,0.0,0.0,0.0,0.0,0.0,2.0067,2.0773,2.1591,2.2436,2.3168,2.3788,2.3908,2.435,2.4988,2.4315,2.3908,2.3736,2.2263,2.1135,2.0343,1.9602,1.8974,1.8463,1.8524,0.0,0.0,0.0,0.0,0.0,0.0,0.0,0.0,2.2384,2.328,2.4151,2.3837,0.0,0.0,0.0,0.0,0.0,2.7184,2.7717,2.8033,2.8887,2.9175,2.9444,3.032,3.0646,3.1098,3.2135,3.2358,3.2878,3.4624,3.611,3.7559,3.9064,4.1367,4.3559,4.5249,4.6178,4.707,4.8147,5.0116,5.1491,5.1732,5.2995,5.3813,5.3813,5.3813,5.3813,5.3813,5.4704,5.554,5.6283,5.7212,5.8011,5.8698,5.8716,5.8716,5.8716,5.8716,5.8716,5.8716,5.8716,5.8716,5.8716,5.8716,5.8716,5.8716,5.8716,5.8716,5.8716,5.8716,5.8716,5.8716,5.8716,5.8716,5.8739,0.0,0.0,0.0,0.0,0.0,0.0,0.0,0.0,0.0,0.0,0.0,0.0,0.0,0.0,0.0,0.0,0.0,0.0,0.0,0.0,0.0,2.017,2.0343,2.0773,2.1591,2.2926,2.3684,2.3788,2.4488,2.4885,2.5005,2.4885,2.4471,2.3736,2.2263,2.1135,2.0343,1.9602,1.8883,1.8277,1.862,0.0,0.0,0.0,0.0,0.0,0.0,0.0,0.0,2.2168,2.3123,2.4113,2.3628,0.0,0.0,0.0,0.0,0.0,2.6418,2.7359,2.8098,2.8975,2.924,2.9505,3.0386,3.1114,3.2247,3.4457,3.4922,3.5627,3.7931,3.8562,3.9045,4.003,4.2222,4.4395,4.6085,4.7014,4.8333,5.0562,5.1175,5.1936,5.3311,5.3664,5.3813,5.3813,5.3813,5.3813,5.3813,5.5261,5.6172,5.6302,5.7751,5.8586,5.8716,5.8716,5.8716,5.8716,5.8716,5.8716,5.8716,5.8716,5.8716,5.8716,5.8716,5.8716,5.8716,5.8716,5.8716,5.8716,5.8716,5.8716,5.8716,5.8716,5.8716,5.8739,0.0,0.0,0.0,0.0,0.0,0.0,0.0,0.0,0.0,0.0,0.0,0.0,0.0,0.0,0.0,0.0,0.0,0.0,0.0,0.0,1.8844,2.0343,2.0394,2.0963,2.2177,2.3237,2.3994,2.4453,2.5229,2.5833,2.623,2.5799,2.4954,2.3753,2.3081,2.1893,2.0377,2.0033,1.924,1.8253,0.0,0.0,0.0,0.0,0.0,0.0,0.0,0.0,0.0,0.0,2.272,2.4094,2.3566,0.0,0.0,0.0,0.0,0.0,2.6323,2.7306,2.8252,2.9533,3.0243,3.0932,3.2256,3.2818,3.3677,3.572,3.6482,3.7262,3.8822,3.9844,4.0866,4.2129,4.367,4.5119,4.6327,4.7181,4.8444,5.0469,5.1119,5.1862,5.3051,5.3553,5.3813,5.3813,5.3813,5.3813,5.3813,5.5391,5.6302,5.6302,5.7862,5.8716,5.8716,5.8716,5.8716,5.8716,5.8716,5.8716,5.8716,5.8716,5.8716,5.8716,5.8716,5.8716,5.8716,5.8716,5.8716,5.8716,5.8716,5.8716,5.8698,5.8887,5.9234,5.9605,0.0,0.0,0.0,0.0,0.0,0.0,0.0,0.0,0.0,0.0,0.0,0.0,0.0,0.0,0.0,0.0,0.0,0.0,0.0,0.0,1.8844,2.0343,2.0394,2.1118,2.2677,2.3598,2.4384,2.5005,2.5937,2.6695,2.7282,2.6488,2.5385,2.4063,2.3874,2.2634,2.067,2.0481,1.9636,1.8474,0.0,0.0,0.0,0.0,0.0,0.0,0.0,0.0,0.0,0.0,0.0,0.0,0.0,0.0,0.0,2.4428,2.4925,2.5623,2.6633,2.769,2.8938,3.0567,3.1205,3.1918,3.3771,3.421,3.4829,3.7095,3.7875,3.8599,3.9993,4.1293,4.263,4.4079,4.5026,4.5862,4.6661,4.7646,4.8797,5.0228,5.1156,5.1992,5.281,5.3441,5.3813,5.3813,5.3813,5.3813,5.3813,5.5391,5.6302,5.6302,5.7862,5.8716,5.8716,5.8716,5.8716,5.8716,5.8716,5.8716,5.8716,5.8716,5.8716,5.8716,5.8716,5.8716,5.8716,5.8716,5.8716,5.8716,5.8716,5.8739,5.8865,5.9121,5.9687,6.0293,0.0,0.0,0.0,0.0,0.0,0.0,0.0,0.0,0.0,0.0,0.0,0.0,0.0,0.0,0.0,0.0,0.0,0.0,0.0,0.0,1.8844,2.0343,2.0394,2.1118,2.2677,2.416,2.4936,2.5005,2.6488,2.723,2.7282,2.6488,2.5678,2.4885,2.4115,2.2944,2.147,2.0722,1.9929,1.9176,1.8723,0.0,0.0,0.0,0.0,0.0,0.0,0.0,0.0,0.0,0.0,0.0,0.0,0.0,2.4337,2.509,2.5348,2.5752,2.7374,2.8942,3.0554,3.2297,3.1681,3.1299,3.3658,3.4197,3.533,3.9305,3.9528,3.9955,4.3076,4.3745,4.4135,4.5045,4.5881,4.668,4.7497,4.8946,5.0283,5.1193,5.2029,5.2828,5.3645,5.3775,5.3813,5.3813,5.3813,5.3813,5.3813,5.5391,5.6302,5.6302,5.7862,5.8716,5.8716,5.8716,5.8716,5.8716,5.8716,5.8716,5.8716,5.8716,5.8716,5.8716,5.8716,5.8716,5.8716,5.8716,5.8716,5.8716,5.8716,5.8887,5.9178,5.9215,5.9687,6.0293,0.0,0.0,0.0,0.0,0.0,0.0,0.0,0.0,0.0,0.0,0.0,0.0,0.0,0.0,0.0,0.0,0.0,0.0,0.0,1.862,1.9326,2.036,2.0877,2.1643,2.2694,2.3729,2.4505,2.5005,2.654,2.7299,2.7282,2.6488,2.5712,2.4971,2.4149,2.2988,2.1556,2.0739,1.9964,1.9245,1.872,1.8544,0.0,0.0,0.0,0.0,0.0,0.0,0.0,0.0,2.153,2.2827,2.288,2.3497,2.4355,2.5164,2.575,2.6523,2.8184,2.9503,3.0895,3.3154,3.3666,3.4141,3.6055,3.6891,3.7856,3.9955,4.0921,4.2092,4.4395,4.4804,4.5082,4.59,4.6717,4.7534,4.8333,4.941,5.0618,5.1992,5.2419,5.2921,5.372,5.3813,5.3813,5.3813,5.3813,5.3813,5.3813,5.5391,5.6302,5.6302,5.7862,5.8716,5.8716,5.8716,5.8716,5.8716,5.8716,5.8716,5.8716,5.8716,5.8716,5.8716,5.8716,5.8716,5.8716,5.8716,5.8716,5.8698,5.8926,5.9234,5.9605,5.9804,6.0189,6.0616,0.0,0.0,0.0,0.0,0.0,0.0,0.0,0.0,0.0,0.0,0.0,0.0,0.0,0.0,0.0,0.0,0.0,0.0,1.8211,1.8655,1.9378,2.036,2.0911,2.1694,2.2694,2.3185,2.3971,2.5005,2.654,2.7299,2.7282,2.6488,2.5712,2.4971,2.4149,2.3126,2.1884,2.0825,2.0102,1.9573,1.8742,1.8465,0.0,0.0,0.0,0.0,0.0,0.0,0.0,0.0,2.1133,2.2445,2.2566,2.3338,2.441,2.5456,2.6193,2.7059,2.896,3.0296,3.1695,3.4006,3.541,3.666,3.8302,3.912,3.9825,4.0921,4.2445,4.3931,4.5082,4.5509,4.5937,4.6754,4.7553,4.837,4.9169,5.0209,5.1323,5.2457,5.2828,5.32,5.3757,5.3813,5.3813,5.3813,5.3813,5.3813,5.3813,5.5391,5.6302,5.6302,5.7862,5.8716,5.8716,5.8716,5.8716,5.8716,5.8716,5.8716,5.8716,5.8716,5.8716,5.8716,5.8716,5.8716,5.8716,5.8716,5.8762,5.8905,5.9121,5.9518,5.9981,6.0208,6.052,6.08,0.0,0.0,0.0,0.0,0.0,0.0,0.0,0.0,1.8211,1.8211,1.8211,0.0,0.0,0.0,0.0,0.0,0.0,0.0,1.8211,1.8211,1.8861,2.0343,2.0412,2.1118,2.2677,2.2712,2.347,2.5005,2.654,2.7299,2.7264,2.6471,2.5712,2.4954,2.416,2.3374,2.2582,2.1049,2.0394,2.0274,1.8814,1.8443,1.877,0.0,0.0,0.0,0.0,0.0,0.0,0.0,2.0752,2.1879,2.2423,2.332,2.4502,2.6135,2.6654,2.7232,2.9664,3.1531,3.3229,3.4988,3.6644,3.8276,4.003,4.0401,4.0866,4.2482,4.4135,4.5287,4.5305,4.5974,4.6773,4.7571,4.8389,4.9187,5.0005,5.1546,5.2605,5.2605,5.3311,5.3813,5.3813,5.3813,5.3813,5.3813,5.3813,5.3813,5.3813,5.5391,5.6302,5.6302,5.7862,5.8716,5.8716,5.8716,5.8716,5.8716,5.8716,5.8716,5.8716,5.8716,5.8716,5.8716,5.8716,5.8716,5.8716,5.8716,5.8905,5.9215,5.9196,5.9654,6.0293,6.0293,6.0501,6.08,0.0,0.0,0.0,0.0,0.0,0.0,0.0,0.0,1.8211,1.8211,1.8211,0.0,0.0,0.0,0.0,0.0,0.0,0.0,1.8211,1.8672,1.9395,2.036,2.0928,2.1686,2.2694,2.3202,2.3988,2.5005,2.654,2.7006,2.6437,2.5678,2.4919,2.4115,2.3357,2.2892,2.2582,2.1049,2.0394,2.028,1.8951,1.8403,1.8403,0.0,0.0,0.0,0.0,0.0,0.0,0.0,0.0,0.0,2.1753,2.263,2.3786,2.597,2.6654,2.7361,3.0392,3.2009,3.3432,3.5751,3.7978,3.9908,4.0996,4.1237,4.1702,4.3318,4.4525,4.5472,4.603,4.6791,4.7608,4.8407,4.9224,5.0042,5.0896,5.1936,5.281,5.3385,5.3664,5.3813,5.3813,5.3813,5.3813,5.3813,5.3813,5.3813,5.3813,5.5391,5.6302,5.6302,5.7862,5.8716,5.8716,5.8716,5.8716,5.8716,5.8716,5.8716,5.8716,5.8716,5.8716,5.8716,5.8716,5.8716,5.8716,5.8716,5.8781,5.8905,5.9416,5.9758,6.0011,6.0475,6.071,6.08,0.0,0.0,0.0,0.0,0.0,0.0,1.8211,1.8211,1.8211,1.8211,1.8211,1.8069,0.0,0.0,0.0,1.7725,1.7725,1.7845,1.8194,1.8603,1.9189,1.9929,2.0435,2.1194,2.2246,2.3254,2.4029,2.4522,2.5781,2.6143,2.5661,2.4885,2.4281,2.3753,2.3013,2.2712,2.2582,2.1049,2.0394,2.0297,1.893,1.836,1.836,0.0,0.0,0.0,0.0,0.0,0.0,0.0,0.0,0.0,2.1511,2.2354,2.3492,2.5917,2.6696,2.7458,3.0757,3.2506,3.3944,3.6147,3.8562,4.068,4.1813,4.2314,4.2927,4.4246,4.5194,4.6011,4.6828,4.7627,4.8444,4.9262,5.0079,5.0915,5.1769,5.2568,5.3255,5.3738,5.3813,5.3813,5.3813,5.3813,5.3813,5.3813,5.3813,5.3813,5.3813,5.5391,5.6302,5.6302,5.7862,5.8716,5.8716,5.8716,5.8716,5.8716,5.8716,5.8716,5.8716,5.8716,5.8716,5.8716,5.8716,5.8716,5.8698,5.8825,5.9005,5.9178,5.9791,6.0072,6.0237,6.0641,6.08,6.08,0.0,0.0,0.0,0.0,0.0,0.0,1.7983,1.7983,1.7983,1.7983,1.7983,1.7707,0.0,0.0,0.0,1.6898,1.6967,1.7311,1.8035,1.8176,1.8517,1.9258,1.9361,2.005,2.147,2.2875,2.3598,2.3598,2.4557,2.4971,2.4885,2.4132,2.3753,2.3667,2.3005,2.2712,2.2582,2.1118,2.0463,2.0274,1.8883,1.8391,1.8483,1.8505,0.0,0.0,0.0,0.0,0.0,0.0,0.0,0.0,2.1492,2.2299,2.3364,2.5867,2.6702,2.75,3.0705,3.2813,3.4513,3.6259,3.8618,4.0921,4.2537,4.3485,4.4246,4.5119,4.5937,4.6754,4.7553,4.8426,4.9262,4.9986,5.0896,5.1769,5.2512,5.3292,5.3813,5.3813,5.3813,5.3813,5.3813,5.3813,5.3813,5.3813,5.3813,5.3813,5.3813,5.5317,5.6227,5.6302,5.7788,5.8642,5.8716,5.8716,5.8716,5.8716,5.8716,5.8716,5.8716,5.8716,5.8716,5.8716,5.8716,5.8716,5.8739,5.9045,5.9432,5.9791,6.016,6.0494,6.0757,6.08,6.08,6.08,0.0,0.0,0.0,0.0,0.0,0.0,1.6381,1.6381,1.6381,1.6381,1.6381,1.6329,1.6157,1.614,0.0,1.614,1.6674,1.707,1.7259,1.7845,1.8517,1.9258,1.9843,2.0308,2.0653,2.1583,2.2074,2.2074,2.404,2.4695,2.4046,2.3874,2.3478,2.2926,2.2754,2.2712,2.2634,2.1746,2.0963,2.0349,1.9595,1.8885,1.8298,1.862,1.8659,0.0,0.0,0.0,0.0,0.0,0.0,0.0,2.1343,2.1931,2.2556,2.5039,2.6239,2.737,3.0021,3.1978,3.3807,3.611,3.9027,4.1757,4.3373,4.3875,4.4246,4.5119,4.5937,4.6754,4.7553,4.8872,4.9912,5.0079,5.1361,5.2401,5.2587,5.3292,5.3813,5.3813,5.3813,5.3813,5.3813,5.3813,5.3813,5.3813,5.3813,5.3813,5.3813,5.4741,5.5596,5.6283,5.7249,5.8066,5.8698,5.8716,5.8716,5.8716,5.8716,5.8716,5.8716,5.8716,5.8716,5.8716,5.8716,5.8716,5.8739,5.9045,5.9233,5.9378,6.0053,6.0349,6.0449,6.069,6.08,6.08,0.0,0.0,0.0,0.0,0.0,0.0,0.0,0.0,1.5899,1.5899,1.5899,1.5761,1.54,1.5365,0.0,0.0,1.5727,1.6262,1.6949,1.7397,1.7966,1.8724,1.9481,1.986,1.986,2.1022,2.1608,2.1608,2.3143,2.3695,2.3254,2.3254,2.3064,2.2712,2.2712,2.2712,2.266,2.1918,2.1367,2.0918,2.024,1.9539,1.8903,1.9092,1.8977,1.8677,1.8825,0.0,0.0,0.0,0.0,0.0,0.0,0.0,2.228,2.4763,2.6111,2.7333,2.986,3.1741,3.377,3.7039,3.9733,4.1924,4.315,4.3726,4.4358,4.5621,4.6197,4.6865,4.8054,4.928,5.0246,5.0655,5.1788,5.2735,5.3125,5.3553,5.3813,5.3813,5.3813,5.3813,5.3813,5.3813,5.3813,5.3813,5.3813,5.3813,5.3813,5.4574,5.5224,5.567,5.6487,5.7323,5.8122,5.8141,5.8326,5.8716,5.8716,5.8716,5.8716,5.8716,5.8716,5.8716,5.8716,5.8716,5.8739,5.9271,5.9502,5.9571,6.0246,6.0546,6.0546,6.0734,6.08,6.08,0.0,0.0,0.0,0.0,0.0,0.0,0.0,0.0,0.0,1.5502,1.5502,1.5279,1.4658,1.4606,1.4606,0.0,0.0,0.0,1.6574,1.6764,1.7144,1.7821,1.8521,1.8896,1.8896,2.0418,2.1211,2.1211,2.2091,2.2522,2.2522,2.2634,2.2712,2.2712,2.2712,2.2712,2.2677,2.2056,2.1729,2.1539,2.0908,2.0326,1.9819,1.9903,1.9657,1.9291,1.9432,1.9482,1.9481,1.9499,0.0,0.0,0.0,0.0,2.2261,2.4598,2.6002,2.7278,2.9551,3.1857,3.4476,3.8005,4.0364,4.198,4.2649,4.3429,4.4488,4.6141,4.6494,4.6995,4.8612,4.9689,5.0562,5.1286,5.2197,5.3051,5.372,5.3813,5.3813,5.3813,5.3813,5.3813,5.3813,5.3813,5.3813,5.3813,5.3813,5.3813,5.3813,5.4444,5.4871,5.5001,5.5707,5.6469,5.7286,5.7286,5.7713,5.8494,5.8642,5.8716,5.8698,5.8781,5.8762,5.8716,5.8843,5.8843,5.8825,5.959,5.9887,5.995,6.0572,6.08,6.08,6.08,6.08,6.08,0.0,0.0,0.0,0.0,0.0,0.0,0.0,0.0,0.0,0.0,1.3916,1.3881,1.3777,1.376,1.376,1.376,1.4496,1.505,1.5259,0.0,0.0,1.6378,1.6976,1.7311,1.7311,1.881,1.9602,1.9602,2.1056,2.1763,2.1763,2.2419,2.2712,2.2712,2.2712,2.2712,2.2685,2.2608,2.2194,2.1616,2.1679,2.1253,2.0678,2.1085,2.1204,2.117,2.1369,2.1438,2.131,2.0594,2.0338,0.0,0.0,0.0,2.2151,2.3934,2.552,2.696,2.8122,3.2228,3.65,3.7745,4.0364,4.2667,4.2779,4.3429,4.4488,4.6141,4.6494,4.6995,4.8612,5.0172,5.1268,5.1379,5.2661,5.3683,5.3775,5.3813,5.3813,5.3813,5.3813,5.3813,5.3813,5.3813,5.3813,5.3813,5.3813,5.3813,5.3813,5.3905,5.4296,5.4983,5.5113,5.5596,5.645,5.6469,5.6859,5.7676,5.8382,5.8716,5.8698,5.8986,5.8986,5.8739,5.9399,5.9451,5.9178,5.9931,6.0237,6.0265,6.0641,6.08,6.08,6.08,6.08,6.08,0.0,0.0,0.0,0.0,0.0,0.0,0.0,0.0,0.0,0.0,0.0,1.3777,1.4209,1.3864,1.3636,1.3713,1.4088,1.4535,1.5086,1.5794,1.6201,1.6201,1.6395,1.6704,1.7155,1.8166,1.8901,1.9292,2.0377,2.0911,2.0953,2.1368,2.1967,2.2712,2.2868,2.2842,2.2712,2.2868,2.2753,2.2464,2.2682,2.2424,2.1875,2.2075,2.1972,2.1678,2.1766,2.1801,2.1748,2.1363,2.1235,2.1363,2.2208,0.0,0.0,0.0,2.5115,2.6537,2.8823,3.2627,3.6177,3.7021,3.9695,4.2129,4.2129,4.3095,4.4358,4.5584,4.6197,4.6995,4.8612,4.9875,5.0841,5.1323,5.2364,5.3292,5.3738,5.3813,5.3813,5.3813,5.3813,5.3813,5.3813,5.3813,5.3813,5.3813,5.3813,5.3813,5.3813,5.3813,5.3961,5.4333,5.4333,5.4741,5.5559,5.5577,5.6227,5.7509,5.7862,5.8271,5.8698,5.9045,5.9025,5.8739,5.9486,5.9571,5.927,5.9992,6.0293,6.0321,6.0666,6.08,6.08,6.08,6.08,6.08,0.0,0.0,0.0,0.0,0.0,0.0,0.0,0.0,0.0,0.0,0.0,1.44,1.5021,0.0,0.0,0.0,1.4412,1.4707,1.5293,1.5625,1.5793,1.5793,1.5846,1.6133,1.6711,1.7537,1.8236,1.8724,1.9654,2.0142,2.0195,2.0618,2.1336,2.2277,2.2635,2.2681,2.2522,2.2933,2.3126,2.3206,2.3495,2.3371,2.3006,2.3085,2.2832,2.2442,2.2442,2.2425,2.2372,2.2169,2.2097,2.2208,2.2813,2.3014,0.0,0.0,0.0,2.6206,2.932,3.2437,3.5087,3.6363,3.9008,4.1386,4.1813,4.2835,4.4005,4.5082,4.5769,4.668,4.8296,4.9429,5.0395,5.1268,5.2085,5.2884,5.3701,5.3813,5.3813,5.3813,5.3813,5.3813,5.3813,5.3813,5.3813,5.3813,5.3813,5.3813,5.3813,5.3813,5.3813,5.3813,5.3813,5.4091,5.4704,5.4909,5.5633,5.6878,5.7144,5.7744,5.8527,5.8878,5.899,5.9005,5.9658,5.9706,5.9432,6.0131,6.0422,6.0449,6.069,6.08,6.08,6.08,6.08,6.08,0.0,0.0,0.0,0.0,0.0,0.0,0.0,0.0,0.0,0.0,0.0,1.5795,1.583,1.5813,1.5778,1.5796,1.6078,1.6109,1.5691,1.4878,1.4407,1.4407,1.4945,0.0,1.5117,1.657,1.7281,1.7122,1.862,1.9438,1.9675,2.0628,2.1081,2.1104,2.1685,2.1949,2.199,2.2761,2.3212,2.3414,2.3753,2.386,2.3883,2.4118,2.4211,2.4174,2.4174,2.4137,2.3952,2.3179,2.2941,2.2942,2.2977,2.3013,2.3178,0.0,0.0,0.0,2.859,3.115,3.3703,3.6033,3.8553,4.0847,4.2389,4.2797,4.3336,4.4952,4.5324,4.5844,4.746,4.9039,5.0395,5.1268,5.2085,5.2884,5.3701,5.3813,5.3813,5.3813,5.3813,5.3813,5.3813,5.3813,5.3813,5.3813,5.3813,5.3813,5.3813,5.3813,5.3813,5.3813,5.3813,5.3831,5.3868,5.463,5.5039,5.515,5.6238,5.7208,5.807,5.8381,5.8968,5.9758,6.0102,6.0072,5.9823,6.0494,6.0757,6.0777,6.08,6.08,6.08,6.08,6.08,6.08,0.0,0.0,0.0,0.0,0.0,0.0,0.0,0.0,0.0,0.0,0.0,0.0,0.0,1.6174,1.5918,1.601,1.6218,1.6089,1.5547,1.518,1.4831,1.4453,1.4473,1.4724,1.5252,1.5637,1.6308,1.7328,1.7873,1.8476,1.9104,1.9542,1.9686,1.9661,2.1524,2.2246,2.2149,2.3129,2.3584,2.3692,2.4019,2.4466,2.4945,2.5116,2.5486,2.5893,2.5893,2.5892,2.5742,2.4893,2.4598,2.4505,2.3989,2.386,2.3951,2.4301,2.4931,2.5964,2.7885,3.0239,3.2575,3.4562,3.732,3.9714,4.029,4.1664,4.2965,4.3559,4.4544,4.5472,4.6048,4.746,4.9002,5.0358,5.0822,5.1472,5.2847,5.3032,5.3218,5.3738,5.3813,5.3813,5.3813,5.3813,5.3813,5.3813,5.3813,5.3813,5.3813,5.3813,5.3813,5.3813,5.3813,5.3813,5.3813,5.4091,5.45,5.5001,5.5435,5.6444,5.7995,5.8119,5.8763,5.9823,6.0131,6.0237,6.0179,6.0616,6.08,6.08,6.08,6.08,6.08,6.08,6.08,6.08,0.0,0.0,0.0,0.0,0.0,0.0,0.0,0.0,1.6846,1.7346,0.0,0.0,0.0,0.0,1.6849,1.7064,1.69,1.6545,1.5932,1.5637,1.52,1.4524,1.4331,1.4477,1.5027,1.5098,1.5786,1.7131,1.738,1.7967,1.886,1.8981,1.8998,1.9073,2.1334,2.22,2.2052,2.328,2.3837,2.3994,2.4504,2.5023,2.5558,2.6247,2.6804,2.7228,2.7228,2.7246,2.7113,2.6224,2.5947,2.5799,2.5005,2.4579,2.4394,2.4394,2.4727,2.5445,2.7106,2.8956,3.0993,3.3519,3.604,3.8172,3.9268,4.081,4.2147,4.2686,4.3689,4.4618,4.5194,4.616,4.7516,4.9392,4.993,5.0599,5.1992,5.2197,5.2512,5.3311,5.3404,5.3497,5.3775,5.3813,5.3813,5.3813,5.3813,5.3813,5.3813,5.3813,5.3813,5.3813,5.3813,5.3813,5.3813,5.3813,5.4073,5.4611,5.4689,5.5676,5.7325,5.7608,5.8462,5.9731,6.0151,6.0293,6.0321,6.0666,6.08,6.08,6.08,6.08,6.08,6.08,6.08,6.08,0.0,0.0,0.0,0.0,0.0,0.0,0.0,0.0,1.8245,1.8262,0.0,0.0,0.0,0.0,0.0,1.9,1.8312,1.7597,1.6968,1.6193,1.5398,1.4561,1.4524,1.4465,1.4306,1.5008,1.5695,1.6378,1.7094,1.7982,1.8978,1.9028,1.9143,1.9378,2.1046,2.1678,2.1606,2.3164,2.3994,2.4319,2.517,2.554,2.578,2.7489,2.816,2.8197,2.8197,2.8214,2.8079,2.7209,2.6891,2.6723,2.5893,2.5079,2.4431,2.4431,2.4321,2.456,0.0,0.0,0.0,3.2952,3.4698,3.6296,3.951,4.0308,4.081,4.2389,4.276,4.3299,4.4934,4.5268,4.6067,4.8407,4.9503,5.0339,5.1193,5.1342,5.1658,5.2475,5.2568,5.2884,5.3701,5.3775,5.3775,5.3813,5.3813,5.3813,5.3813,5.3813,5.3813,5.3813,5.3813,5.3813,5.3813,5.3813,5.3813,5.3794,5.4161,5.491,5.6019,5.6891,5.8101,5.9527,6.0085,6.0321,6.0321,6.0666,6.08,6.08,6.08,6.08,6.08,6.08,6.08,6.08,0.0,0.0,0.0,0.0,0.0,1.8121,1.8879,1.8982,1.9189,0.0,0.0,0.0,1.9866,2.0049,1.9973,1.9469,1.9413,1.886,1.7617,1.7343,1.6674,1.5417,1.5275,1.4976,1.4459,1.4562,1.5026,1.5887,1.6092,1.6953,1.843,1.8382,1.8742,1.9445,2.1066,2.1767,2.1807,2.3417,2.4481,2.509,2.5391,2.6574,2.8239,2.8827,2.9779,3.0779,3.0779,3.0779,3.0646,2.9829,2.9161,2.8437,2.6989,2.5912,2.5208,2.5245,2.4764,2.4448,2.5536,0.0,0.0,0.0,0.0,0.0,3.65,3.8209,3.9751,4.0828,4.198,4.2946,4.341,4.4469,4.5509,4.6197,4.746,4.8649,4.9485,5.0098,5.0785,5.1639,5.1732,5.2048,5.2847,5.294,5.3181,5.3775,5.3813,5.3813,5.3813,5.3813,5.3813,5.3813,5.3813,5.3813,5.3813,5.3813,5.3813,5.3794,5.4161,5.491,5.605,5.7159,5.8329,5.955,6.0325,6.0666,6.0666,6.0757,6.08,6.08,6.08,6.08,6.08,6.08,6.08,6.08,0.0,0.0,1.8298,1.8211,1.8448,1.8792,1.9223,1.955,1.9912,0.0,0.0,0.0,2.0518,2.0749,2.0746,2.0388,2.0489,1.9957,1.8515,1.844,1.776,1.6266,1.5812,1.5397,1.5013,1.4593,1.4825,1.5735,1.5748,1.6588,1.8199,1.8153,1.8581,1.9464,2.1083,2.1801,2.1931,2.3915,2.5,2.5553,2.661,2.7925,2.9373,3.0479,3.1671,3.2785,3.2785,3.3027,3.3213,3.2377,3.1336,3.0111,2.8437,2.7301,2.6466,2.5763,2.517,2.4854,2.5353,2.648,2.7777,2.8944,0.0,0.0,3.468,3.6853,3.8841,3.9677,4.1163,4.2296,4.2296,4.3373,4.4265,4.4265,4.5621,4.6977,4.7794,4.8593,4.941,5.0265,5.0655,5.1175,5.2029,5.2104,5.2438,5.3237,5.3311,5.346,5.3775,5.3813,5.3813,5.3813,5.3813,5.3813,5.3813,5.3813,5.3813,5.3794,5.4161,5.474,5.5557,5.7109,5.8234,5.9069,6.0281,6.08,6.08,6.08,6.08,6.08,6.08,6.08,6.08,6.08,6.08,6.08,0.0,0.0,1.8403,1.8232,1.8792,1.9326,1.9395,2.005,2.0549,0.0,2.0677,2.0778,2.0973,2.1192,2.1384,2.1512,2.155,2.1007,1.9675,1.9488,1.8772,1.7252,1.6421,1.5888,1.5723,1.5,1.4975,1.5668,1.5673,1.6442,1.795,1.8029,1.8495,1.935,2.1044,2.18,2.1968,2.4542,2.5685,2.5999,2.8292,2.9462,3.0061,3.2279,3.3677,3.4476,3.4476,3.4977,3.5497,3.4624,3.338,3.1912,3.0231,2.9135,2.8172,2.6428,2.5853,2.5758,2.5668,2.6279,2.7296,2.8802,3.042,0.0,3.3584,3.5776,3.7708,3.8525,4.0104,4.1311,4.1311,4.2054,4.2667,4.2667,4.3986,4.5342,4.6234,4.7051,4.7831,4.8556,4.9355,5.0172,5.1045,5.1193,5.1584,5.2419,5.2549,5.2958,5.3775,5.3813,5.3813,5.3813,5.3813,5.3813,5.3813,5.3813,5.3813,5.3794,5.4177,5.4495,5.4863,5.6832,5.7914,5.8396,5.9973,6.0704,6.08,6.08,6.08,6.08,6.08,6.08,6.08,6.08,6.08,6.08,1.8298,1.8256,1.8253,1.8211,1.8792,1.9499,2.0084,2.0866,2.1591,2.2151,2.2442,2.2652,2.2856,2.3095,2.3009,2.2417,2.2555,2.23,2.1359,2.0696,1.9939,1.9044,1.8163,1.7112,1.5814,1.5642,1.5309,1.4829,1.4829,1.5339,1.6361,1.6953,1.766,1.8531,2.0784,2.1799,2.2001,2.5131,2.6905,2.7688,2.8817,3.0876,3.3308,3.3783,3.4903,3.6203,3.6203,3.6315,3.6333,3.5516,3.5033,3.4476,3.2823,3.1704,3.0676,2.9042,2.8075,2.7368,2.6722,2.7187,2.7911,2.8246,2.9585,0.0,3.2042,3.364,3.5163,3.6017,3.8005,3.9584,3.9584,4.081,4.1832,4.1832,4.2649,4.3801,4.5324,4.6234,4.6791,4.694,4.7683,4.85,4.9317,4.9968,5.0711,5.1565,5.2234,5.2958,5.3775,5.3813,5.3813,5.3813,5.3813,5.3813,5.3813,5.3813,5.3813,5.3813,5.4397,5.4746,5.4844,5.6422,5.7562,5.8357,5.9338,6.0146,6.08,6.08,6.08,6.08,6.08,6.08,6.08,6.08,6.08,6.08,1.8565,1.8545,1.8669,1.9076,1.9765,2.052,2.1317,2.2112,2.2723,2.3111,2.362,2.4135,2.4605,2.4802,2.4625,2.3969,2.4016,2.3601,2.2461,2.2053,2.1482,2.067,1.9487,1.8467,1.7668,1.6479,1.5658,1.5251,1.4855,1.5292,1.6508,1.688,1.7903,1.9512,2.1145,2.207,2.2642,2.554,2.7502,2.8802,3.0005,3.1974,3.4266,3.468,3.611,3.7894,3.7894,3.8432,3.9008,3.8209,3.7931,3.7578,3.5472,3.4525,3.3727,3.1232,2.9913,2.8966,2.7783,2.7764,2.8098,2.8101,2.907,0.0,0.0,3.2451,3.3844,3.468,3.6482,3.7894,3.7894,3.9222,4.0306,4.0346,4.1356,4.244,4.3336,4.4859,4.59,4.59,4.6605,4.7256,4.7664,4.8426,4.9429,5.0655,5.1899,5.2791,5.3181,5.359,5.3813,5.3813,5.3813,5.3813,5.3813,5.3813,5.3813,5.3813,5.4463,5.4806,5.4844,5.6343,5.7473,5.8338,5.9146,5.9992,6.08,6.08,6.08,6.08,6.08,6.08,6.08,6.08,6.08,6.08,1.8966,1.9021,1.9327,1.9975,2.0838,2.1684,2.2389,2.3124,2.3664,2.3869,2.4617,2.5339,2.6007,2.6108,2.5986,2.5557,2.5502,2.4996,2.3805,2.349,2.3046,2.2347,2.0828,1.9845,1.953,1.7614,1.6441,1.6126,1.547,1.5833,1.7096,1.7269,1.8461,2.0504,2.1472,2.2436,2.3507,2.6004,2.8098,2.9916,3.1529,3.3276,3.5014,3.5869,3.7596,3.9584,3.9584,4.0438,4.1497,4.0847,4.0624,4.0234,3.8025,3.7254,3.6575,3.3555,3.1955,3.0884,2.9442,2.8938,2.8825,2.881,2.924,2.9816,0.0,0.0,0.0,3.3361,3.494,3.6222,3.6222,3.7506,3.8489,3.8405,3.9721,4.0815,4.0855,4.289,4.4395,4.4562,4.5435,4.6011,4.6011,4.7033,4.8296,4.9763,5.1268,5.2271,5.2587,5.3218,5.3645,5.3813,5.3813,5.3813,5.3813,5.3813,5.3832,5.3889,5.4495,5.4836,5.4943,5.617,5.7319,5.8338,5.8992,5.9858,6.08,6.08,6.08,6.08,6.08,6.08,6.08,6.08,6.08,6.08,1.9108,1.9453,1.9975,2.0065,2.1344,2.2389,2.2481,2.3124,2.3945,2.4884,2.5728,2.6322,2.6659,2.6698,2.6682,2.6628,2.6628,2.6556,2.6393,2.5042,2.4227,2.4204,2.2609,2.1053,1.962,1.9323,1.8451,1.6966,1.6873,1.6929,1.7114,1.7838,1.8697,1.9689,2.1229,2.2765,2.4411,2.6894,2.9344,3.1652,3.3268,3.5349,3.7559,3.8377,3.977,4.1311,4.1311,4.1441,4.159,4.1479,4.146,4.1293,4.029,3.9435,3.8469,3.6668,3.5014,3.3584,3.2692,3.1912,3.1374,3.1374,3.0909,3.0504,3.0597,0.0,3.0913,3.1005,0.0,3.4476,3.4476,0.0,0.0,3.594,3.7182,3.8238,3.8238,3.9797,4.1219,4.1943,4.3355,4.4283,4.4283,4.6364,4.8073,4.8964,4.9875,5.1026,5.2512,5.2698,5.307,5.3775,5.3813,5.3813,5.3813,5.3813,5.3963,5.4246,5.4623,5.4971,5.5262,5.5669,5.6742,5.8319,5.8396,5.9338,6.08,6.08,6.08,6.08,6.08,6.08,6.08,6.08,6.08,6.08,2.0809,2.0592,2.0794,2.1748,2.2464,2.307,2.3584,2.4319,2.5476,2.734,2.792,2.8513,2.9518,2.9672,2.9508,2.9045,2.8563,2.81,2.7598,2.6469,2.5634,2.5171,2.4038,2.2903,2.1718,2.0325,1.9249,1.8544,1.7578,1.7337,1.782,1.8655,1.9731,2.1016,2.2667,2.4056,2.5319,2.7806,2.9978,3.1968,3.4086,3.6705,3.9324,3.9157,4.042,4.2352,4.2835,4.2983,4.2983,4.2983,4.2983,4.2853,4.2054,4.1534,4.0921,3.9305,3.7652,3.6166,3.5367,3.4179,3.3083,3.26,3.2228,3.1857,3.1392,3.1303,3.1299,3.1236,0.0,0.0,0.0,0.0,0.0,0.0,3.6332,3.7045,3.7045,3.7664,3.8998,4.133,4.2203,4.2965,4.3912,4.5398,4.6828,4.811,4.8946,4.9912,5.1101,5.2067,5.2754,5.3088,5.3571,5.3813,5.3813,5.4,5.4142,5.4315,5.4836,5.5164,5.5314,5.5573,5.6646,5.83,5.83,5.9242,6.08,6.08,6.08,6.08,6.08,6.08,6.08,6.08,6.08,6.08,2.2643,2.2015,2.1829,2.2998,2.3388,2.3851,2.4704,2.5894,2.7343,2.9103,2.9941,3.0816,3.1918,3.2094,3.1875,3.1299,3.0522,2.9795,2.9177,2.8344,2.7547,2.6672,2.569,2.4667,2.3591,2.1606,2.0474,2.0251,1.9045,1.8748,1.9323,1.9954,2.0994,2.2386,2.3851,2.5187,2.6526,2.9016,3.1136,3.3027,3.5497,3.8321,4.1014,4.0606,4.1553,4.3206,4.3782,4.4005,4.4005,4.4005,4.4005,4.3893,4.3318,4.2983,4.2575,4.1386,3.9881,3.8451,3.7856,3.6482,3.507,3.4494,3.4011,3.3454,3.2637,3.2284,3.2061,3.177,3.2201,0.0,0.0,0.0,3.4321,3.408,0.0,3.5161,3.5169,3.5354,3.673,4.014,4.0948,4.1765,4.3175,4.4302,4.5435,4.6605,4.7868,4.8927,4.9745,5.1156,5.2141,5.2587,5.3181,5.359,5.3813,5.4106,5.4349,5.443,5.5009,5.5339,5.5413,5.5618,5.6646,5.83,5.83,5.9242,6.08,6.08,6.08,6.08,6.08,6.08,6.08,6.08,6.08,6.08,2.4258,2.3721,2.3147,2.3184,2.3906,2.4723,2.554,2.7734,2.9314,2.9407,3.1429,3.2897,3.2953,3.2953,3.2934,3.2915,3.2172,3.1708,3.1671,3.0931,3.0132,2.9314,2.7715,2.608,2.45,2.3572,2.2701,2.1922,2.1866,2.1866,2.1885,2.1903,2.2367,2.3203,2.4092,2.5819,2.8179,3.0668,3.312,3.5572,3.8005,4.0494,4.2797,4.3559,4.3893,4.3968,4.3986,4.4005,0.0,4.4005,4.4005,0.0,0.0,4.3429,4.2797,4.2742,4.1571,4.0308,4.029,3.9045,3.7782,3.7745,3.6556,3.5182,3.4309,3.351,3.273,3.1881,3.1755,3.1797,3.1676,3.1737,3.1538,3.0697,3.1228,0.0,0.0,3.2434,3.4134,3.7433,3.9246,4.06,4.1489,4.3052,4.4061,4.4116,4.6364,4.8091,4.8909,4.9782,5.0989,5.2549,5.2624,5.3014,5.3794,5.4106,5.4463,5.4776,5.5138,5.5437,5.5703,5.5703,5.6646,5.83,5.83,5.9242,6.08,6.08,6.08,6.08,6.08,6.08,6.08,6.08,6.08,6.08,2.4444,2.4258,2.4055,2.4055,2.4314,2.5132,2.7009,2.8496,3.0169,3.2284,3.3287,3.4216,3.533,3.5442,3.5442,3.5442,3.4699,3.4234,3.4234,3.3436,3.2377,3.1061,2.9946,2.8329,2.6135,2.476,2.3646,2.2794,2.2256,2.1996,2.2015,2.2534,2.2943,2.3277,2.5225,2.6842,2.829,3.1318,3.403,3.6593,4.0123,4.237,4.3689,4.4544,4.4859,4.4934,4.5454,4.5658,0.0,4.5658,4.5658,4.5565,4.5026,4.4674,4.4339,4.3763,4.2835,4.198,0.0,0.0,4.0215,3.9677,3.8711,3.7671,3.6835,3.6017,3.5052,3.3642,3.3839,3.3876,3.2667,3.2908,3.3025,3.2186,3.2225,3.2133,0.0,3.2201,3.328,3.4917,3.7626,3.9468,3.9804,4.1371,4.2811,4.3931,4.4785,4.6085,4.7999,4.889,4.9837,5.0915,5.2029,5.2735,5.2995,5.3845,5.4463,5.4806,5.5138,5.5437,5.5703,5.5703,5.6646,5.83,5.83,5.9242,6.08,6.08,6.08,6.08,6.08,6.08,6.08,6.08,6.08,6.08,2.45,2.45,2.45,2.45,2.4964,2.608,2.8236,2.9779,3.1522,3.3881,3.4959,3.6036,3.7392,3.7541,3.7671,3.7986,3.7243,3.6779,3.6779,3.598,3.4922,3.3584,3.2191,3.0556,2.8682,2.6488,2.5077,2.4519,2.3423,2.2885,2.2903,2.3423,2.3665,2.3758,2.5931,2.7697,2.9163,3.2154,3.5014,3.7856,4.1386,4.3466,4.4544,4.5398,4.5732,4.5788,0.0,4.6494,4.6494,4.6494,4.6494,4.6401,4.5881,4.5732,4.5621,4.5045,4.4321,4.3689,4.3689,4.2872,0.0,4.1367,4.0606,3.977,3.8971,3.8154,3.7143,3.5773,3.5491,3.5138,3.3988,3.3728,3.3531,3.2963,3.2558,3.1998,0.0,3.1703,3.2375,3.2871,3.5708,3.7867,3.8497,3.9804,4.1345,4.302,4.367,4.4822,4.6735,4.7887,4.8834,4.9652,5.1305,5.2308,5.2605,5.3834,5.4591,5.4806,5.5243,5.5531,5.5703,5.5703,5.6646,5.83,5.83,5.9242,6.08,6.08,6.08,6.08,6.08,6.08,6.08,6.08,6.08,6.08,2.4518,2.4537,2.4592,2.4723,2.6005,2.7604,2.9258,3.1522,3.338,3.4309,3.65,3.8284,3.912,3.9212,3.9547,4.0383,3.9723,3.924,3.9212,3.8515,3.7716,3.6853,3.4561,3.285,3.1898,2.8719,2.7046,2.6972,2.5355,2.4555,2.4555,2.4518,2.4518,2.463,2.6247,2.8347,3.0838,3.3268,3.624,3.9491,4.1943,4.3893,4.5454,4.6252,4.6605,4.668,4.668,4.668,4.668,4.6717,4.6735,4.6717,4.6643,4.6624,4.6605,4.6513,4.5955,4.5361,4.5361,4.4172,4.2927,4.2927,4.2296,0.0,4.068,3.9844,3.8962,3.8109,3.6734,3.5639,3.5454,3.4198,3.311,3.2952,3.2207,3.1328,3.0399,3.087,3.1366,3.1439,3.3644,3.5826,3.7488,3.8498,3.9733,4.1404,4.2983,4.4283,4.5194,4.6754,4.8017,4.8816,5.0469,5.1714,5.2568,5.3992,5.4739,5.4836,5.5418,5.5703,5.5703,5.5703,5.6646,5.83,5.83,5.9242,6.08,6.08,6.08,6.08,6.08,6.08,6.08,6.08,6.08,6.08,2.4611,2.4983,2.5968,2.7827,2.8477,2.9314,3.095,3.273,3.4829,3.7503,3.8395,3.9342,4.0791,4.0958,4.1051,4.1256,4.1259,4.1156,4.0969,4.1135,4.0416,3.8571,3.7685,3.5813,3.2771,3.084,2.9176,2.7789,2.6191,2.5392,2.5373,2.4778,2.4816,2.5466,2.7083,2.9163,3.1671,3.4754,3.8302,4.1999,4.3893,4.5268,4.6271,0.0,4.8129,4.9187,4.9187,4.9187,4.928,4.9912,5.0135,4.9912,4.8686,4.8277,4.8054,4.6847,4.6345,4.6197,4.6197,4.5435,4.4655,4.4655,4.3559,4.2445,0.0,0.0,4.0736,3.989,3.8915,3.7986,3.7365,3.6393,3.5502,3.489,3.3568,3.2231,3.1299,3.0814,3.0993,3.2155,3.2963,3.4338,3.6611,3.7609,3.886,4.0587,4.1627,4.2835,4.4265,4.59,4.7181,4.798,4.9596,5.0964,5.2061,5.3067,5.408,5.5164,5.5339,5.5527,5.5703,5.5703,5.6646,5.83,5.83,5.9242,6.08,6.08,6.08,6.08,6.08,6.08,6.08,6.08,6.08,6.08,2.5708,2.6507,2.7994,3.0095,3.1129,3.1979,3.2895,3.4609,3.6645,3.8973,3.9816,4.0719,4.2146,4.2305,4.2455,4.2781,4.3058,4.3111,4.2828,4.2901,4.2375,4.1135,3.9876,3.8218,3.6047,3.3807,3.1902,3.0429,2.8409,2.7195,2.673,2.5931,2.5987,2.6823,2.8106,3.0222,3.3101,3.7132,4.0364,4.2946,4.4618,4.5769,0.0,4.7776,4.902,5.0209,5.0933,5.0971,5.0748,5.1231,5.1398,5.1249,5.0283,4.9986,4.9819,4.8909,4.811,4.7553,4.7553,4.6717,4.5807,4.5807,4.5119,4.4321,4.3968,4.3243,4.2407,0.0,4.0773,4.0048,3.9602,3.8516,3.732,3.6177,3.511,3.3991,3.2778,3.2139,3.2022,3.254,3.2698,3.3732,3.6224,3.7294,3.8396,3.9676,4.0529,4.1698,4.3361,4.4994,4.6275,4.7144,4.9113,5.0701,5.1907,5.2843,5.3992,5.5314,5.5413,5.5531,5.5703,5.5703,5.6646,5.83,5.83,5.9242,6.08,6.08,6.08,6.08,6.08,6.08,6.08,6.08,6.08,6.08,2.7697,2.8812,3.0429,3.2135,3.3911,3.5174,3.5423,3.698,3.8607,3.9865,4.1089,4.2287,4.3442,4.3581,4.3901,4.471,4.5023,4.5035,4.4654,4.4259,4.3908,4.3611,4.1592,4.034,4.0068,3.7015,3.4927,3.3876,3.1299,2.9533,2.855,2.766,2.766,2.8457,2.9444,3.1827,3.5367,3.9854,4.2307,4.3304,4.4854,4.5992,4.6977,4.8481,4.9633,5.0618,5.2085,5.2159,5.1565,5.1676,5.1714,5.1695,5.1584,5.1565,5.1546,5.1435,5.0376,4.9224,4.9224,4.8054,4.681,4.681,4.6661,4.6308,4.5621,4.4859,4.4098,4.328,4.2482,4.1869,4.1776,4.0383,3.8758,3.7163,3.674,3.6086,3.4555,3.4144,3.3805,3.3191,0.0,0.0,0.0,3.7202,3.8081,3.8923,3.9737,4.0896,4.2465,4.417,4.5537,4.6475,4.8832,5.0676,5.1888,5.2975,5.4096,5.5314,5.5573,5.5703,5.5703,5.5703,5.6646,5.83,5.83,5.9242,6.08,6.08,6.08,6.08,6.08,6.08,6.08,6.08,6.08,6.08,3.0965,3.1708,3.3101,3.5442,3.6844,3.8173,3.9712,3.9731,4.0333,4.2593,4.3094,4.385,4.5414,4.5584,4.5906,4.6727,4.7044,4.6801,4.5874,4.6137,4.5512,4.3668,4.356,4.2699,4.0943,3.9185,3.7681,3.6453,3.3294,3.1558,3.1114,2.9649,2.9388,3.0243,3.1708,3.5091,3.9777,4.1744,4.3543,4.5169,4.5959,4.7163,4.8574,4.954,5.0841,5.2197,5.2494,5.2512,5.2494,5.3162,5.3385,5.3255,5.2605,5.2401,5.2271,5.1584,5.1193,5.0952,5.0952,4.9745,4.8481,4.8481,4.7478,4.6457,4.6308,4.616,4.5825,4.5026,4.4172,4.3373,4.2705,0.0,3.9844,3.8841,3.8108,3.7275,3.6276,3.5555,3.5306,3.5771,0.0,3.6011,0.0,0.0,0.0,3.8828,3.9679,4.0596,4.1656,4.3892,4.5537,4.6475,4.8501,5.0271,0.0,0.0,5.3735,5.5314,5.5573,5.5703,5.5703,5.5703,5.6646,5.83,5.83,5.9242,6.08,6.08,6.08,6.08,6.08,6.08,6.08,6.08,6.08,6.08,3.416,3.4643,3.5758,3.8371,3.9349,4.0394,4.2305,4.2755,4.3061,4.3678,4.4421,4.5252,4.621,4.6686,4.7086,4.7467,4.775,4.7637,4.6976,4.7297,4.6877,4.5395,4.5092,4.4285,4.2795,4.1682,4.0272,3.8553,3.6551,3.4929,3.3677,3.2451,3.2321,3.3255,3.5408,3.8021,4.0923,4.2819,4.4373,4.5744,4.7164,4.8203,4.9076,5.0766,5.1899,5.2661,5.307,5.3218,5.3292,5.3683,5.3813,5.3738,5.3348,5.3218,5.3144,5.2754,5.2345,5.2029,5.2029,5.1138,5.019,5.019,4.9615,4.8816,4.7943,4.7738,4.7404,4.616,4.5584,4.4915,4.3652,4.2445,0.0,0.0,4.0038,3.9342,3.8035,3.7479,3.7045,3.6555,0.0,0.0,0.0,0.0,0.0,0.0,0.0,4.0067,4.1433,4.3378,4.5138,4.6657,4.8459,5.035,5.2295,0.0,5.3723,5.5527,5.564,5.5703,5.5703,5.5703,5.6646,5.83,5.83,5.9242,6.08,6.08,6.08,6.08,6.08,6.08,6.08,6.08,6.08,6.08,3.731,3.7702,3.857,4.0967,4.1722,4.2552,4.4265,4.5438,4.5743,4.4671,4.5687,4.6675,4.7061,4.7848,4.8422,4.8575,4.8778,4.874,4.8345,4.8356,4.8009,4.7201,4.6336,4.5547,4.4874,4.3874,4.2524,4.0758,3.9709,3.7885,3.5299,3.5244,3.5752,3.6739,3.9021,4.0653,4.1868,0.0,4.5367,4.6487,4.834,4.928,4.9738,5.1966,5.2827,5.294,5.3628,5.387,5.3813,5.3813,5.3813,5.3813,5.3813,5.3813,5.3813,5.3813,5.3348,5.2865,5.2865,5.2271,5.1694,5.1748,5.1582,5.1081,4.9896,4.9496,4.8999,4.7429,4.6801,4.6104,4.4766,4.3726,0.0,0.0,4.1772,4.1056,3.974,3.9497,3.9005,3.7711,0.0,0.0,3.8354,0.0,0.0,0.0,0.0,3.9815,4.1385,4.3008,4.4792,4.6754,4.8394,5.0326,5.2596,0.0,5.3794,5.5618,5.5662,5.5703,5.5703,5.5703,5.6646,5.83,5.83,5.9242,6.08,6.08,6.08,6.08,6.08,6.08,6.08,6.08,6.08,6.08,4.0333,4.0985,4.1889,4.3123,4.4154,4.5145,4.612,4.7184,4.7586,4.6723,4.7376,4.8203,4.9048,4.9894,5.0721,5.1431,5.1528,5.1221,5.0471,4.9702,4.8894,4.8029,4.7221,4.674,4.6663,4.5028,4.3998,4.3615,4.1787,3.8745,3.4739,3.7392,3.9227,4.0353,4.133,0.0,0.0,4.5618,4.701,4.8757,4.944,5.0447,5.1673,5.2987,5.3579,5.3739,5.4123,5.4054,5.3813,5.3813,5.3813,5.3813,5.3813,5.3813,5.3813,5.3813,5.3757,5.3701,5.3701,5.3107,5.2549,5.2847,5.2151,5.1484,5.1903,5.1546,5.078,4.9427,4.774,4.6438,4.629,4.4952,4.3856,0.0,0.0,4.1553,4.1386,4.1367,4.1282,4.1144,4.037,0.0,0.0,3.9637,0.0,0.0,3.9884,4.0327,4.136,4.2976,4.4703,4.6504,4.7928,4.9722,5.1964,5.2766,5.3881,5.5339,5.5596,5.5703,5.5703,5.5703,5.6646,5.83,5.83,5.9242,6.08,6.08,6.08,6.08,6.08,6.08,6.08,6.08,6.08,6.08,4.2408,4.3208,4.4155,4.5216,4.6181,4.6991,4.7491,4.8759,4.9547,4.922,4.9452,4.9779,5.0144,5.1395,5.2337,5.2664,5.2683,5.2549,5.2222,5.1875,5.1087,4.9721,4.9356,4.8682,4.7644,4.6471,4.5476,4.4726,4.3289,4.1373,3.9062,4.027,4.118,4.1827,0.0,4.4405,4.5319,4.7099,4.8567,4.982,5.0867,5.1945,5.2999,5.3932,5.4371,5.443,5.456,5.4528,5.4397,5.4397,5.4281,5.4089,5.4089,5.4246,5.4397,5.4397,5.4397,5.4397,5.4397,5.4171,5.3941,5.4101,5.376,5.3384,5.3148,5.2885,5.241,5.1355,4.957,4.8202,4.7977,4.6605,4.5491,4.5491,0.0,4.3633,4.3113,4.2612,4.2129,4.1664,4.1263,4.1178,0.0,0.0,0.0,0.0,4.0296,4.0437,4.1391,4.3489,4.5281,4.6719,4.8419,5.0331,5.2417,5.297,5.3988,5.5531,5.564,5.5703,5.5703,5.5703,5.6646,5.8357,5.9358,6.0185,6.08,6.08,6.08,6.08,6.08,6.08,6.08,6.08,6.08,6.08,4.4794,4.5426,4.6122,4.6954,4.803,4.8817,4.9001,5.0428,5.149,5.1472,5.1684,5.1722,5.1452,5.2722,5.3587,5.3587,5.3587,5.3587,5.3587,5.3337,5.2664,5.1491,5.0952,5.0106,4.8894,4.7817,4.6858,4.6051,4.5227,4.3809,4.1865,4.1793,4.255,0.0,4.533,4.6105,4.6568,4.8635,4.9953,5.0833,5.2348,5.3267,5.3812,5.4713,5.4933,5.4806,5.4895,5.4866,5.4806,5.4806,5.4716,5.4591,5.4463,5.4623,5.4806,5.4806,5.4806,5.4806,5.4806,5.4806,5.4806,5.4924,5.4866,5.4684,5.4294,5.4078,5.3707,5.2864,5.1326,5.0078,4.9855,4.8364,4.7218,4.7218,0.0,4.5435,4.4822,4.4246,4.367,4.3113,4.2612,4.2377,4.2594,4.1934,0.0,4.1963,4.1451,4.1427,4.2143,4.4172,4.5898,4.7218,4.8764,5.0609,5.2772,5.3078,5.4049,5.5703,5.5703,5.5703,5.5722,5.6222,5.7146,5.8396,6.0069,6.08,6.08,6.08,6.08,6.08,6.08,6.08,6.08,6.08,6.08,6.08,4.7795,4.7855,4.7953,4.8212,4.9654,5.0773,5.0754,5.2239,5.334,5.3282,5.3957,5.4129,5.326,5.3953,5.4472,5.4472,5.4472,5.4472,5.4472,5.3683,5.3203,5.3164,5.1568,5.0683,5.0664,4.8971,4.8086,4.8067,4.7792,0.0,4.1605,4.1321,4.349,4.7627,4.7646,4.8292,4.9413,5.0298,5.1144,5.2028,5.378,5.4281,5.4129,5.527,5.5301,5.4836,5.5164,5.5083,5.4806,5.4806,5.5028,5.5236,5.4895,5.4806,5.4806,5.4806,5.4806,5.4806,5.4806,5.4806,5.4866,5.5191,5.5037,5.4933,5.5535,5.5205,5.456,5.3745,5.2673,5.1888,5.1837,5.0225,4.8872,4.8872,0.0,4.6475,4.6475,4.6457,4.6438,4.6438,4.4971,4.4302,4.5157,4.2996,0.0,4.3762,4.3795,4.3763,4.3781,4.4995,4.6411,4.8025,4.8682,0.0,5.2772,5.3078,5.4049,5.5703,5.5703,5.5703,5.5761,5.7473,5.828,5.8396,6.0069,6.08,6.08,6.08,6.08,6.08,6.08,6.08,6.08,6.08,6.08,6.08,4.8979,4.9575,5.0171,5.0839,5.1899,5.2652,5.2652,5.3584,5.4263,5.4263,5.4921,5.5286,5.4996,5.5166,5.5318,5.5318,5.5318,5.5318,5.5318,5.5049,5.4664,5.4107,5.3568,5.301,5.2414,5.1279,5.0433,4.9875,0.0,0.0,0.0,4.5657,4.6487,4.8029,4.92,4.9951,5.0375,5.1798,5.2895,5.3722,5.428,5.4756,5.5189,5.5566,5.5577,5.5418,5.5531,5.5508,5.5418,5.5418,5.5485,5.5554,5.5442,5.5418,5.5418,5.5418,5.5418,5.5418,5.5418,5.5418,5.5442,5.5551,5.5485,5.5466,5.5662,5.5554,5.5293,5.4848,5.3998,5.3196,5.2779,5.1753,5.0875,5.0635,4.9224,4.8147,4.8147,4.7181,4.6494,4.6494,4.603,4.5807,4.6085,4.5366,0.0,4.549,4.5597,4.5356,4.473,4.634,4.7526,4.8082,4.9784,0.0,5.2791,5.3654,5.4626,5.5703,5.5703,5.5703,5.5742,5.6896,5.7742,5.8357,5.9435,6.0242,6.08,6.08,6.08,6.08,6.08,6.08,6.08,6.08,6.08,6.08,5.1022,5.1525,5.2047,5.2589,5.3401,5.3981,5.3981,5.4663,5.5186,5.5188,5.5596,5.5885,5.5846,5.5766,0.0,5.5703,5.5703,5.5703,5.5703,5.5703,5.5472,5.4972,5.4664,5.4241,5.3703,5.2837,0.0,5.1645,5.0926,5.0306,4.9789,4.9789,4.9852,5.0067,5.1144,5.1645,5.1722,5.3106,5.3991,5.453,5.4818,5.5241,5.5703,5.5703,5.5703,5.5703,5.5703,5.5703,5.5703,5.5703,5.5703,5.5703,5.5703,5.5703,5.5703,5.5703,5.5703,5.5703,5.5703,5.5703,5.5703,5.5703,5.5703,5.5703,5.5703,5.5703,5.564,5.5485,5.4948,5.4371,5.4,5.3157,5.2422,5.2092,5.0903,4.9974,4.9873,4.8964,4.8221,4.7887,4.759,0.0,0.0,4.668,4.6572,0.0,4.6888,4.6991,4.7178,4.7845,4.8588,4.9334,5.086,5.2219,5.343,5.4139,5.4895,5.5703,5.5703,5.5703,5.5722,5.6588,5.7473,5.8338,5.9146,5.9992,6.08,6.08,6.08,6.0762,6.0435,6.03,6.0281,5.9973,5.9858,5.9858,5.3575,5.3594,5.3614,5.3652,5.4349,5.4871,5.4871,5.5528,5.5995,5.5999,5.5999,5.5981,5.5905,5.5846,5.5766,5.5724,0.0,0.0,5.5703,5.5703,5.5703,5.5703,5.4972,5.4587,5.4587,5.3799,5.3356,5.3299,5.3241,5.3203,5.3203,5.3203,5.3203,5.3203,5.326,5.3299,5.3356,5.4222,5.4587,5.4645,5.5395,5.5703,5.5703,5.5761,5.578,5.5799,5.5857,5.5876,5.5876,5.5799,5.578,5.578,5.5722,5.5703,5.5703,5.5703,5.5703,5.5703,5.5703,5.5703,5.5703,5.5703,5.5703,5.5703,5.5703,5.5703,5.5703,5.5703,5.5485,5.5314,5.5314,5.4428,5.361,5.3268,5.2526,5.1869,5.158,5.1435,5.1101,5.0319,0.0,0.0,0.0,4.7355,4.7225,0.0,4.801,4.8842,5.0654,4.9589,4.9721,5.1525,5.1905,5.2856,5.4472,5.4549,5.4953,5.5703,5.5703,5.5703,5.5722,5.653,5.7376,5.8261,5.8992,5.9819,6.0627,6.0627,6.0627,6.055,5.9723,5.9415,5.9338,5.8588,5.83,5.83,0.0,5.4484,5.4697,5.5296,5.5586,5.5722,5.5722,5.5877,5.6012,5.5995,5.5998,5.5999,5.5981,5.5866,5.5787,5.5766,5.5724,5.5703,5.5703,5.5703,5.5703,5.5703,5.5511,5.5415,5.5415,5.5203,5.4799,5.4184,5.353,5.3203,5.3203,5.3203,5.3203,5.3241,5.3895,5.4184,5.4241,5.5068,5.5415,5.5434,5.5607,5.5703,5.5761,5.6434,5.6684,5.678,5.7453,5.7684,5.7588,5.6915,5.6684,5.6569,5.5915,5.5703,5.5703,5.5703,5.5703,5.5703,5.5703,5.5703,5.5703,5.5703,5.5703,5.5703,5.5703,5.5703,5.5703,5.5703,5.564,5.5531,5.5339,5.5065,5.4779,5.4443,5.3534,5.278,5.2713,5.1931,5.1413,5.148,5.1307,5.1198,5.1212,5.1053,5.1015,0.0,0.0,5.1509,5.2246,5.198,5.2035,5.2485,5.3404,5.4087,5.4491,5.5107,5.5511,5.5703,5.5703,5.5703,5.5703,5.5915,5.6472,5.7319,5.7511,5.8088,5.8896,5.8896,5.8896,5.8877,5.8665,5.8588,5.8569,5.8377,5.83,5.83,5.5258,5.5354,5.549,5.5915,5.6012,5.6012,5.6012,5.6341,5.6592,5.6592,5.6942,5.7195,5.7195,5.7101,5.7023,5.7023,5.6209,5.5703,5.5703,5.5703,5.5703,5.5703,5.5703,5.5703,5.5703,5.5703,5.5491,5.5049,5.4568,5.4337,5.4337,5.4337,5.4337,5.4357,5.4838,5.5049,5.5068,5.5511,5.5703,5.5722,5.6126,5.628,5.6376,5.7261,5.7588,5.7665,5.8127,5.83,5.8223,5.7742,5.7588,5.7434,5.6569,5.628,5.6222,5.5818,5.5703,5.5703,5.5703,5.5703,5.5703,5.5703,5.5703,5.5703,5.5703,5.5703,5.5703,5.5703,5.5703,5.566,5.5508,5.5485,5.5369,5.5083,5.4515,5.4035,5.3899,5.3362,5.2883,5.2699,5.2673,5.2564,5.2333,5.2295,5.2295,5.2295,5.2295,0.0,5.3326,5.3345,5.3413,5.3568,5.4177,5.4684,5.503,5.5472,5.5703,5.5703,5.5703,5.5703,5.5703,5.5703,5.6165,5.6992,5.6992,5.7492,5.83,5.83,5.83,5.8261,5.7857,5.7703,5.7665,5.7261,5.7107,5.7107,5.6399,5.6399,5.6399,5.6399,5.6399,5.6399,5.6399,5.7018,5.7501,5.7501,5.8139,5.8604,5.8604,5.8548,5.8491,5.8491,5.7021,5.609,5.609,5.5953,5.5895,5.5895,5.5761,5.5703,5.5703,5.5703,5.5703,5.5703,5.5703,5.5703,5.5703,5.5703,5.5703,5.5703,5.5703,5.5761,5.5895,5.5895,5.5972,5.6165,5.6896,5.7203,5.728,5.8146,5.8492,5.8511,5.8627,5.8684,5.8665,5.8531,5.8492,5.8338,5.7473,5.7107,5.6838,5.6107,5.5799,5.5703,5.5703,5.5703,5.5703,5.5703,5.5703,5.5703,5.5703,5.5703,5.5703,5.5703,5.5703,5.5703,5.5703,5.5703,5.5618,5.5339,5.5288,5.5164,5.4836,5.4806,5.459,5.3946,5.387,5.3594,5.2889,5.2813,5.2813,5.2813,5.2813,5.3244,5.4197,5.4259,5.4392,5.4664,5.4684,5.5011,5.5684,5.5703,5.5703,5.5703,5.5703,5.5703,5.5703,5.5703,5.6088,5.6799,5.6799,5.7223,5.7915,5.7915,5.7915,5.7838,5.7088,5.6799,5.6703,5.5972,5.5703,5.5703,5.8197,5.8197,5.8197,5.8197,5.8197,5.8197,5.8197,5.8314,5.8391,5.8391,5.8507,5.8604,5.8604,5.8548,5.8491,5.8491,5.8122,5.7906,5.7906,5.7208,5.6799,5.6799,5.6088,5.5703,5.5703,5.5703,5.5703,5.5703,5.5703,5.5703,5.5703,5.5703,5.5703,5.5703,5.5703,5.6107,5.6799,5.6799,5.7223,5.7915,5.805,5.8107,5.8184,5.8992,5.9319,5.9415,6.0146,6.0416,6.03,5.9569,5.9319,5.9165,5.8357,5.7588,5.6953,5.6838,5.628,5.5703,5.5703,5.5703,5.5703,5.5703,5.5703,5.5703,5.5703,5.5703,5.5703,5.5703,5.5703,5.5703,5.5703,5.5703,5.5618,5.5339,5.5288,5.5164,5.4836,5.4806,5.4857,5.5019,5.5045,5.509,5.517,5.5174,5.5174,5.5174,5.5174,5.525,5.5429,5.5448,5.547,5.5511,5.5511,5.5568,5.5703,5.5703,5.5703,5.5703,5.5703,5.5703,5.5703,5.5703,5.5761,5.5895,5.5895,5.5972,5.6107,5.6107,5.6107,5.6088,5.5953,5.5895,5.5876,5.5742,5.5703,5.5703,5.8604,5.8604,5.8604,5.8604,5.8604,5.8604,5.8604,5.899,5.93,5.93,5.9687,5.9957,5.9957,5.992,5.9901,5.9901,5.9804,5.9764,5.9764,5.8462,5.7703,5.7703,5.73,5.7107,5.7107,5.7107,5.7107,5.7107,5.7107,5.7107,5.7107,5.7107,5.7107,5.7107,5.7107,5.7319,5.7703,5.7703,5.7934,5.8338,5.8781,5.8954,5.905,5.9877,6.0204,6.0242,6.0666,6.08,6.0742,6.0339,6.0204,6.005,5.9204,5.8665,5.8261,5.7819,5.6742,5.5703,5.5703,5.5703,5.5703,5.5703,5.5703,5.5703,5.5703,5.5703,5.5703,5.5703,5.5703,5.5703,5.5703,5.5703,5.5662,5.5551,5.5527,5.5461,5.532,5.5275,5.5345,5.5485,5.5527,5.5573,5.5703,5.5703,5.5703,5.5703,5.5703,5.5703,5.5703,5.5703,5.5703,5.5703,5.5703,5.5703,5.5703,5.5703,5.5703,5.5703,5.5703,5.5703,5.5703,5.5703,5.5703,5.5703,5.5703,5.5703,5.5703,5.5703,5.5703,5.5703,5.5703,5.5703,5.5703,5.5703,5.5703,5.5703,5.9184,5.9184,5.9184,5.9184,5.9184,5.9184,5.9184,5.9745,6.017,6.017,6.0712,6.1099,6.1099,6.1099,6.1099,6.1099,6.1041,6.1002,6.1002,5.968,5.8822,5.8611,5.8415,5.83,5.83,5.83,5.83,5.83,5.83,5.83,5.83,5.83,5.83,5.83,5.83,5.8396,5.8588,5.8588,5.8704,5.8934,5.955,5.98,5.9877,6.055,6.08,6.08,6.08,6.08,6.08,6.08,6.08,6.0685,6.0012,5.9665,5.9377,5.8761,5.7357,5.5953,5.5761,5.5703,5.5703,5.5703,5.5703,5.5703,5.5703,5.5703,5.5703,5.5703,5.5703,5.5703,5.5703,5.5703,5.5682,5.5618,5.5662,5.5682,5.5618,5.5662,5.5703,5.5703,5.5703,5.5703,5.5703,5.5703,5.5703,5.5703,5.5703,5.5703,5.5703,5.5703,5.5703,5.5703,5.5703,5.5703,5.5703,5.5703,5.5703,5.5703,5.5703,5.5703,5.5703,5.5703,5.5703,5.5703,5.5703,5.5703,5.5703,5.5703,5.5703,5.5703,5.5703,5.5703,5.5703,5.5703,5.5703,5.5703,6.0925,6.0925,6.0925,6.0925,6.0925,6.0925,6.0925,6.0963,6.1002,6.1002,6.106,6.1099,6.1099,6.1099,6.1099,6.1099,6.1041,6.1002,6.1002,6.0822,6.0352,5.9543,5.8726,5.83,5.83,5.83,5.83,5.83,5.83,5.83,5.83,5.83,5.83,5.83,5.83,5.8704,5.9415,5.9415,5.9877,6.0608,6.0685,6.0704,6.0704,6.0781,6.08,6.08,6.08,6.08,6.08,6.08,6.08,6.0781,6.0723,6.0146,5.9492,5.9435,5.8223,5.6722,5.5915,5.5703,5.5703,5.5703,5.5703,5.5703,5.5703,5.5703,5.5703,5.5703,5.5703,5.5703,5.5703,5.5703,5.5618,5.5364,5.5551,5.5618,5.5364,5.5531,5.5703,5.5703,5.5703,5.5703,5.5703,5.5703,5.5703,5.5703,5.5703,5.5703,5.5703,5.5703,5.5703,5.5703,5.5703,5.5703,5.5703,5.5703,5.5703,5.5703,5.5703,5.5703,5.5703,5.5703,5.5703,5.5703,5.5703,5.5703,5.5703,5.5703,5.5703,5.5703,5.5703,5.5703,5.5703,5.5703,5.5703,5.5703,6.1099,6.1099,6.1099,6.1099,6.1099,6.1099,6.1099,6.1099,6.1099,6.1099,6.1099,6.1099,6.1099,6.1099,6.1099,6.1099,6.108,6.1041,6.1041,6.0999,6.0779,6.0365,6.0035,5.9858,5.9858,5.9858,5.9858,5.9858,5.9858,5.9858,5.9858,5.9858,5.9858,5.9858,5.9858,6.0012,6.03,6.03,6.0492,6.08,6.08,6.08,6.08,6.08,6.08,6.08,6.08,6.08,6.08,6.08,6.08,6.08,6.08,6.0569,6.0204,5.9665,5.905,5.8377,5.755,5.6511,5.5703,5.5703,5.5703,5.5703,5.5703,5.5703,5.5703,5.5703,5.5703,5.5703,5.5703,5.5703,5.5682,5.5554,5.564,5.5662,5.5573,5.564,5.5703,5.5703,5.5703,5.5703,5.5703,5.5703,5.5703,5.5703,5.5703,5.5703,5.5703,5.5703,5.5703,5.5703,5.5703,5.5703,5.5703,5.5703,5.5703,5.5703,5.5703,5.5703,5.5703,5.5703,5.5703,5.5703,5.5703,5.5703,5.5703,5.5703,5.5703,5.5703,5.5703,5.5703,5.5703,5.5703,5.5703,5.5703,6.1099,6.1099,6.1099,6.1099,6.1099,6.1099,6.1099,6.1099,6.1099,6.1099,6.1099,6.1099,6.1099,6.1099,6.1099,6.1099,6.1099,6.1099,6.1099,6.104,6.0933,6.08,6.08,6.08,6.08,6.08,6.08,6.08,6.08,6.08,6.08,6.08,6.08,6.08,6.08,6.08,6.08,6.08,6.08,6.08,6.08,6.08,6.08,6.08,6.08,6.08,6.08,6.08,6.08,6.08,6.08,6.08,6.08,6.08,6.0685,6.0089,5.9704,5.9377,5.8838,5.7627,5.6453,5.6184,5.5895,5.5703,5.5703,5.5703,5.5703,5.5703,5.5703,5.5703,5.5703,5.5703,5.5703,5.5703,5.5703,5.5703,5.5703,5.5703,5.5703,5.5703,5.5703,5.5703,5.5703,5.5703,5.5703,5.5703,5.5703,5.5703,5.5703,5.5703,5.5703,5.5703,5.5703,5.5703,5.5703,5.5703,5.5703,5.5703,5.5703,5.5703,5.5703,5.5703,5.5703,5.5703,5.5703,5.5703,5.5703,5.5703,5.5703,5.5703,5.5703,5.5703,5.5703,5.5703,5.5703,5.5703,6.1099,6.1099,6.1099,6.1099,6.1099,6.1099,6.1099,6.1099,6.1099,6.1099,6.1099,6.1099,6.1099,6.1099,6.1099,6.1099,6.1099,6.1099,6.1099,6.104,6.0933,6.08,6.08,6.08,6.08,6.08,6.08,6.08,6.08,6.08,6.08,6.08,6.08,6.08,6.08,6.08,6.08,6.08,6.08,6.08,6.08,6.08,6.08,6.08,6.08,6.08,6.08,6.08,6.08,6.08,6.08,6.08,6.08,6.08,6.08,6.08,6.0185,5.9511,5.9511,5.8915,5.8107,5.7223,5.6338,5.5703,5.5703,5.5703,5.5703,5.5703,5.5703,5.5703,5.5703,5.5703,5.5703,5.5703,5.5703,5.5703,5.5703,5.5703,5.5703,5.5703,5.5703,5.5703,5.5703,5.5703,5.5703,5.5703,5.5703,5.5703,5.5703,5.5703,5.5703,5.5703,5.5703,5.5703,5.5703,5.5703,5.5703,5.5703,5.5703,5.5703,5.5703,5.5703,5.5703,5.5703,5.5703,5.5703,5.5703,5.5703,5.5703,5.5703,5.5703,5.5703,5.5703,5.5703,5.5703,5.5703,6.1099,6.1099,6.1099,6.1099,6.1099,6.1099,6.1099,6.1099,6.1099,6.1099,6.1099,6.1099,6.1099,6.1099,6.1099,6.1099,6.1099,6.108,6.1022,6.102,6.0955,6.0869,6.0823,6.08,6.08,6.08,6.08,6.08,6.08,6.08,6.08,6.08,6.08,6.08,6.08,6.08,6.08,6.08,6.08,6.08,6.08,6.08,6.08,6.08,6.08,6.08,6.08,6.08,6.08,6.08,6.08,6.08,6.08,6.08,6.08,6.08,6.0608,6.0416,6.0416,5.9781,5.88,5.7357,5.6799,5.6434,5.5838,5.5703,5.5703,5.5703,5.5703,5.5703,5.5703,5.5703,5.5703,5.5703,5.5703,5.5703,5.5703,5.5703,5.5703,5.5703,5.5703,5.5703,5.5703,5.5703,5.5703,5.5703,5.5703,5.5703,5.5703,5.5703,5.5703,5.5703,5.5703,5.5703,5.5703,5.5703,5.5703,5.5703,5.5703,5.5703,5.5703,5.5703,5.5703,5.5703,5.5703,5.5703,5.5703,5.5703,5.5703,5.5703,5.5703,5.5703,5.5703,5.5703,5.5703,5.5703,6.1099,6.1099,6.1099,6.1099,6.1099,6.1099,6.1099,6.1099,6.1099,6.1099,6.1099,6.1099,6.1099,6.1099,6.1099,6.1099,6.1099,6.108,6.1041,6.1001,6.0978,6.0955,6.0888,6.0823,6.08,6.08,6.08,6.08,6.08,6.08,6.08,6.08,6.08,6.08,6.08,6.08,6.08,6.08,6.08,6.08,6.08,6.08,6.08,6.08,6.08,6.08,6.08,6.08,6.08,6.08,6.08,6.08,6.08,6.08,6.08,6.08,6.08,6.08,6.08,6.0416,5.9608,5.7934,5.7261,5.6761,5.5895,5.5703,5.5703,5.5703,5.5703,5.5703,5.5703,5.5703,5.5703,5.5703,5.5703,5.5703,5.5703,5.5703,5.5703,5.5703,5.5703,5.5703,5.5703,5.5703,5.5703,5.5703,5.5703,5.5703,5.5703,5.5703,5.5703,5.5703,5.5703,5.5703,5.5703,5.5703,5.5703,5.5703,5.5703,5.5703,5.5703,5.5703,5.5703,5.5703,5.5703,5.5703,5.5703,5.5703,5.5703,5.5703,5.5703,5.5703,5.5703,5.5703,5.5703,5.5703,6.1099,6.1099,6.1099,6.1099,6.1099,6.1099,6.1099,6.1099,6.1099,6.1099,6.1099,6.1099,6.1099,6.1099,6.1099,6.1099,6.1099,6.1099,6.1099,6.1041,6.1001,6.0997,6.0933,6.0869,6.08,6.08,6.08,6.08,6.08,6.08,6.08,6.08,6.08,6.08,6.08,6.08,6.08,6.08,6.08,6.08,6.08,6.08,6.08,6.08,6.08,6.08,6.08,6.08,6.08,6.08,6.08,6.08,6.08,6.08,6.08,6.08,6.08,6.08,6.08,6.08,6.0416,5.8819,5.7761,5.6857,5.5915,5.5703,5.5703,5.5703,5.5703,5.5703,5.5703,5.5703,5.5703,5.5703,5.5703,5.5703,5.5703,5.5703,5.5703,5.5703,5.5703,5.5703,5.5703,5.5703,5.5703,5.5703,5.5703,5.5703,5.5703,5.5703,5.5703,5.5703,5.5703,5.5703,5.5703,5.5703,5.5703,5.5703,5.5703,5.5703,5.5703,5.5703,5.5703,5.5703,5.5703,5.5703,5.5703,5.5703,5.5703,5.5703,5.5703,5.5703,5.5703,5.5703,5.5703,5.5703,6.1099,6.1099,6.1099,6.1099,6.1099,6.1099,6.1099,6.1099,6.1099,6.1099,6.1099,6.1099,6.1099,6.1099,6.1099,6.1099,6.1099,6.1099,6.1099,6.1041,6.1001,6.0997,6.0933,6.0869,6.08,6.08,6.08,6.08,6.08,6.08,6.08,6.08,6.08,6.08,6.08,6.08,6.08,6.08,6.08,6.08,6.08,6.08,6.08,6.08,6.08,6.08,6.08,6.08,6.08,6.08,6.08,6.08,6.08,6.08,6.08,6.08,6.08,6.08,6.08,6.08,6.055,5.9492,5.8627,5.7607,5.6049,5.5703,5.5703,5.5703,5.5703,5.5703,5.5703,5.5703,5.5703,5.5703,5.5703,5.5703,5.5703,5.5703,5.5703,5.5703,5.5703,5.5703,5.5703,5.5703,5.5703,5.5703,5.5703,5.5703,5.5703,5.5703,5.5703,5.5703,5.5703,5.5703,5.5703,5.5703,5.5703,5.5703,5.5703,5.5703,5.5703,5.5703,5.5703,5.5703,5.5703,5.5703,5.5703,5.5703,5.5703,5.5703,5.5703,5.5703,5.5703,5.5703,5.5703,5.5703,6.1099,6.1099,6.1099,6.1099,6.1099,6.1099,6.1099,6.1099,6.1099,6.1099,6.1099,6.1099,6.1099,6.1099,6.1099,6.1099,6.1099,6.1099,6.1099,6.108,6.1041,6.1,6.0957,6.0933,6.0846,6.0823,6.08,6.08,6.08,6.08,6.08,6.08,6.08,6.08,6.08,6.08,6.08,6.08,6.08,6.08,6.08,6.08,6.08,6.08,6.08,6.08,6.08,6.08,6.08,6.08,6.08,6.08,6.08,6.08,6.08,6.08,6.08,6.08,6.08,6.08,6.0589,5.9723,5.8896,5.7953,5.6607,5.5992,5.5703,5.5703,5.5703,5.5703,5.5703,5.5703,5.5703,5.5703,5.5703,5.5703,5.5703,5.5703,5.5703,5.5703,5.5703,5.5703,5.5703,5.5703,5.5703,5.5703,5.5703,5.5703,5.5703,5.5703,5.5703,5.5703,5.5703,5.5703,5.5703,5.5703,5.5703,5.5703,5.5703,5.5703,5.5703,5.5703,5.5703,5.5703,5.5703,5.5703,5.5703,5.5703,5.5703,5.5703,5.5703,5.5703,5.5703,5.5703,5.5703,5.5703,6.1099,6.1099,6.1099,6.1099,6.1099,6.1099,6.1099,6.1099,6.1099,6.1099,6.1099,6.1099,6.1099,6.1099,6.1099,6.1099,6.1099,6.1099,6.1099,6.1099,6.108,6.1002,6.1,6.0957,6.0933,6.0846,6.0823,6.08,6.08,6.08,6.08,6.08,6.08,6.08,6.08,6.08,6.08,6.08,6.08,6.08,6.08,6.08,6.08,6.08,6.08,6.08,6.08,6.08,6.08,6.08,6.08,6.08,6.08,6.08,6.08,6.08,6.08,6.08,6.08,6.08,6.0627,5.9896,5.9011,5.8107,5.7376,5.6434,5.5703,5.5703,5.5703,5.5703,5.5703,5.5703,5.5703,5.5703,5.5703,5.5703,5.5703,5.5703,5.5703,5.5703,5.5703,5.5703,5.5703,5.5703,5.5703,5.5703,5.5703,5.5703,5.5703,5.5703,5.5703,5.5703,5.5703,5.5703,5.5703,5.5703,5.5703,5.5703,5.5703,5.5703,5.5703,5.5703,5.5703,5.5703,5.5703,5.5703,5.5703,5.5703,5.5703,5.5703,5.5703,5.5703,5.5703,5.5703,5.5703,5.5703,6.1118,6.1099,6.1099,6.1099,6.1099,6.1099,6.1099,6.1099,6.1099,6.1099,6.1099,6.1099,6.1099,6.1099,6.1099,6.1099,6.1099,6.1099,6.1099,6.1099,6.108,6.1002,6.1002,6.1,6.0976,6.0933,6.0846,6.08,6.08,6.08,6.08,6.08,6.08,6.08,6.08,6.08,6.08,6.08,6.08,6.08,6.08,6.08,6.08,6.08,6.08,6.08,6.08,6.08,6.08,6.08,6.08,6.08,6.08,6.08,6.08,6.08,6.08,6.08,6.08,6.08,6.0762,6.0646,5.9454,5.828,5.8146,5.6876,5.5703,5.5703,5.5703,5.5703,5.5703,5.5703,5.5703,5.5703,5.5703,5.5703,5.5703,5.5703,5.5703,5.5703,5.5703,5.5703,5.5703,5.5703,5.5703,5.5703,5.5703,5.5703,5.5703,5.5703,5.5703,5.5703,5.5703,5.5703,5.5703,5.5703,5.5703,5.5703,5.5703,5.5703,5.5703,5.5703,5.5703,5.5703,5.5703,5.5703,5.5703,5.5703,5.5703,5.5703,5.5703,5.5703,5.5703,5.5703,5.5703,5.5703,6.1273,6.1273,6.1273,6.1273,6.1234,6.1215,6.1253,6.1176,6.1137,6.1195,6.1157,6.1099,6.1099,6.1099,6.1099,6.1099,6.1099,6.1099,6.1099,6.1099,6.108,6.1061,6.1022,6.1002,6.1,6.0957,6.0933,6.0911,6.0846,6.08,6.08,6.08,6.08,6.08,6.08,6.08,6.08,6.08,6.08,6.08,6.08,6.08,6.08,6.08,6.08,6.08,6.08,6.08,6.08,6.08,6.08,6.08,6.08,6.08,6.08,6.08,6.08,6.08,6.08,6.08,6.08,6.08,5.9877,5.8858,5.8396,5.7319,5.628,5.5799,5.5703,5.5703,5.5703,5.5703,5.5703,5.5703,5.5703,5.5703,5.5703,5.5703,5.5703,5.5703,5.5703,5.5703,5.5703,5.5703,5.5703,5.5703,5.5703,5.5703,5.5703,5.5703,5.5703,5.5703,5.5703,5.5703,5.5703,5.5703,5.5703,5.5703,5.5703,5.5703,5.5703,5.5703,5.5703,5.5703,5.5703,5.5703,5.5703,5.5703,5.5703,5.5703,5.5703,5.5703,5.5703,5.5703,5.5703,5.5703]},{"header":{"parameterUnit":"m.s-1","parameterCategory":1,"la1":30.6,"la2":28.766,"lo1":-90.7593,"lo2":-88.6598,"dx":0.0162,"dy":0.0183,"nx":116,"ny":114,"refTime":"2022-12-30T18:00:00:Z","depth":0,"parameterNumber":3,"parameterNumberName":"V-component_of_WINDS"},"data":[0.0,0.0,0.0,0.0,0.0,0.0,0.0,0.0,0.0,0.0,0.0,0.0,0.0,0.0,0.0,0.0,0.0,0.0,0.0,0.0,0.0,0.0,0.0,0.0,0.0,0.0,0.0,0.0,0.0,0.0,0.0,0.0,0.0,0.0,0.0,0.0,0.0,0.0,0.0,0.0,0.0,0.0,0.0,0.0,0.0,0.0,0.0,0.0,0.0,0.0,0.0,0.0,0.0,0.0,0.0,0.0,0.0,0.0,0.0,0.0,0.0,0.0,0.0,0.0,0.0,0.0,0.0,0.0,0.0,0.0,0.0,0.0,0.0,0.0,0.0,0.0,0.0,0.0,0.0,0.0,0.0,0.0,0.0,0.0,0.0,0.0,0.0,0.0,0.0,0.0,0.0,0.0,0.0,0.0,0.0,0.0,0.0,0.0,0.0,0.0,0.0,0.0,0.0,0.0,0.0,0.0,0.0,0.0,0.0,0.0,0.0,0.0,0.0,0.0,0.0,0.0,0.0,0.0,0.0,0.0,0.0,0.0,0.0,0.0,0.0,0.0,0.0,0.0,0.0,0.0,0.0,0.0,0.0,0.0,0.0,0.0,0.0,0.0,0.0,0.0,0.0,0.0,0.0,0.0,0.0,0.0,0.0,0.0,0.0,0.0,0.0,0.0,0.0,0.0,0.0,0.0,0.0,0.0,0.0,0.0,0.0,0.0,0.0,0.0,0.0,0.0,0.0,0.0,0.0,0.0,0.0,0.0,0.0,0.0,0.0,0.0,0.0,0.0,0.0,0.0,0.0,0.0,0.0,0.0,0.0,0.0,0.0,0.0,0.0,0.0,0.0,0.0,0.0,0.0,0.0,0.0,0.0,0.0,0.0,0.0,0.0,0.0,0.0,0.0,0.0,0.0,0.0,0.0,0.0,0.0,0.0,0.0,0.0,0.0,0.0,0.0,0.0,0.0,0.0,0.0,0.0,0.0,0.0,0.0,0.0,0.0,0.0,0.0,0.0,0.0,0.0,0.0,0.0,0.0,0.0,0.0,0.0,0.0,0.0,0.0,0.0,0.0,0.0,0.0,0.0,0.0,0.0,0.0,0.0,0.0,0.0,0.0,0.0,0.0,0.0,0.0,0.0,0.0,0.0,0.0,0.0,0.0,0.0,0.0,0.0,0.0,0.0,0.0,0.0,0.0,0.0,0.0,0.0,0.0,0.0,0.0,0.0,0.0,0.0,0.0,0.0,0.0,0.0,0.0,0.0,0.0,0.0,0.0,0.0,0.0,0.0,0.0,0.0,0.0,0.0,0.0,0.0,0.0,0.0,0.0,0.0,0.0,0.0,0.0,0.0,0.0,0.0,0.0,0.0,0.0,0.0,0.0,0.0,0.0,0.0,0.0,0.0,0.0,0.0,0.0,0.0,0.0,0.0,0.0,0.0,0.0,0.0,0.0,0.0,0.0,0.0,0.0,0.0,0.0,0.0,0.0,0.0,0.0,0.0,0.0,0.0,0.0,0.0,0.0,0.0,0.0,0.0,0.0,0.0,0.0,0.0,0.0,0.0,0.0,0.0,0.0,0.0,0.0,0.0,0.0,0.0,0.0,0.0,0.0,0.0,0.0,0.0,0.0,0.0,0.0,0.0,0.0,0.0,0.0,0.0,0.0,0.0,0.0,0.0,0.0,0.0,0.0,0.0,0.0,0.0,0.0,0.0,0.0,0.0,0.0,0.0,0.0,0.0,0.0,0.0,0.0,0.0,0.0,0.0,0.0,0.0,0.0,0.0,0.0,0.0,0.0,0.0,0.0,0.0,0.0,0.0,0.0,0.0,0.0,0.0,0.0,0.0,0.0,0.0,0.0,0.0,0.0,0.0,0.0,0.0,0.0,0.0,0.0,0.0,0.0,0.0,0.0,0.0,0.0,0.0,0.0,0.0,0.0,0.0,0.0,0.0,0.0,0.0,0.0,0.0,0.0,0.0,0.0,0.0,0.0,0.0,0.0,0.0,0.0,0.0,0.0,0.0,0.0,0.0,0.0,0.0,0.0,0.0,0.0,0.0,0.0,0.0,0.0,0.0,0.0,0.0,0.0,0.0,0.0,0.0,0.0,0.0,0.0,0.0,0.0,0.0,0.0,0.0,0.0,0.0,0.0,0.0,0.0,0.0,0.0,0.0,0.0,0.0,0.0,0.0,0.0,0.0,0.0,0.0,0.0,0.0,0.0,0.0,0.0,0.0,0.0,0.0,0.0,0.0,0.0,0.0,0.0,0.0,0.0,0.0,0.0,0.0,0.0,0.0,0.0,0.0,0.0,0.0,0.0,0.0,0.0,0.0,0.0,0.0,0.0,0.0,0.0,0.0,0.0,0.0,0.0,0.0,0.0,0.0,0.0,0.0,0.0,0.0,0.0,0.0,0.0,0.0,0.0,0.0,0.0,0.0,0.0,0.0,0.0,0.0,0.0,0.0,0.0,0.0,0.0,0.0,0.0,0.0,0.0,0.0,0.0,0.0,0.0,0.0,0.0,0.0,0.0,0.0,0.0,0.0,0.0,0.0,0.0,0.0,0.0,0.0,0.0,0.0,0.0,0.0,0.0,0.0,0.0,0.0,0.0,0.0,0.0,0.0,0.0,0.0,0.0,0.0,0.0,0.0,0.0,0.0,0.0,0.0,0.0,0.0,0.0,0.0,0.0,0.0,0.0,0.0,0.0,0.0,0.0,0.0,0.0,0.0,0.0,0.0,0.0,0.0,0.0,0.0,0.0,0.0,0.0,0.0,0.0,0.0,0.0,0.0,0.0,0.0,0.0,0.0,0.0,0.0,0.0,0.0,0.0,0.0,0.0,0.0,0.0,0.0,0.0,0.0,0.0,0.0,0.0,0.0,0.0,0.0,0.0,0.0,0.0,0.0,0.0,0.0,0.0,0.0,0.0,0.0,0.0,0.0,0.0,0.0,0.0,0.0,0.0,0.0,0.0,0.0,0.0,0.0,0.0,0.0,0.0,0.0,0.0,0.0,0.0,0.0,0.0,0.0,0.0,0.0,0.0,0.0,0.0,0.0,0.0,0.0,0.0,0.0,0.0,0.0,0.0,0.0,0.0,0.0,0.0,0.0,0.0,0.0,0.0,0.0,0.0,0.0,0.0,0.0,0.0,0.0,0.0,0.0,0.0,0.0,0.0,0.0,0.0,0.0,0.0,0.0,0.0,0.0,0.0,0.0,0.0,0.0,0.0,0.0,0.0,0.0,0.0,0.0,0.0,0.0,0.0,0.0,0.0,0.0,0.0,0.0,0.0,0.0,0.0,0.0,0.0,0.0,0.0,0.0,0.0,0.0,0.0,0.0,0.0,0.0,0.0,0.0,0.0,0.0,0.0,0.0,0.0,0.0,0.0,0.0,0.0,0.0,0.0,0.0,0.0,0.0,0.0,0.0,0.0,0.0,0.0,0.0,0.0,0.0,0.0,0.0,0.0,0.0,0.0,0.0,0.0,0.0,0.0,0.0,0.0,0.0,0.0,0.0,0.0,0.0,0.0,0.0,0.0,0.0,0.0,0.0,0.0,0.0,0.0,0.0,0.0,0.0,0.0,0.0,0.0,0.0,0.0,0.0,0.0,0.0,0.0,0.0,0.0,0.0,0.0,0.0,0.0,0.0,0.0,0.0,0.0,0.0,0.0,0.0,0.0,0.0,0.0,0.0,0.0,0.0,0.0,0.0,0.0,0.0,0.0,0.0,0.0,0.0,0.0,0.0,0.0,0.0,0.0,0.0,0.0,0.0,0.0,0.0,0.0,0.0,0.0,0.0,0.0,0.0,0.0,0.0,0.0,0.0,0.0,0.0,0.0,0.0,0.0,0.0,0.0,0.0,0.0,0.0,0.0,0.0,0.0,0.0,0.0,0.0,0.0,0.0,0.0,0.0,0.0,0.0,0.0,0.0,0.0,0.0,0.0,0.0,0.0,0.0,0.0,0.0,0.0,0.0,0.0,0.0,0.0,0.0,0.0,0.0,0.0,0.0,0.0,0.0,0.0,0.0,0.0,0.0,0.0,0.0,0.0,0.0,0.0,0.0,0.0,0.0,0.0,0.0,0.0,0.0,0.0,0.0,0.0,0.0,0.0,0.0,0.0,0.0,0.0,0.0,0.0,0.0,0.0,0.0,0.0,0.0,0.0,0.0,0.0,0.0,0.0,0.0,0.0,0.0,0.0,0.0,0.0,0.0,0.0,0.0,0.0,0.0,0.0,0.0,0.0,0.0,0.0,0.0,0.0,0.0,0.0,0.0,0.0,0.0,0.0,0.0,0.0,0.0,0.0,0.0,0.0,0.0,0.0,0.0,0.0,0.0,0.0,0.0,0.0,0.0,0.0,0.0,0.0,0.0,0.0,0.0,0.0,0.0,0.0,0.0,0.0,0.0,0.0,0.0,0.0,0.0,0.0,0.0,0.0,0.0,0.0,0.0,0.0,0.0,0.0,0.0,0.0,0.0,0.0,0.0,0.0,0.0,0.0,0.0,0.0,0.0,0.0,0.0,0.0,0.0,0.0,0.0,0.0,0.0,0.0,0.0,0.0,0.0,0.0,0.0,0.0,0.0,0.0,0.0,0.0,0.0,0.0,0.0,0.0,0.0,0.0,0.0,0.0,0.0,0.0,0.0,0.0,0.0,0.0,0.0,0.0,0.0,0.0,0.0,0.0,0.0,0.0,0.0,0.0,0.0,0.0,0.0,0.0,0.0,0.0,0.0,0.0,0.0,0.0,0.0,0.0,0.0,0.0,0.0,0.0,0.0,0.0,0.0,0.0,0.0,0.0,0.0,0.0,0.0,0.0,0.0,0.0,0.0,0.0,0.0,0.0,0.0,0.0,0.0,0.0,0.0,0.0,0.0,0.0,0.0,0.0,0.0,0.0,0.0,0.0,0.0,0.0,0.0,0.0,0.0,0.0,0.0,0.0,0.0,0.0,0.0,0.0,0.0,0.0,0.0,0.0,0.0,0.0,0.0,0.0,0.0,0.0,0.0,0.0,0.0,0.0,0.0,0.0,0.0,0.0,0.0,0.0,0.0,0.0,0.0,0.0,0.0,0.0,0.0,0.0,0.0,0.0,0.0,0.0,0.0,0.0,0.0,0.0,0.0,0.0,0.0,0.0,0.0,0.0,0.0,0.0,0.0,0.0,0.0,0.0,0.0,0.0,0.0,0.0,0.0,0.0,0.0,0.0,0.0,0.0,0.0,0.0,0.0,0.0,0.0,0.0,0.0,0.0,0.0,0.0,0.0,0.0,0.0,0.0,0.0,0.0,0.0,0.0,0.0,0.0,0.0,0.0,0.0,0.0,0.0,0.0,0.0,0.0,0.0,0.0,0.0,0.0,0.0,0.0,0.0,0.0,0.0,0.0,0.0,0.0,0.0,0.0,0.0,0.0,0.0,0.0,0.0,0.0,0.0,0.0,0.0,0.0,0.0,0.0,0.0,0.0,0.0,0.0,0.0,0.0,0.0,0.0,0.0,0.0,0.0,0.0,0.0,0.0,0.0,0.0,0.0,0.0,0.0,0.0,0.0,0.0,0.0,0.0,0.0,0.0,0.0,0.0,0.0,0.0,0.0,0.0,0.0,0.0,0.0,0.0,0.0,0.0,0.0,0.0,0.0,0.0,0.0,0.0,0.0,0.0,0.0,0.0,0.0,0.0,0.0,0.0,0.0,0.0,0.0,0.0,0.0,0.0,0.0,0.0,0.0,0.0,0.0,0.0,0.0,0.0,0.0,0.0,0.0,0.0,0.0,0.0,0.0,0.0,0.0,0.0,0.0,0.0,0.0,0.0,0.0,0.0,0.0,0.0,0.0,0.0,0.0,0.0,0.0,0.0,0.0,0.0,0.0,0.0,0.0,0.0,0.0,0.0,0.0,0.0,0.0,0.0,0.0,0.0,0.0,0.0,0.0,0.0,0.0,0.0,0.0,0.0,0.0,0.0,0.0,0.0,0.0,0.0,0.0,0.0,0.0,0.0,0.0,0.0,0.0,0.0,0.0,0.0,0.0,0.0,0.0,0.0,0.0,0.0,0.0,0.0,0.0,0.0,0.0,0.0,0.0,0.0,0.0,0.0,0.0,0.0,-0.8949,-0.8545,0.0,0.0,0.0,0.0,0.0,0.0,0.0,0.0,0.0,0.0,0.0,0.0,0.0,0.0,0.0,0.0,0.0,0.0,0.0,0.0,0.0,0.0,0.0,-0.5698,-0.5698,-0.5698,-0.5698,0.0,0.0,0.0,0.0,0.0,0.0,0.0,0.0,0.0,-0.6673,-0.6889,-0.6858,-0.7051,-0.7418,-0.7222,-0.708,-0.7033,0.0,0.0,0.0,0.0,0.0,0.0,0.0,0.0,0.0,0.0,0.0,0.0,0.0,0.0,0.0,0.0,0.0,0.0,0.0,0.0,0.0,0.0,0.0,0.0,0.0,0.0,0.0,0.0,0.0,0.0,0.0,0.0,0.0,0.0,0.0,0.0,0.0,0.0,0.0,0.0,0.0,0.0,0.0,0.0,0.0,0.0,0.0,0.0,0.0,0.0,0.0,0.0,0.0,0.0,0.0,0.0,0.0,0.0,0.0,0.0,0.0,0.0,0.0,0.0,0.0,0.0,0.0,0.0,0.0,0.0,-0.9136,-0.8869,0.0,0.0,0.0,0.0,0.0,0.0,0.0,0.0,0.0,0.0,0.0,0.0,0.0,0.0,0.0,0.0,0.0,0.0,0.0,0.0,0.0,-0.5689,-0.6148,-0.6202,-0.6229,-0.6302,-0.6311,-0.6275,-0.6202,-0.6202,0.0,0.0,0.0,0.0,-0.6812,-0.7278,-0.7493,-0.7449,-0.7837,-0.7934,-0.7799,-0.7861,-0.7706,-0.7284,-0.7332,0.0,0.0,0.0,0.0,0.0,0.0,0.0,0.0,0.0,0.0,0.0,0.0,0.0,0.0,0.0,0.0,0.0,0.0,0.0,0.0,0.0,0.0,0.0,0.0,0.0,0.0,0.0,0.0,0.0,0.0,0.0,0.0,0.0,0.0,0.0,0.0,0.0,0.0,0.0,0.0,0.0,0.0,0.0,0.0,0.0,0.0,0.0,0.0,0.0,0.0,0.0,0.0,0.0,0.0,0.0,0.0,0.0,0.0,0.0,0.0,0.0,0.0,0.0,-0.9556,-0.9802,-1.0006,-1.0121,-1.0146,-1.0036,-0.9376,-0.9229,-0.9419,-0.9419,0.0,0.0,0.0,0.0,0.0,0.0,0.0,0.0,0.0,0.0,0.0,0.0,0.0,0.0,0.0,0.0,0.0,0.0,0.0,-0.6193,-0.6958,-0.7041,-0.7187,-0.7521,-0.7557,-0.7403,-0.7068,-0.7041,0.0,0.0,0.0,-0.7575,-0.763,-0.8427,-0.8699,-0.8413,-0.8143,-0.7776,-0.7294,-0.7524,-0.7598,-0.7554,-0.793,-0.7976,-0.7767,0.0,0.0,0.0,0.0,0.0,0.0,0.0,0.0,0.0,0.0,0.0,0.0,0.0,0.0,0.0,0.0,0.0,0.0,0.0,0.0,0.0,0.0,0.0,0.0,0.0,0.0,0.0,0.0,0.0,0.0,0.0,0.0,0.0,0.0,0.0,0.0,0.0,0.0,0.0,0.0,0.0,-0.8487,-0.7943,0.0,0.0,0.0,0.0,0.0,0.0,0.0,0.0,0.0,0.0,0.0,0.0,0.0,-0.9226,-0.9658,-0.973,-0.988,-1.0176,-1.0441,-1.0586,-1.0622,-1.0852,-1.096,-1.0954,-1.0846,0.0,-0.9503,-0.9503,0.0,0.0,0.0,0.0,0.0,0.0,0.0,0.0,0.0,0.0,0.0,0.0,0.0,0.0,0.0,0.0,0.0,0.0,0.0,0.0,0.0,-0.7792,-0.7765,-0.7943,-0.7961,-0.7881,-0.7703,-0.8057,0.0,0.0,-0.8656,-0.8986,-0.9206,-0.9173,-0.8921,-0.8494,-0.819,-0.7979,-0.7828,-0.8094,-0.8214,-0.8196,-0.8228,-0.8065,-0.7732,-0.7315,0.0,0.0,0.0,0.0,0.0,0.0,0.0,0.0,0.0,0.0,0.0,0.0,0.0,0.0,0.0,0.0,0.0,0.0,0.0,0.0,0.0,0.0,0.0,0.0,0.0,0.0,0.0,0.0,0.0,0.0,0.0,0.0,0.0,0.0,0.0,0.0,0.0,0.0,0.0,-0.8398,-0.8121,-0.8099,-0.8586,-0.8856,0.0,0.0,0.0,0.0,0.0,0.0,0.0,0.0,0.0,-0.9841,-0.9934,-1.014,-1.0375,-1.0683,-1.0894,-1.1009,-1.1268,-1.1395,-1.1401,-1.1516,-1.157,-1.157,-1.157,-1.131,-1.0858,-1.0556,-1.0339,-1.0176,0.0,0.0,0.0,0.0,-0.9977,-1.0093,0.0,0.0,0.0,0.0,0.0,0.0,0.0,0.0,0.0,0.0,0.0,0.0,-0.8572,-0.8568,-0.8558,-0.8656,-0.8754,-0.8816,-0.8816,-0.9276,-0.9557,-0.9557,-0.9851,-1.0164,-1.0459,-0.9748,-0.9126,-0.8666,-0.8385,-0.8306,-0.8393,-0.8585,-0.8681,-0.8669,-0.8477,-0.8184,-0.7765,-0.7362,-0.7266,-0.7334,0.0,0.0,0.0,0.0,0.0,0.0,0.0,0.0,0.0,0.0,0.0,0.0,0.0,0.0,0.0,0.0,0.0,0.0,0.0,0.0,0.0,0.0,0.0,0.0,0.0,0.0,0.0,0.0,0.0,0.0,0.0,0.0,0.0,0.0,0.0,0.0,0.0,-0.8261,-0.7925,-0.8333,-0.872,-0.9055,0.0,0.0,0.0,0.0,0.0,0.0,-0.953,-0.9922,-1.02,-1.0345,-1.0725,-1.096,-1.1027,-1.1498,-1.1727,-1.1739,-1.2071,-1.2234,-1.2234,-1.23,-1.233,-1.233,-1.233,-1.233,-1.2276,-1.16,-1.1208,-1.1003,-1.1103,-1.1007,-1.0779,-1.0501,-1.04,-1.04,0.0,0.0,0.0,0.0,0.0,0.0,0.0,0.0,0.0,0.0,0.0,-0.8599,-0.9014,-0.9419,-0.9775,-1.015,-1.0526,-1.0781,-1.0781,-1.08,-1.0809,-1.0809,-1.0837,-1.0855,-1.0873,-1.0156,-0.9642,-0.9371,-0.8902,-0.8645,-0.8657,-0.8669,-0.8681,-0.8681,-0.8663,-0.8507,-0.8213,-0.7783,-0.7754,-0.7996,-0.7354,0.0,0.0,0.0,0.0,0.0,0.0,0.0,0.0,0.0,0.0,0.0,0.0,0.0,0.0,0.0,0.0,0.0,0.0,0.0,0.0,0.0,0.0,0.0,0.0,0.0,0.0,0.0,0.0,0.0,0.0,0.0,0.0,0.0,0.0,0.0,0.0,0.0,0.0,-0.8627,-0.8715,0.0,0.0,0.0,0.0,-0.9838,-0.9892,-1.0115,-1.061,-1.0665,-1.0918,-1.1431,-1.1479,-1.1612,-1.186,-1.2137,-1.2276,-1.2282,-1.2807,-1.3061,-1.3073,-1.332,-1.3435,-1.3435,-1.3435,-1.3435,-1.3357,-1.2312,-1.1872,-1.1836,-1.1576,-1.1461,-1.1413,-1.1135,-1.1033,-1.1033,0.0,0.0,0.0,-0.5141,-0.5306,-0.5625,-0.6292,-0.6858,-0.7534,-0.85,-0.8783,-0.9235,-1.0155,-0.9688,-0.9606,-1.0347,-1.024,-1.0273,-1.0633,-1.1068,-1.1306,-1.1306,-1.1794,-1.1722,-1.097,-1.0213,-0.9599,-0.9191,-0.9181,-0.928,-0.9448,-0.9616,-0.9759,-0.9753,-0.952,-0.9394,-0.9262,-0.8613,-0.8263,-0.8236,-0.8076,-0.8055,0.0,0.0,0.0,0.0,0.0,0.0,0.0,0.0,0.0,0.0,0.0,0.0,0.0,0.0,0.0,0.0,0.0,0.0,0.0,0.0,0.0,0.0,0.0,0.0,0.0,0.0,0.0,0.0,0.0,0.0,0.0,0.0,0.0,0.0,0.0,0.0,0.0,-0.9166,-0.9346,0.0,-0.9874,-1.0055,-1.023,-1.0429,-1.0761,-1.1045,-1.1232,-1.1564,-1.1836,-1.2029,-1.2373,-1.2602,-1.2693,-1.2958,-1.3085,-1.3091,-1.3284,-1.3375,-1.3381,-1.3471,-1.3513,-1.3513,-1.3513,-1.3513,-1.3483,-1.3103,-1.285,-1.2687,-1.2596,-1.2445,-1.2276,-1.2174,-1.2137,-1.2137,0.0,0.0,0.0,-0.5324,-0.5516,-0.5881,-0.6684,-0.7269,-0.7986,-0.8968,-0.9327,-0.9805,-1.0616,-1.0215,-1.0142,-1.0767,-1.0632,-1.0716,-1.1217,-1.1679,-1.1948,-1.2094,-1.2322,-1.194,-1.0762,-1.0307,-0.9858,-0.9397,-0.961,-0.9832,-1.0006,-1.0248,-1.0327,-1.0321,-1.0077,-1.0,-0.997,-0.9436,-0.8956,-0.8588,-0.8546,-0.8483,-0.8378,0.0,0.0,0.0,0.0,0.0,0.0,0.0,0.0,0.0,0.0,0.0,0.0,0.0,0.0,0.0,0.0,0.0,0.0,0.0,0.0,0.0,0.0,0.0,0.0,0.0,0.0,0.0,0.0,0.0,0.0,0.0,0.0,0.0,0.0,-0.9284,-0.9376,-0.9826,-1.003,-1.0345,-1.0701,-1.0894,-1.1069,-1.1244,-1.1588,-1.1878,-1.2059,-1.2397,-1.2626,-1.2717,-1.3067,-1.3254,-1.3254,-1.3513,-1.3646,-1.3646,-1.3737,-1.3779,-1.3779,-1.3779,-1.3779,-1.3779,-1.3779,-1.3779,-1.3779,-1.3779,-1.3676,-1.3501,-1.3326,-1.3139,-1.2976,-1.2976,-1.2976,-1.2976,0.0,0.0,-0.494,-0.5342,-0.5753,-0.6266,-0.7095,-0.7941,-0.8645,-0.906,-0.9815,-1.0321,-1.0349,-1.1012,-1.1498,-1.1508,-1.1856,-1.2241,-1.2687,-1.2715,-1.2855,-1.3232,-1.2453,-1.1425,-1.0235,-1.047,-1.0393,-0.991,-1.023,-1.0363,-1.0381,-1.0381,-1.0381,-1.0381,-1.0381,-1.0381,-1.0381,-1.0363,-0.9904,-0.9162,-0.8819,-0.8825,-0.8991,0.0,0.0,0.0,0.0,0.0,0.0,0.0,0.0,0.0,0.0,0.0,0.0,0.0,0.0,0.0,0.0,0.0,0.0,0.0,0.0,0.0,0.0,0.0,0.0,0.0,0.0,0.0,0.0,0.0,0.0,0.0,0.0,0.0,-1.0117,-0.9829,-0.9814,-1.0641,-1.0749,-1.0966,-1.1504,-1.1564,-1.1781,-1.23,-1.2343,-1.2578,-1.3109,-1.3145,-1.3266,-1.3519,-1.3538,-1.3538,-1.3538,-1.3791,-1.3918,-1.3924,-1.4177,-1.4298,-1.4298,-1.4304,-1.431,-1.431,-1.4322,-1.4322,-1.4322,-1.4322,-1.4322,-1.4268,-1.3743,-1.3538,-1.3538,-1.3538,-1.3538,-1.3538,-0.4867,-0.4793,-0.5011,-0.5702,-0.592,-0.6366,-0.7457,-0.8124,-0.8747,-0.9456,-0.999,-1.0542,-1.1095,-1.1006,-1.119,-1.1883,-1.1665,-1.1837,-1.2635,-1.2715,-1.2752,-1.2797,-1.16,-1.0981,-1.0928,-1.0565,-1.0534,-1.0791,-1.0858,-1.1099,-1.1486,-1.1486,-1.1486,-1.1486,-1.1486,-1.1486,-1.1455,-1.1063,-1.0767,-1.0496,-0.9592,-0.9217,-0.9057,0.0,0.0,0.0,0.0,0.0,0.0,0.0,0.0,0.0,0.0,0.0,0.0,0.0,0.0,0.0,0.0,0.0,0.0,0.0,0.0,0.0,0.0,0.0,0.0,0.0,0.0,0.0,0.0,0.0,0.0,0.0,-0.9896,-1.0049,-0.9988,-1.039,-1.0761,-1.0979,-1.1353,-1.1721,-1.2065,-1.227,-1.253,-1.2874,-1.3079,-1.3248,-1.3399,-1.3586,-1.3725,-1.3797,-1.3984,-1.4081,-1.4081,-1.4153,-1.4189,-1.4189,-1.4262,-1.4298,-1.4304,-1.4509,-1.46,-1.4612,-1.4805,-1.4883,-1.4883,-1.4883,-1.4883,-1.4835,-1.4292,-1.4081,-1.4081,-1.4081,-1.4081,-1.4081,-0.4885,-0.494,-0.526,-0.5884,-0.6138,-0.6675,-0.789,-0.8307,-0.8793,-0.9573,-1.0211,-1.0745,-1.1223,-1.128,-1.1518,-1.2049,-1.1971,-1.218,-1.2901,-1.2959,-1.2783,-1.2332,-1.1374,-1.0915,-1.1002,-1.0732,-1.0864,-1.1286,-1.1395,-1.1612,-1.192,-1.192,-1.192,-1.192,-1.192,-1.192,-1.1902,-1.1582,-1.1389,-1.1226,-1.0496,-0.9778,-0.9289,-0.9383,-0.9191,-0.8858,-0.8799,-0.8645,-0.8495,-0.823,0.0,0.0,0.0,0.0,0.0,0.0,0.0,0.0,0.0,0.0,0.0,0.0,0.0,0.0,0.0,0.0,0.0,0.0,0.0,0.0,0.0,0.0,0.0,0.0,-1.0457,-1.0725,-1.0906,-1.1135,-1.1407,-1.1739,-1.2059,-1.2397,-1.2783,-1.2952,-1.3157,-1.3429,-1.3592,-1.3725,-1.3839,-1.3984,-1.4069,-1.4069,-1.422,-1.4352,-1.4473,-1.4473,-1.4527,-1.4636,-1.4636,-1.4636,-1.4642,-1.4805,-1.4877,-1.489,-1.504,-1.5107,-1.5107,-1.5107,-1.5107,-1.5077,0.0,0.0,0.0,0.0,-1.4636,-1.4636,-0.4959,-0.5159,-0.5525,-0.5929,-0.632,-0.7022,-0.8314,-0.8498,-0.8793,-0.9573,-1.0413,-1.0901,-1.0901,-1.1638,-1.2076,-1.2076,-1.2485,-1.2865,-1.3277,-1.3117,-1.2679,-1.1942,-1.1411,-1.095,-1.0707,-1.1009,-1.1298,-1.1576,-1.1836,-1.198,-1.2011,-1.2011,-1.2011,-1.2011,-1.2011,-1.2011,-1.2005,-1.198,-1.183,-1.1594,-1.128,-1.0562,-0.961,-0.9586,-0.9238,-0.8741,-0.8507,-0.8387,-0.8311,-0.8163,0.0,0.0,0.0,0.0,0.0,0.0,0.0,0.0,0.0,0.0,0.0,0.0,0.0,0.0,0.0,0.0,0.0,0.0,0.0,0.0,0.0,0.0,0.0,0.0,-1.1286,-1.154,-1.2258,-1.2011,-1.2005,-1.2668,-1.2777,-1.2994,-1.3507,-1.3562,-1.367,-1.393,-1.3954,-1.4051,-1.4286,-1.4328,0.0,0.0,0.0,-1.4509,-1.4757,-1.4763,-1.4877,-1.5107,-1.5107,-1.5107,-1.5107,-1.5137,-1.5155,-1.5155,-1.5185,-1.5197,-1.5197,-1.5197,-1.5197,-1.5191,-1.5131,-1.5107,-1.5107,-1.5107,-1.5107,-1.5107,-0.5424,-0.5342,-0.5525,-0.5929,-0.632,-0.7022,-0.8314,-0.8498,-0.8793,-0.9573,-1.0413,-1.0901,-1.0901,-1.1638,-1.2076,-1.2076,-1.2485,-1.2877,-1.334,-1.204,-1.1481,-1.1877,-1.1007,-1.0539,-1.0713,-1.1202,-1.1582,-1.1848,-1.2107,-1.2343,-1.2554,-1.2554,-1.2554,-1.2554,-1.2554,-1.2554,-1.2536,-1.2324,-1.221,-1.2119,-1.1642,-1.1069,-1.0472,-1.026,-0.9784,-0.9322,-0.9268,-0.8974,-0.8613,-0.8348,-0.8245,-0.8251,-0.8035,-0.7852,0.0,0.0,0.0,0.0,0.0,0.0,0.0,0.0,0.0,0.0,0.0,0.0,0.0,0.0,0.0,0.0,0.0,0.0,0.0,-1.1163,-1.1885,-1.2451,-1.2608,-1.2916,-1.3109,-1.3049,-1.323,-1.3483,-1.3797,-1.3833,-1.3936,-1.4201,-1.422,-1.4244,-1.4292,-1.4515,-1.4636,-1.4636,-1.4841,-1.498,-1.5034,-1.5034,-1.5059,-1.5107,-1.5107,0.0,-1.5113,-1.5324,-1.5421,-1.5433,-1.5644,-1.5741,-1.5741,-1.5741,-1.5741,-1.5698,-1.5276,-1.5107,-1.5107,-1.5107,-1.5107,-1.5107,-0.6082,-0.6,-0.6073,-0.6257,-0.6639,-0.7271,-0.8341,-0.8498,-0.8793,-0.9573,-1.0413,-1.0901,-1.0901,-1.1638,-1.2076,-1.2076,-1.2244,-1.2581,-1.3067,-1.1675,-1.0978,-1.151,-1.0729,-1.0514,-1.0906,-1.1449,-1.1793,-1.192,-1.2318,-1.2578,-1.2705,-1.2705,-1.2705,-1.2705,-1.2705,-1.2705,-1.2693,-1.2566,-1.2433,-1.2276,-1.1884,-1.1486,-1.1081,-1.0677,-1.02,-0.9664,-0.9526,-0.922,-0.8831,-0.8573,-0.8483,-0.8441,-0.8177,-0.8057,-0.7919,0.0,0.0,0.0,0.0,0.0,0.0,0.0,0.0,0.0,0.0,0.0,0.0,0.0,0.0,-1.0648,-1.0791,0.0,-1.1763,-1.1842,-1.2355,-1.2843,-1.3248,-1.3538,-1.3664,-1.3532,-1.3634,-1.3815,-1.4075,-1.4099,-1.4159,-1.4286,-1.4425,-1.4509,-1.4509,-1.4769,-1.4914,-1.4914,-1.504,-1.5167,-1.5306,-1.5306,-1.5366,-1.5499,-1.5499,-1.5499,-1.5499,-1.5638,-1.5692,-1.5698,-1.5831,-1.5891,-1.5897,-1.603,-1.6169,-1.6272,-1.6006,-1.5741,-1.5499,-1.5499,-1.5499,-1.5499,-0.6721,-0.6721,-0.6703,-0.662,-0.6931,-0.7501,-0.8369,-0.8498,-0.8793,-0.9573,-1.0349,-1.0818,-1.0892,-1.1564,-1.207,-1.2177,-1.191,-1.1947,-1.2619,-1.1305,-1.0664,-1.1054,-1.0604,-1.0574,-1.1099,-1.1594,-1.1872,-1.192,-1.2397,-1.2656,-1.2705,-1.2705,-1.2705,-1.2705,-1.2705,-1.2705,-1.2705,-1.2705,-1.2554,-1.2288,-1.2029,-1.1763,-1.1479,-1.0985,-1.0502,-0.9988,-0.973,-0.9454,-0.9178,-0.8861,-0.8753,-0.8705,-0.8447,-0.8363,-0.8327,-0.8117,-0.8051,0.0,0.0,0.0,0.0,0.0,0.0,0.0,0.0,-0.9538,-0.9901,-1.011,-1.0339,-1.0641,-1.1172,-1.154,-1.1968,-1.2602,-1.2831,-1.3163,-1.3815,-1.3948,-1.3978,-1.3978,-1.3978,-1.4063,-1.428,-1.4346,-1.4377,-1.4377,-1.4636,-1.4793,-1.4793,-1.504,-1.5185,-1.5185,-1.5234,-1.536,-1.5572,-1.5572,-1.568,-1.5891,-1.5891,-1.5916,-1.5964,-1.5964,-1.6,-1.6048,-1.6048,-1.6048,-1.6066,-1.6278,-1.6495,-1.67,-1.67,-1.6435,-1.6048,-1.6048,-1.6048,-1.6048,-0.7132,-0.7132,-0.7022,-0.6666,-0.6931,-0.7501,-0.8369,-0.8498,-0.8793,-0.9573,-1.01,-1.0514,-1.0864,-1.1325,-1.1838,-1.2586,-1.1383,-1.1082,-1.2196,-1.0376,-0.9831,-1.1041,-1.0604,-1.0574,-1.1099,-1.1413,-1.1685,-1.192,-1.2216,-1.2475,-1.2705,-1.2705,-1.2705,-1.2705,-1.2705,-1.2705,-1.2705,-1.2705,-1.2554,-1.2288,-1.2029,-1.1763,-1.1498,-1.1184,-1.0888,-1.0598,-1.0339,-1.0073,-0.9706,-0.9258,-0.9083,-0.898,-0.8717,-0.8633,-0.8627,-0.8603,-0.8591,-0.8707,-0.9118,-0.9317,-0.935,-0.9198,-0.9144,-0.934,0.0,-0.985,-1.0061,-1.0822,-1.1003,-1.119,-1.1733,-1.224,-1.2602,-1.2693,-1.3302,-1.3803,-1.3894,-1.4111,-1.4256,-1.4256,-1.4256,-1.4262,-1.4292,-1.4521,-1.4666,-1.4666,-1.4914,-1.5065,-1.5065,-1.5312,-1.5457,-1.5457,-1.568,-1.5813,-1.5843,-1.5849,-1.5861,-1.5891,-1.5891,-1.6012,-1.6241,-1.6241,-1.6374,-1.661,-1.661,-1.661,-1.6616,-1.664,-1.667,-1.67,-1.67,-1.6664,-1.661,-1.661,-1.661,-1.661,-0.7196,-0.7196,-0.7141,-0.6977,-0.7086,-0.7397,-0.7981,-0.8307,-0.871,-0.9281,-0.9916,-1.0376,-1.0542,-1.1095,-1.1801,-1.265,-1.1313,-1.0799,-1.1662,-1.0087,-0.9479,-1.0337,-1.0317,-1.0502,-1.0876,-1.131,-1.1582,-1.1697,-1.1956,-1.2137,-1.2246,-1.2246,-1.2246,-1.2246,-1.2246,-1.2246,-1.2246,-1.2246,-1.2186,-1.2065,-1.1799,-1.163,-1.1498,-1.122,-1.0948,-1.0707,-1.0598,-1.0387,0.0,-0.9664,-0.9596,-0.946,-0.9034,-0.8902,-0.8902,-0.8902,-0.8902,-0.9035,-0.9543,-0.9693,-0.9697,-0.9765,-0.9826,-0.9965,-1.0502,-1.0622,-1.0803,-1.1449,-1.1703,-1.1926,-1.2306,-1.2693,-1.3049,-1.3357,-1.3682,-1.396,-1.4111,-1.4226,-1.4298,-1.4298,-1.4443,-1.4539,-1.4539,-1.4648,-1.4781,-1.4932,-1.5185,-1.5336,-1.5336,-1.5584,-1.5728,-1.5728,-1.5831,-1.5891,-1.5891,-1.6036,-1.6115,-1.6115,-1.6284,-1.6416,-1.6525,-1.6525,-1.6592,-1.67,-1.67,-1.6791,-1.693,-1.693,-1.7014,-1.7159,-1.7159,-1.7159,-1.7117,-1.6815,-1.67,-1.67,-0.7196,-0.7196,-0.7196,-0.7196,-0.7196,-0.7333,-0.773,-0.8106,-0.8507,-0.9023,-0.9603,-1.0109,-1.0441,-1.1067,-1.1764,-1.2494,-1.1322,-1.0724,-1.1088,-0.9979,-0.9445,-0.9808,-1.0079,-1.0345,-1.0604,-1.1069,-1.1341,-1.1413,-1.1685,-1.1854,-1.192,-1.192,-1.192,-1.192,-1.192,-1.192,-1.192,-1.192,-1.1878,-1.1799,-1.1606,-1.1443,-1.1286,-1.1081,-1.084,-1.0622,-1.0695,-1.0621,-1.0498,-1.0025,-1.0001,-1.0048,-0.9391,-0.9232,-0.9349,-0.9349,-0.9452,-0.9639,-0.9892,-1.003,-1.0218,-1.0478,-1.0544,-1.0683,-1.1214,-1.1335,-1.1467,-1.1932,-1.224,-1.2499,-1.2771,-1.3103,-1.3465,-1.3845,-1.3966,-1.4081,-1.4268,-1.4298,-1.4328,-1.4401,-1.4594,-1.4775,-1.492,-1.4932,-1.501,-1.5203,-1.5457,-1.5608,-1.5608,-1.5783,-1.5922,-1.5994,-1.6,-1.6036,-1.6115,-1.6302,-1.6398,-1.6398,-1.6604,-1.6742,-1.6809,-1.6881,-1.6917,-1.6917,-1.6917,-1.7026,-1.7201,-1.7201,-1.731,-1.7485,-1.7485,-1.7485,-1.7436,-1.7056,-1.6917,-1.6917,-0.7196,-0.7196,-0.7196,-0.7196,-0.7196,-0.7333,-0.773,-0.7803,-0.8118,-0.8986,-0.9115,-0.9575,-1.0754,-1.1269,-1.1654,-1.2058,-1.1401,-1.0832,-1.0462,-1.0017,-0.9708,-0.9536,-0.9748,-1.0073,-1.0339,-1.0604,-1.087,-1.1123,-1.1407,-1.1673,-1.192,-1.192,-1.192,-1.192,-1.192,-1.192,-1.192,-1.192,-1.1775,-1.154,-1.1534,-1.1214,-1.0743,-1.0737,-1.0568,-1.0375,-1.0628,-1.0904,-1.1047,-1.0166,-1.0261,-1.0594,-0.9744,-0.9646,-0.9844,-0.9844,-1.0272,-1.0622,-1.0381,-1.0502,-1.0761,-1.1021,-1.1087,-1.1232,-1.1775,-1.1896,-1.1974,-1.2246,-1.2506,-1.2777,-1.3061,-1.3538,-1.3888,-1.3906,-1.4117,-1.4286,-1.4298,-1.4298,-1.4395,-1.4672,-1.4708,-1.4914,-1.5427,-1.5475,-1.5481,-1.5487,-1.5728,-1.5879,-1.5879,-1.5885,-1.6006,-1.626,-1.6266,-1.6398,-1.6676,-1.6682,-1.6688,-1.6688,-1.67,-1.6833,-1.7086,-1.734,-1.7461,-1.7461,-1.7461,-1.7461,-1.7473,-1.7473,-1.7473,-1.7485,-1.7485,-1.7485,-1.7479,-1.7467,-1.7461,-1.7461,-0.7196,-0.7196,-0.7196,-0.7196,-0.7196,-0.7241,-0.7388,-0.7643,-0.7917,-0.8191,-0.8756,0.0,0.0,0.0,0.0,0.0,-1.1019,-1.0722,-1.1014,-1.0122,-0.9596,-0.9708,-0.9629,-0.9658,-0.9742,-1.0236,-1.0508,-1.0592,-1.0689,-1.0779,-1.087,-1.1045,-1.1123,-1.1123,-1.1123,-1.1123,-1.1111,-1.0942,-1.0816,-1.0737,-1.0737,-1.0622,-1.0459,-1.0459,-1.0297,-1.0103,0.0,-1.0817,-1.1041,-1.0556,-1.0593,-1.0705,-1.0418,-1.0126,-0.997,-1.0562,-1.0972,-1.128,-1.1365,-1.1323,-1.1323,-1.1582,-1.1648,-1.1745,-1.2101,-1.2186,-1.2252,-1.2518,-1.2789,-1.3067,-1.3332,-1.367,-1.396,-1.4135,-1.4238,-1.4298,-1.4298,-1.4298,-1.4401,-1.4684,-1.4871,-1.5113,-1.5469,-1.5499,-1.5572,-1.5747,-1.5843,-1.5964,-1.6139,-1.6151,-1.6278,-1.6549,-1.6561,-1.6604,-1.67,-1.6875,-1.696,-1.696,-1.7135,-1.7267,-1.7358,-1.7443,-1.7485,-1.7485,-1.7485,-1.7485,-1.7485,-1.7485,-1.7485,-1.7485,-1.7485,-1.7485,-1.7485,-1.7485,-1.7485,-1.7485,0.0,-0.7196,-0.7196,-0.7196,-0.7324,0.0,0.0,0.0,0.0,0.0,0.0,0.0,0.0,0.0,0.0,0.0,0.0,-1.0942,-1.1239,-1.0547,-1.006,-0.9996,-0.9967,-0.9982,-0.9982,-1.0536,-1.0836,-1.0836,-1.0772,-1.0736,-1.0742,-1.0637,-1.058,-1.058,-1.058,-1.058,-1.0568,-1.0399,-1.055,-1.0858,-1.0381,-1.0357,-1.0556,-1.0153,-0.9807,0.0,-0.9965,-1.0352,-1.0699,-1.0586,-1.0593,-1.0718,-1.046,-1.0399,-1.0453,-1.096,-1.1443,-1.1805,-1.1787,-1.1793,-1.1854,-1.2023,-1.2065,-1.2131,-1.2397,-1.2451,-1.2499,-1.2668,-1.3,-1.3314,-1.3483,-1.3803,-1.4099,-1.4268,-1.4298,-1.4298,-1.4298,-1.4298,-1.4437,-1.4811,-1.501,-1.5246,-1.5602,-1.5638,-1.5704,-1.5879,-1.5976,-1.6103,-1.6272,-1.6374,-1.6555,-1.6833,-1.6839,-1.6887,-1.6978,-1.7147,-1.7231,-1.7237,-1.74,-1.7485,-1.7485,-1.7485,-1.7485,-1.7485,-1.7485,-1.7485,-1.7485,-1.7485,-1.7485,-1.7485,-1.7485,-1.7485,-1.7485,-1.7485,-1.7485,-1.7485,0.0,0.0,-0.7196,0.0,0.0,0.0,0.0,0.0,0.0,0.0,0.0,0.0,0.0,0.0,0.0,0.0,0.0,0.0,-1.1073,-1.1247,-1.1083,-1.0478,-1.0632,-1.0805,-1.0805,-1.1443,-1.172,-1.172,-1.1636,-1.1533,-1.1533,-1.0666,-1.0266,-1.0272,-1.0272,-1.0266,-1.0266,-1.0254,-1.0834,-1.1648,-1.0387,-1.0327,-1.0858,-0.9802,-0.9209,-0.9032,-0.922,-0.9564,-1.0058,-1.0179,-1.0441,-1.0731,-1.0086,-1.0496,-1.1135,-1.1148,-1.1691,-1.2192,-1.1721,-1.1944,-1.2318,-1.233,-1.233,-1.2397,-1.265,-1.2705,-1.2705,-1.2705,-1.3127,-1.3501,-1.3513,-1.393,-1.428,-1.4292,-1.4298,-1.4298,-1.4298,-1.4298,-1.4497,-1.504,-1.5107,-1.5312,-1.5837,-1.5891,-1.5897,-1.591,-1.6139,-1.6296,-1.632,-1.6573,-1.6839,-1.7105,-1.7111,-1.7231,-1.7479,-1.7485,-1.7485,-1.7485,-1.7485,-1.7485,-1.7485,-1.7485,-1.7485,-1.7485,-1.7485,-1.7485,-1.7485,-1.7485,-1.7491,-1.7503,-1.7503,-1.7509,-1.7527,-1.7527,-1.7527,-1.7527,0.0,0.0,0.0,0.0,0.0,0.0,0.0,0.0,0.0,0.0,0.0,0.0,0.0,0.0,0.0,0.0,0.0,0.0,-1.1361,-1.1223,-1.1005,-1.0851,-1.0608,-1.0529,-1.0529,-1.088,-1.1025,-1.1025,-1.1019,-1.0809,-1.0409,-1.0389,-1.019,-0.9762,-0.9642,-0.9642,-0.9629,-0.9228,-0.9363,-0.9709,-0.9365,-0.9414,-0.9631,-0.9348,-0.9225,-0.922,-0.9782,-0.9655,-0.9366,-0.9907,-1.051,-1.0902,-1.0367,-1.0779,-1.1461,-1.1661,-1.186,-1.2077,-1.2337,-1.2361,-1.2361,-1.2554,-1.2602,-1.262,-1.2687,-1.2705,-1.2705,-1.2705,-1.2982,-1.3284,-1.3477,-1.3785,-1.4069,-1.4262,-1.4298,-1.4298,-1.4298,-1.4298,-1.4497,-1.504,-1.5107,-1.5312,-1.5837,-1.5891,-1.597,-1.6169,-1.6241,-1.6459,-1.6863,-1.6954,-1.7111,-1.7376,-1.7382,-1.7412,-1.7485,-1.7485,-1.7485,-1.7485,-1.7485,-1.7485,-1.7485,-1.7485,-1.7485,-1.7485,-1.7485,-1.7485,-1.7485,-1.7485,-1.7599,-1.7774,-1.7774,-1.7901,-1.8088,-1.8088,-1.8088,-1.8088,0.0,0.0,0.0,0.0,0.0,0.0,0.0,0.0,0.0,0.0,0.0,0.0,0.0,0.0,0.0,0.0,0.0,0.0,0.0,-1.1229,-1.1247,-1.1247,-1.115,-1.1135,-1.1135,-1.149,-1.1609,-1.1609,-1.144,-1.1174,-1.085,-1.0683,-1.0425,-1.0137,-1.0025,-1.0025,-0.9959,-0.9493,-0.9601,0.0,0.0,-0.9257,-0.9697,-0.9138,-0.8957,-0.9013,-0.9715,-0.9721,-0.9473,-0.9586,-1.018,-1.0673,-1.0396,-1.0882,-1.1558,-1.1709,-1.1914,-1.2155,-1.2451,-1.2506,-1.2524,-1.2668,-1.2705,-1.2705,-1.2705,-1.2705,-1.2705,-1.2705,-1.2928,-1.3169,-1.3314,-1.3652,-1.3954,-1.4099,-1.422,-1.4298,-1.4298,-1.4298,-1.4497,-1.504,-1.5107,-1.5312,-1.5837,-1.5994,-1.6175,-1.6447,-1.6465,-1.6652,-1.7068,-1.7201,-1.7328,-1.7479,-1.7485,-1.7485,-1.7485,-1.7485,-1.7485,-1.7485,-1.7485,-1.7485,-1.7485,-1.7485,-1.7545,-1.7654,-1.7654,-1.772,-1.7841,-1.7841,-1.7925,-1.8058,-1.8058,-1.8155,-1.8294,-1.8294,-1.8294,-1.8312,0.0,0.0,0.0,0.0,0.0,0.0,0.0,0.0,0.0,0.0,0.0,-0.9198,-0.9244,-0.9529,0.0,0.0,0.0,0.0,0.0,0.0,-1.1407,-1.1407,-1.1792,-1.1994,-1.1994,-1.2388,-1.2632,-1.2632,-1.2217,-1.199,-1.1881,-1.1209,-1.0811,-1.0755,-1.0643,-1.0595,-1.0595,-1.0102,-1.0437,-1.1152,-0.9621,-0.9486,-1.0174,0.0,-0.8679,-0.8732,-0.9354,-0.9731,-0.9877,-0.9342,-0.9673,-1.0284,-1.0321,-1.0834,-1.1437,-1.151,-1.1878,-1.227,-1.23,-1.2506,-1.2705,-1.2705,-1.2705,-1.2705,-1.2705,-1.2705,-1.2693,-1.2656,-1.2843,-1.3025,-1.3061,-1.3441,-1.3785,-1.3888,-1.4099,-1.4256,-1.4292,-1.4298,-1.4497,-1.504,-1.5107,-1.5312,-1.5837,-1.6127,-1.6398,-1.6676,-1.673,-1.6869,-1.7129,-1.7358,-1.7485,-1.7485,-1.7485,-1.7485,-1.7485,-1.7485,-1.7485,-1.7485,-1.7485,-1.7503,-1.7533,-1.7533,-1.7678,-1.7925,-1.7925,-1.807,-1.8294,-1.8294,-1.8312,-1.8348,-1.8348,-1.8366,-1.8396,-1.8396,-1.8396,-1.8432,0.0,0.0,0.0,0.0,0.0,0.0,0.0,0.0,0.0,0.0,-0.998,-0.9732,0.0,0.0,0.0,0.0,0.0,0.0,0.0,0.0,0.0,-1.1012,-1.137,-1.159,-1.159,-1.1975,-1.2177,-1.2177,-1.2141,-1.1873,-1.1413,-1.1302,-1.0924,-1.0441,-0.988,-0.9624,-0.9624,-0.9418,-0.9491,-0.9769,-0.9903,-0.9872,-0.9731,-0.9506,-0.9159,0.0,-0.9256,-0.9542,-0.9681,-0.9697,-0.9837,-1.0043,-1.026,-1.0574,-1.0948,-1.1401,-1.1751,-1.2035,-1.2252,-1.2506,-1.2705,-1.2705,-1.2705,-1.2705,-1.2705,-1.2705,-1.2644,-1.2427,-1.2421,-1.2524,-1.2735,-1.285,-1.3127,-1.3797,-1.3948,-1.4051,-1.4268,-1.4298,-1.4497,-1.504,-1.5107,-1.5312,-1.5837,-1.6127,-1.6398,-1.6676,-1.6905,-1.7135,-1.74,-1.7455,-1.7485,-1.7485,-1.7485,-1.7485,-1.7485,-1.7485,-1.7485,-1.7485,-1.7485,-1.7599,-1.7805,-1.7805,-1.7956,-1.8221,-1.8221,-1.8251,-1.8294,-1.8294,-1.842,-1.8613,-1.8613,-1.8752,-1.8939,-1.8939,-1.8939,-1.8945,0.0,0.0,0.0,0.0,0.0,0.0,0.0,-1.0487,-1.0689,-1.0873,-1.057,-1.0413,-1.0597,-1.0266,-1.01,0.0,0.0,0.0,0.0,0.0,0.0,-1.0597,-1.0984,-1.1205,-1.1205,-1.1389,-1.149,-1.149,0.0,-1.1349,-1.1104,-1.1104,-1.1068,-1.0951,-1.0165,-0.9945,-1.0061,-0.9289,-0.9116,-0.9411,-0.9362,-0.9362,-0.9362,-0.9173,-0.9034,0.0,-0.8992,-0.9447,-1.0024,-0.9559,-0.9685,-1.0059,-1.0226,-1.0508,-1.0828,-1.1371,-1.1715,-1.198,-1.224,-1.2506,-1.2705,-1.2705,-1.2705,-1.2668,-1.253,-1.2499,-1.2427,-1.2161,-1.2113,-1.2149,-1.2276,-1.2524,-1.2831,-1.3218,-1.3634,-1.3948,-1.4075,-1.4214,-1.4497,-1.504,-1.5107,-1.5312,-1.5837,-1.626,-1.6555,-1.6688,-1.7068,-1.7346,-1.7473,-1.7485,-1.7485,-1.7485,-1.7485,-1.7485,-1.7485,-1.7485,-1.7551,-1.7684,-1.7684,-1.7829,-1.8094,-1.8094,-1.8239,-1.8499,-1.8499,-1.8571,-1.8704,-1.8704,-1.8776,-1.8885,-1.8885,-1.8963,-1.9078,-1.9078,-1.9078,-1.9078,0.0,0.0,0.0,0.0,0.0,0.0,0.0,-1.0781,-1.1067,-1.115,-1.1168,-1.1168,-1.1168,-1.0726,-1.0441,0.0,0.0,0.0,0.0,0.0,0.0,0.0,0.0,0.0,-1.0772,0.0,0.0,-1.0901,-1.0901,0.0,0.0,0.0,0.0,0.0,-1.0532,-1.0329,-1.0557,-0.9462,-0.9205,0.0,0.0,-0.9213,-0.9313,0.0,0.0,0.0,0.0,-0.9496,-1.007,-0.9402,-0.9525,-0.9977,-1.0257,-1.0493,-1.0743,-1.128,-1.163,-1.1884,-1.2089,-1.2337,-1.2536,-1.2536,-1.2536,-1.2481,-1.2276,-1.2228,-1.2155,-1.189,-1.1836,-1.1836,-1.1836,-1.2174,-1.2506,-1.2681,-1.3284,-1.3779,-1.3888,-1.4129,-1.4497,-1.504,-1.5107,-1.5312,-1.5837,-1.638,-1.67,-1.67,-1.7189,-1.7485,-1.7485,-1.7485,-1.7485,-1.7485,-1.7485,-1.7485,-1.7485,-1.7539,-1.7666,-1.7871,-1.7937,-1.8112,-1.8378,-1.8378,-1.8523,-1.877,-1.877,-1.8885,-1.9078,-1.9078,-1.9078,-1.9078,-1.9078,-1.9078,-1.9078,-1.9078,-1.9078,-1.9078,0.0,0.0,0.0,0.0,0.0,0.0,0.0,-1.1205,-1.1563,-1.192,-1.2015,-1.2015,-1.2015,-1.1315,-1.0846,0.0,0.0,0.0,0.0,0.0,0.0,0.0,0.0,0.0,0.0,0.0,0.0,-1.0901,-1.0901,0.0,0.0,0.0,0.0,0.0,0.0,-1.0047,-1.008,-0.9947,0.0,0.0,0.0,0.0,0.0,0.0,0.0,0.0,0.0,-0.9621,-0.8864,-0.9487,-0.9452,-0.9266,-1.0101,-1.035,-1.0472,-1.0997,-1.1347,-1.1576,-1.1594,-1.1793,-1.1992,-1.1992,-1.1992,-1.1986,-1.1962,-1.1956,-1.1884,-1.1624,-1.157,-1.157,-1.157,-1.1606,-1.1872,-1.2584,-1.2982,-1.3363,-1.3839,-1.4129,-1.4497,-1.504,-1.5107,-1.5312,-1.5837,-1.638,-1.67,-1.67,-1.7189,-1.7485,-1.7485,-1.7485,-1.7485,-1.7485,-1.7485,-1.7485,-1.7485,-1.7714,-1.7853,-1.7877,-1.8131,-1.8396,-1.865,-1.865,-1.8794,-1.9042,-1.9042,-1.9054,-1.9078,-1.9078,-1.9078,-1.9078,-1.9078,-1.9078,-1.9078,-1.9078,-1.9078,-1.9078,0.0,0.0,0.0,0.0,0.0,0.0,-1.0883,-1.1463,-1.1902,-1.2058,-1.2076,-1.2076,-1.2076,-1.1831,-1.1444,-1.0947,0.0,0.0,0.0,0.0,0.0,0.0,0.0,0.0,0.0,0.0,-1.0192,-1.0192,-1.0192,0.0,0.0,0.0,0.0,0.0,0.0,-0.9538,-0.9725,-0.9203,0.0,0.0,0.0,0.0,0.0,0.0,0.0,0.0,0.0,0.0,-0.965,-0.9398,-0.9482,-0.978,-1.0059,-1.039,-1.0709,-1.1181,-1.1386,-1.1534,-1.1534,-1.1721,-1.192,-1.192,-1.192,-1.1836,-1.151,-1.1437,-1.1317,-1.0894,-1.081,-1.081,-1.081,-1.1063,-1.1437,-1.192,-1.2632,-1.3254,-1.3622,-1.4032,-1.4497,-1.504,-1.5107,-1.5312,-1.5837,-1.638,-1.6833,-1.7147,-1.7364,-1.7485,-1.7485,-1.7485,-1.7485,-1.7485,-1.7485,-1.7557,-1.7714,-1.7823,-1.804,-1.8366,-1.8475,-1.8668,-1.8921,-1.8921,-1.8976,-1.9078,-1.9078,-1.9078,-1.9078,-1.9078,-1.9078,-1.9078,-1.9078,-1.9078,-1.9078,-1.9078,-1.9078,-1.9078,0.0,0.0,0.0,0.0,0.0,-1.0901,-1.0901,-1.1601,-1.2076,-1.2076,-1.2076,-1.2076,-1.2076,-1.2076,-1.1794,-1.0975,-1.0652,0.0,0.0,0.0,0.0,0.0,0.0,0.0,0.0,0.0,-0.9683,-0.9683,-0.9683,-0.9683,0.0,0.0,-0.983,-1.0086,0.0,0.0,0.0,0.0,0.0,0.0,0.0,0.0,0.0,0.0,0.0,0.0,0.0,0.0,0.0,0.0,0.0,-0.9863,-0.9988,-1.0315,-1.0691,-1.1178,-1.134,-1.1484,-1.1407,-1.154,-1.1685,-1.1685,-1.1624,-1.1467,-1.1081,-1.0936,-1.0773,-1.0405,-1.0327,-1.0327,-1.0327,-1.0695,-1.1111,-1.1473,-1.2355,-1.3121,-1.3465,-1.3966,-1.4497,-1.504,-1.5107,-1.5312,-1.5837,-1.638,-1.6917,-1.7443,-1.7485,-1.7485,-1.7485,-1.7485,-1.7485,-1.7485,-1.7557,-1.769,-1.7871,-1.8034,-1.8306,-1.8686,-1.8764,-1.8897,-1.9078,-1.9078,-1.9078,-1.9078,-1.9078,-1.9078,-1.9078,-1.9078,-1.9078,-1.9078,-1.9078,-1.9078,-1.9078,-1.9078,-1.9078,-1.9078,0.0,0.0,0.0,0.0,0.0,0.0,-1.0901,-1.1601,-1.2076,-1.2076,-1.2076,-1.2076,-1.2076,-1.2076,-1.1794,-1.0975,-1.0901,0.0,0.0,0.0,0.0,0.0,0.0,0.0,0.0,0.0,-0.9683,-0.9683,-0.9683,-0.9683,-0.9683,-0.9683,-0.9683,-0.9692,0.0,0.0,0.0,0.0,0.0,0.0,0.0,0.0,0.0,0.0,0.0,0.0,0.0,0.0,0.0,0.0,0.0,0.0,0.0,-1.0079,-1.0154,-1.0847,-1.1199,-1.1341,-1.1192,-1.1117,-1.1123,-1.1123,-1.0924,-1.0731,-1.0725,-1.0526,-1.0339,-1.0327,-1.0327,-1.0327,-1.0327,-1.0544,-1.09,-1.1443,-1.2192,-1.2898,-1.3441,-1.3966,-1.4497,-1.504,-1.5107,-1.5312,-1.5837,-1.638,-1.6917,-1.7443,-1.7485,-1.7485,-1.7485,-1.7485,-1.7485,-1.7485,-1.7732,-1.7871,-1.7871,-1.8408,-1.868,-1.8686,-1.8945,-1.9072,-1.9078,-1.9078,-1.9078,-1.9078,-1.9078,-1.9078,-1.9078,-1.9078,-1.9078,-1.9078,-1.9078,-1.9078,-1.9078,-1.9078,-1.9078,-1.9078,0.0,0.0,0.0,0.0,0.0,0.0,0.0,-1.1601,-1.2076,-1.2076,-1.2076,-1.2076,-1.2076,-1.1838,-1.1499,-1.0947,-1.0901,0.0,0.0,0.0,0.0,0.0,0.0,0.0,0.0,-1.0128,-1.0257,-1.0524,-1.0524,-1.0524,-1.0524,-1.0524,-1.0524,-1.0514,-1.0247,-1.0128,0.0,0.0,0.0,0.0,0.0,0.0,-0.9404,0.0,0.0,0.0,0.0,0.0,0.0,0.0,0.0,0.0,0.0,0.0,0.0,-1.0496,-1.0912,-1.1282,-1.1064,-1.1193,-1.1218,-1.0888,-1.0779,-1.0622,-1.0266,-1.0121,-0.9946,-0.9766,-0.973,-0.973,-0.973,-1.0089,-1.0628,-1.1178,-1.2077,-1.2898,-1.3435,-1.3966,-1.4497,-1.504,-1.5421,-1.5855,-1.6392,-1.6598,-1.6917,-1.7443,-1.7485,-1.7485,-1.7485,-1.7485,-1.7485,-1.7485,-1.7738,-1.7968,-1.8161,-1.8511,-1.8776,-1.8951,-1.9036,-1.9078,-1.9078,-1.9078,-1.9078,-1.9078,-1.9078,-1.9078,-1.9078,-1.9078,-1.9078,-1.9078,-1.9078,-1.9078,-1.9078,-1.9078,-1.9078,-1.9078,0.0,0.0,0.0,0.0,0.0,0.0,0.0,-1.1242,-1.1665,-1.1665,-1.1665,-1.1665,-1.1665,-1.1444,-1.1131,-1.0717,-1.068,0.0,0.0,0.0,0.0,0.0,0.0,0.0,-1.0303,-1.0459,-1.0652,-1.0901,-1.0901,-1.0901,-1.0901,-1.0901,-1.0901,-1.0892,-1.0643,-1.045,0.0,0.0,0.0,0.0,0.0,0.0,-0.8886,0.0,0.0,0.0,0.0,0.0,0.0,0.0,0.0,0.0,0.0,0.0,0.0,0.0,-1.0594,-1.1011,-1.0936,-1.1047,-1.1062,-1.0753,-1.0566,-1.0408,-1.0013,-0.9796,-0.9682,-0.9514,-0.9484,-0.9514,-0.961,-1.0054,-1.0653,-1.1127,-1.2174,-1.3012,-1.3453,-1.3966,-1.4497,-1.504,-1.5656,-1.6211,-1.6658,-1.6791,-1.7026,-1.7449,-1.7485,-1.7485,-1.7485,-1.7485,-1.7527,-1.7624,-1.7889,-1.8167,-1.8438,-1.8704,-1.8915,-1.9078,-1.9078,-1.9078,-1.9078,-1.9078,-1.9078,-1.9078,-1.9078,-1.9078,0.0,-1.9078,-1.9078,-1.9078,-1.9078,-1.9078,-1.9078,-1.9078,-1.9078,-1.9078,0.0,0.0,0.0,0.0,0.0,0.0,0.0,-1.0652,-1.0901,-1.0901,-1.0901,-1.0901,-1.0901,-1.0873,-1.0717,-1.0349,0.0,0.0,0.0,0.0,0.0,0.0,0.0,0.0,-1.0358,-1.0745,-1.0965,-1.0993,-1.0993,-1.0993,-1.0993,-1.0993,-1.0993,-1.0984,-1.0965,-1.0708,-1.0242,0.0,0.0,0.0,-0.8316,-0.8103,0.0,0.0,0.0,0.0,0.0,0.0,0.0,0.0,0.0,0.0,0.0,0.0,0.0,0.0,0.0,0.0,0.0,-1.076,-1.0798,-1.0579,-1.0387,-1.0134,-0.9916,-0.967,0.0,-0.9514,-0.9526,-0.961,-0.9856,-1.0393,-1.0924,-1.1449,-1.2427,-1.3218,-1.3477,-1.4002,-1.4558,-1.5101,-1.5825,-1.6398,-1.67,-1.6948,-1.7201,-1.7461,-1.7485,-1.7485,-1.7485,-1.7497,-1.763,-1.7895,-1.8173,-1.8438,-1.868,-1.8945,-1.9078,-1.9078,-1.9078,-1.9078,-1.9078,-1.9078,-1.9078,-1.9078,-1.9078,-1.9078,-1.9078,-1.9078,-1.9078,-1.9078,-1.9078,-1.9078,-1.9078,-1.9078,-1.9078,-1.9078,0.0,0.0,0.0,0.0,0.0,0.0,0.0,0.0,0.0,0.0,-1.0901,-1.0901,-1.0901,-1.0634,-1.0413,0.0,0.0,0.0,0.0,0.0,0.0,0.0,0.0,0.0,-1.0754,-1.1168,-1.1536,-1.184,-1.184,-1.184,-1.184,-1.184,-1.184,-1.1822,-1.1527,-1.0939,-1.0284,-0.9758,0.0,0.0,-0.861,-0.8439,0.0,0.0,0.0,0.0,-0.8691,-0.8875,0.0,0.0,0.0,0.0,0.0,0.0,0.0,0.0,-0.9653,-0.9967,-1.0203,0.0,-1.0891,-1.0417,-1.025,-1.0085,0.0,-0.9682,-0.9784,-0.9784,-0.994,-1.0164,-1.0155,-1.0665,-1.1135,-1.1479,-1.2427,-1.3218,-1.3477,-1.4322,-1.5113,-1.5644,-1.6048,-1.6471,-1.6954,-1.7056,-1.7201,-1.7461,-1.7485,-1.7485,-1.7485,-1.7672,-1.7907,-1.8185,-1.8456,-1.8625,-1.8686,-1.8945,-1.9078,-1.9078,-1.9078,-1.9078,-1.9078,-1.9078,-1.9078,-1.9078,-1.9078,-1.9078,-1.9078,-1.9078,-1.9078,-1.9078,-1.9078,-1.9078,-1.9078,-1.9078,-1.9078,-1.9078,0.0,0.0,0.0,0.0,0.0,0.0,0.0,0.0,0.0,0.0,0.0,-1.0358,0.0,0.0,0.0,0.0,0.0,0.0,0.0,0.0,0.0,0.0,0.0,-1.0772,-1.1186,-1.1553,-1.1957,-1.2393,-1.2393,-1.2494,-1.2635,-1.2434,-1.2393,-1.2374,-1.1746,-1.1177,-1.056,-1.0164,-0.9758,-0.9355,-0.8814,0.0,0.0,0.0,0.0,0.0,-0.8101,-0.8327,0.0,-0.9242,-0.9144,-0.891,0.0,0.0,0.0,0.0,-0.9352,-0.9573,-1.0,-1.0335,-1.0562,-1.0282,-1.0211,-1.0074,-0.986,-0.9838,-0.9904,-1.0091,-1.023,-1.0405,-1.0647,-1.1123,-1.1612,-1.2005,-1.2868,-1.3616,-1.4014,-1.4666,-1.5258,-1.5662,-1.6163,-1.6585,-1.6881,-1.7129,-1.7328,-1.7473,-1.7485,-1.7485,-1.7485,-1.7732,-1.8004,-1.8281,-1.8547,-1.874,-1.8861,-1.9006,-1.9078,-1.9078,-1.9078,-1.9078,-1.9078,-1.9078,-1.9078,-1.9078,-1.9078,-1.9078,-1.9078,-1.9078,-1.9078,-1.9078,-1.9078,-1.9078,-1.9078,-1.9078,-1.9078,-1.9072,0.0,0.0,0.0,0.0,0.0,0.0,0.0,0.0,0.0,0.0,0.0,0.0,0.0,0.0,0.0,0.0,0.0,0.0,0.0,0.0,0.0,0.0,-1.0726,-1.1104,-1.148,-1.1929,-1.2383,-1.2715,-1.2779,-1.2947,-1.3286,-1.2929,-1.2779,-1.2687,-1.1838,-1.1297,-1.0873,-1.0478,-0.9825,-0.9105,-0.8935,0.0,0.0,0.0,0.0,0.0,0.0,0.0,0.0,-0.8987,-0.9112,-0.891,-0.951,0.0,0.0,0.0,0.0,0.0,-0.9827,-1.002,-1.0065,-1.0229,-1.0117,-0.9995,-1.0145,-1.0031,-1.003,-1.0441,-1.0514,-1.0683,-1.125,-1.1733,-1.2204,-1.2693,-1.3441,-1.4153,-1.4702,-1.5004,-1.5294,-1.5644,-1.6284,-1.673,-1.6809,-1.7219,-1.7485,-1.7485,-1.7485,-1.7485,-1.7485,-1.7774,-1.8046,-1.8287,-1.8589,-1.8849,-1.9072,-1.9078,-1.9078,-1.9078,-1.9078,-1.9078,-1.9078,-1.9078,-1.9078,-1.9078,-1.9078,-1.9078,-1.9078,-1.9078,-1.9078,-1.9078,-1.9078,-1.9078,-1.9078,-1.9078,-1.9078,-1.8944,0.0,0.0,0.0,0.0,0.0,0.0,0.0,0.0,0.0,0.0,0.0,0.0,0.0,0.0,0.0,0.0,0.0,0.0,0.0,0.0,0.0,-1.0781,-1.0873,-1.1104,-1.148,-1.2254,-1.266,-1.2715,-1.302,-1.3231,-1.3296,-1.3231,-1.3011,-1.2687,-1.1838,-1.1297,-1.0873,-1.0478,-1.004,-0.9515,-0.8732,0.0,0.0,0.0,0.0,0.0,0.0,0.0,0.0,-0.941,-0.9401,-0.8956,-0.9969,0.0,0.0,0.0,0.0,0.0,-0.942,-0.9688,-0.9881,-0.9977,-0.9926,-0.9872,-0.9946,-1.0109,-1.0478,-1.1196,-1.1347,-1.1576,-1.2324,-1.253,-1.2687,-1.3006,-1.3719,-1.4425,-1.4974,-1.5276,-1.5704,-1.6429,-1.6628,-1.6875,-1.7322,-1.7436,-1.7485,-1.7485,-1.7485,-1.7485,-1.7485,-1.7956,-1.8251,-1.8294,-1.8764,-1.9036,-1.9078,-1.9078,-1.9078,-1.9078,-1.9078,-1.9078,-1.9078,-1.9078,-1.9078,-1.9078,-1.9078,-1.9078,-1.9078,-1.9078,-1.9078,-1.9078,-1.9078,-1.9078,-1.9078,-1.9078,-1.9078,-1.8944,0.0,0.0,0.0,0.0,0.0,0.0,0.0,0.0,0.0,0.0,0.0,0.0,0.0,0.0,0.0,0.0,0.0,0.0,0.0,0.0,-1.0072,-1.0873,-1.0901,-1.1205,-1.1792,-1.242,-1.2825,-1.3002,-1.3415,-1.3736,-1.3947,-1.3717,-1.3268,-1.2696,-1.2337,-1.1702,-1.0892,-1.0708,-1.0284,-0.9603,0.0,0.0,0.0,0.0,0.0,0.0,0.0,0.0,0.0,0.0,-0.9353,-0.9008,-1.0064,0.0,0.0,0.0,0.0,0.0,-0.9451,-0.9603,-0.9797,-1.0097,-1.0192,-1.035,-1.0637,-1.0742,-1.0942,-1.1606,-1.1854,-1.2107,-1.2614,-1.2946,-1.3278,-1.3688,-1.4189,-1.466,-1.5052,-1.533,-1.5741,-1.6398,-1.661,-1.6851,-1.7237,-1.74,-1.7485,-1.7485,-1.7485,-1.7485,-1.7485,-1.7998,-1.8294,-1.8294,-1.8801,-1.9078,-1.9078,-1.9078,-1.9078,-1.9078,-1.9078,-1.9078,-1.9078,-1.9078,-1.9078,-1.9078,-1.9078,-1.9078,-1.9078,-1.9078,-1.9078,-1.9078,-1.9078,-1.9078,-1.9072,-1.8285,-1.6985,-1.5554,0.0,0.0,0.0,0.0,0.0,0.0,0.0,0.0,0.0,0.0,0.0,0.0,0.0,0.0,0.0,0.0,0.0,0.0,0.0,0.0,-1.0072,-1.0873,-1.0901,-1.1288,-1.2058,-1.2614,-1.2965,-1.3296,-1.3791,-1.4194,-1.4506,-1.4084,-1.3497,-1.2862,-1.2761,-1.2098,-1.1048,-1.0947,-1.0496,-0.9771,0.0,0.0,0.0,0.0,0.0,0.0,0.0,0.0,0.0,0.0,0.0,0.0,0.0,0.0,0.0,-0.8891,-0.901,-0.9263,-0.9628,-0.9806,-0.9964,-1.0451,-1.0517,-1.0602,-1.1218,-1.1198,-1.1317,-1.2053,-1.2306,-1.2542,-1.2994,-1.3417,-1.3851,-1.4322,-1.463,-1.4902,-1.5161,-1.5481,-1.5855,-1.632,-1.6622,-1.6893,-1.7159,-1.7364,-1.7485,-1.7485,-1.7485,-1.7485,-1.7485,-1.7998,-1.8294,-1.8294,-1.8801,-1.9078,-1.9078,-1.9078,-1.9078,-1.9078,-1.9078,-1.9078,-1.9078,-1.9078,-1.9078,-1.9078,-1.9078,-1.9078,-1.9078,-1.9078,-1.9078,-1.9078,-1.9078,-1.8944,-1.8419,-1.7372,-1.5159,-1.2816,0.0,0.0,0.0,0.0,0.0,0.0,0.0,0.0,0.0,0.0,0.0,0.0,0.0,0.0,0.0,0.0,0.0,0.0,0.0,0.0,-1.0072,-1.0873,-1.0901,-1.1288,-1.2058,-1.2846,-1.3259,-1.3296,-1.4084,-1.4478,-1.4506,-1.4084,-1.3653,-1.3231,-1.289,-1.2264,-1.1416,-1.1076,-1.0652,-1.0196,-0.9284,0.0,0.0,0.0,0.0,0.0,0.0,0.0,0.0,0.0,0.0,0.0,0.0,0.0,-0.8858,-0.907,-0.9163,-0.9309,-0.9761,-1.0249,-1.067,-1.0885,-1.0447,-1.017,-1.0936,-1.1111,-1.1479,-1.2771,-1.2843,-1.2982,-1.3996,-1.4214,-1.434,-1.4636,-1.4908,-1.5167,-1.5433,-1.5903,-1.6338,-1.6634,-1.6905,-1.7165,-1.743,-1.7473,-1.7485,-1.7485,-1.7485,-1.7485,-1.7485,-1.7998,-1.8294,-1.8294,-1.8801,-1.9078,-1.9078,-1.9078,-1.9078,-1.9078,-1.9078,-1.9078,-1.9078,-1.9078,-1.9078,-1.9078,-1.9078,-1.9078,-1.9078,-1.9078,-1.9078,-1.9078,-1.9078,-1.8285,-1.7109,-1.698,-1.5159,-1.2816,0.0,0.0,0.0,0.0,0.0,0.0,0.0,0.0,0.0,0.0,0.0,0.0,0.0,0.0,0.0,0.0,0.0,0.0,0.0,-0.9953,-1.033,-1.0883,-1.1159,-1.1508,-1.2067,-1.2617,-1.303,-1.3296,-1.4112,-1.4515,-1.4506,-1.4084,-1.3671,-1.3277,-1.2908,-1.2223,-1.1462,-1.1085,-1.0671,-1.0233,-0.9334,-0.8895,0.0,0.0,0.0,0.0,0.0,0.0,0.0,0.0,-0.8808,-0.8877,-0.9477,-0.9256,-0.8864,-0.9097,-0.9372,-0.9588,-1.005,-1.0303,-1.0638,-1.1093,-1.1101,-1.1093,-1.1715,-1.1986,-1.23,-1.2982,-1.3296,-1.3676,-1.4425,-1.4558,-1.4648,-1.4914,-1.5179,-1.5445,-1.5704,-1.6054,-1.6447,-1.6893,-1.7032,-1.7195,-1.7455,-1.7485,-1.7485,-1.7485,-1.7485,-1.7485,-1.7485,-1.7998,-1.8294,-1.8294,-1.8801,-1.9078,-1.9078,-1.9078,-1.9078,-1.9078,-1.9078,-1.9078,-1.9078,-1.9078,-1.9078,-1.9078,-1.9078,-1.9078,-1.9078,-1.9078,-1.9078,-1.9072,-1.8156,-1.6985,-1.5554,-1.4772,-1.3206,-1.1508,0.0,0.0,0.0,0.0,0.0,0.0,0.0,0.0,0.0,0.0,0.0,0.0,0.0,0.0,0.0,0.0,0.0,0.0,-0.9683,-0.9971,-1.0358,-1.0883,-1.1177,-1.1535,-1.2067,-1.2393,-1.2745,-1.3296,-1.4112,-1.4515,-1.4506,-1.4084,-1.3671,-1.3277,-1.2908,-1.2296,-1.1636,-1.1131,-1.0745,-1.0407,-0.955,-0.9056,0.0,0.0,0.0,0.0,0.0,0.0,0.0,0.0,-0.8592,-0.8728,-0.906,-0.9017,-0.8884,-0.9265,-0.9469,-0.9715,-1.0255,-1.058,-1.0836,-1.1378,-1.1676,-1.2,-1.2445,-1.2711,-1.294,-1.3296,-1.3791,-1.4274,-1.4648,-1.4787,-1.4926,-1.5191,-1.5451,-1.5716,-1.5976,-1.6314,-1.6676,-1.7044,-1.7165,-1.7286,-1.7467,-1.7485,-1.7485,-1.7485,-1.7485,-1.7485,-1.7485,-1.7998,-1.8294,-1.8294,-1.8801,-1.9078,-1.9078,-1.9078,-1.9078,-1.9078,-1.9078,-1.9078,-1.9078,-1.9078,-1.9078,-1.9078,-1.9078,-1.9078,-1.9078,-1.9078,-1.881,-1.8291,-1.7372,-1.5809,-1.4124,-1.321,-1.1901,-1.0721,0.0,0.0,0.0,0.0,0.0,0.0,0.0,0.0,-0.9683,-0.9683,-0.9683,0.0,0.0,0.0,0.0,0.0,0.0,0.0,-0.9683,-0.9683,-1.0082,-1.0873,-1.091,-1.1288,-1.2058,-1.2076,-1.2479,-1.3296,-1.4112,-1.4515,-1.4497,-1.4075,-1.3671,-1.3268,-1.2846,-1.2494,-1.207,-1.1251,-1.0901,-1.0837,-1.0004,-0.9145,-0.8357,0.0,0.0,0.0,0.0,0.0,0.0,0.0,-0.849,-0.8072,-0.8889,-0.901,-0.8918,-0.9512,-0.957,-0.9577,-1.0432,-1.1011,-1.1361,-1.1707,-1.2172,-1.2714,-1.3006,-1.3127,-1.3278,-1.3803,-1.434,-1.4714,-1.4721,-1.4938,-1.5197,-1.5457,-1.5722,-1.5982,-1.6247,-1.6748,-1.7092,-1.7092,-1.7322,-1.7485,-1.7485,-1.7485,-1.7485,-1.7485,-1.7485,-1.7485,-1.7485,-1.7998,-1.8294,-1.8294,-1.8801,-1.9078,-1.9078,-1.9078,-1.9078,-1.9078,-1.9078,-1.9078,-1.9078,-1.9078,-1.9078,-1.9078,-1.9078,-1.9078,-1.9078,-1.9078,-1.8291,-1.698,-1.6974,-1.5289,-1.2816,-1.2816,-1.1897,-1.0721,0.0,0.0,0.0,0.0,0.0,0.0,0.0,0.0,-0.9683,-0.9683,-0.9683,0.0,0.0,0.0,0.0,0.0,0.0,0.0,-0.9683,-0.998,-1.0367,-1.0883,-1.1186,-1.1592,-1.2067,-1.2402,-1.2755,-1.3296,-1.4112,-1.4359,-1.4057,-1.3653,-1.325,-1.289,-1.2485,-1.2236,-1.207,-1.1251,-1.0901,-1.0783,-0.9656,-0.9226,-0.9226,0.0,0.0,0.0,0.0,0.0,0.0,0.0,0.0,0.0,-0.8241,-0.8405,-0.8657,-0.9452,-0.957,-0.9622,-1.0539,-1.0944,-1.1186,-1.1702,-1.2431,-1.3063,-1.332,-1.3399,-1.355,-1.4075,-1.4467,-1.4775,-1.4956,-1.5203,-1.5469,-1.5728,-1.5994,-1.626,-1.6537,-1.6875,-1.7159,-1.7346,-1.7436,-1.7485,-1.7485,-1.7485,-1.7485,-1.7485,-1.7485,-1.7485,-1.7485,-1.7998,-1.8294,-1.8294,-1.8801,-1.9078,-1.9078,-1.9078,-1.9078,-1.9078,-1.9078,-1.9078,-1.9078,-1.9078,-1.9078,-1.9078,-1.9078,-1.9078,-1.9078,-1.9078,-1.8816,-1.8291,-1.6338,-1.5038,-1.3993,-1.2029,-1.1115,-1.0721,0.0,0.0,0.0,0.0,0.0,0.0,-0.9683,-0.9683,-0.9683,-0.9683,-0.9683,-0.9658,0.0,0.0,0.0,-0.9474,-0.9474,-0.9538,-0.9674,-0.9944,-1.0257,-1.0652,-1.0866,-1.1269,-1.1828,-1.2429,-1.2844,-1.3039,-1.3708,-1.3901,-1.3644,-1.3231,-1.291,-1.2696,-1.23,-1.2076,-1.207,-1.1251,-1.0901,-1.0792,-0.9697,-0.9355,-0.9355,0.0,0.0,0.0,0.0,0.0,0.0,0.0,0.0,0.0,-0.7883,-0.8136,-0.855,-0.9369,-0.9453,-0.9522,-1.044,-1.0876,-1.1193,-1.1745,-1.253,-1.3218,-1.3586,-1.3749,-1.3948,-1.4377,-1.4684,-1.495,-1.5215,-1.5475,-1.5741,-1.6006,-1.6272,-1.6543,-1.6821,-1.708,-1.7304,-1.7461,-1.7485,-1.7485,-1.7485,-1.7485,-1.7485,-1.7485,-1.7485,-1.7485,-1.7485,-1.7998,-1.8294,-1.8294,-1.8801,-1.9078,-1.9078,-1.9078,-1.9078,-1.9078,-1.9078,-1.9078,-1.9078,-1.9078,-1.9078,-1.9078,-1.9078,-1.9078,-1.9072,-1.8547,-1.7899,-1.7249,-1.4907,-1.3731,-1.3079,-1.1376,-1.0721,-1.0721,0.0,0.0,0.0,0.0,0.0,0.0,-0.9612,-0.9612,-0.9612,-0.9612,-0.9612,-0.9465,0.0,0.0,0.0,-0.9032,-0.9069,-0.9253,-0.964,-0.9664,-0.9897,-1.0293,-1.0349,-1.0717,-1.1416,-1.2227,-1.2614,-1.2614,-1.3057,-1.3277,-1.3231,-1.2899,-1.2696,-1.265,-1.2232,-1.2076,-1.207,-1.1288,-1.0938,-1.0837,-1.004,-0.9421,-0.9065,-0.8975,0.0,0.0,0.0,0.0,0.0,0.0,0.0,0.0,-0.7822,-0.8116,-0.8504,-0.916,-0.9259,-0.9402,-1.0348,-1.082,-1.1214,-1.1781,-1.2548,-1.3296,-1.3821,-1.4129,-1.4377,-1.466,-1.4926,-1.5191,-1.5451,-1.5734,-1.6006,-1.6241,-1.6537,-1.6821,-1.7062,-1.7316,-1.7485,-1.7485,-1.7485,-1.7485,-1.7485,-1.7485,-1.7485,-1.7485,-1.7485,-1.7485,-1.7485,-1.7974,-1.8269,-1.8294,-1.8776,-1.9054,-1.9078,-1.9078,-1.9078,-1.9078,-1.9078,-1.9078,-1.9078,-1.9078,-1.9078,-1.9078,-1.9078,-1.9078,-1.8944,-1.763,-1.6203,-1.4907,-1.3337,-1.2033,-1.085,-1.0721,-1.0721,-1.0721,0.0,0.0,0.0,0.0,0.0,0.0,-0.8756,-0.8756,-0.8756,-0.8756,-0.8756,-0.8728,-0.8636,-0.8627,0.0,-0.8627,-0.8912,-0.9124,-0.9225,-0.9538,-0.9897,-1.0293,-1.0606,-1.0855,-1.1039,-1.1536,-1.1737,-1.1737,-1.2782,-1.3131,-1.2853,-1.2761,-1.2549,-1.2254,-1.2162,-1.2076,-1.2098,-1.1563,-1.1205,-1.082,-0.9984,-0.9571,-0.9475,-0.8732,-0.8602,0.0,0.0,0.0,0.0,0.0,0.0,0.0,-0.7716,-0.7928,-0.8154,-0.8867,-0.9163,-0.9358,-1.0118,-1.0545,-1.0985,-1.1733,-1.2681,-1.3568,-1.4093,-1.4256,-1.4377,-1.466,-1.4926,-1.5191,-1.5451,-1.5879,-1.6217,-1.6272,-1.6688,-1.7026,-1.7086,-1.7316,-1.7485,-1.7485,-1.7485,-1.7485,-1.7485,-1.7485,-1.7485,-1.7485,-1.7485,-1.7485,-1.7485,-1.7787,-1.8064,-1.8287,-1.8601,-1.8867,-1.9072,-1.9078,-1.9078,-1.9078,-1.9078,-1.9078,-1.9078,-1.9078,-1.9078,-1.9078,-1.9078,-1.9078,-1.8944,-1.763,-1.6845,-1.6328,-1.3726,-1.2553,-1.2161,-1.1111,-1.0721,-1.0721,0.0,0.0,0.0,0.0,0.0,0.0,0.0,0.0,-0.8498,-0.8498,-0.8498,-0.8424,-0.8188,-0.817,0.0,0.0,-0.8362,-0.8647,-0.906,-0.9299,-0.9603,-1.0008,-1.0413,-1.0616,-1.0616,-1.1177,-1.1489,-1.1489,-1.2305,-1.2599,-1.2429,-1.2429,-1.2328,-1.2076,-1.2076,-1.2076,-1.2049,-1.1654,-1.1361,-1.1122,-1.048,-1.0009,-0.9579,-0.9106,-0.8799,-0.861,-0.8185,0.0,0.0,0.0,0.0,0.0,0.0,0.0,-0.8054,-0.8708,-0.9055,-0.9345,-0.9919,-1.039,-1.0972,-1.2035,-1.291,-1.3622,-1.402,-1.4208,-1.4413,-1.4823,-1.501,-1.5228,-1.5614,-1.6012,-1.6326,-1.6459,-1.6827,-1.7135,-1.7261,-1.74,-1.7485,-1.7485,-1.7485,-1.7485,-1.7485,-1.7485,-1.7485,-1.7485,-1.7485,-1.7485,-1.7485,-1.7732,-1.7943,-1.8088,-1.8354,-1.8625,-1.8885,-1.8891,-1.8951,-1.9078,-1.9078,-1.9078,-1.9078,-1.9078,-1.9078,-1.9078,-1.9078,-1.9078,-1.8944,-1.6856,-1.5944,-1.5684,-1.2943,-1.1769,-1.1769,-1.0982,-1.0721,-1.0721,0.0,0.0,0.0,0.0,0.0,0.0,0.0,0.0,0.0,-0.8286,-0.8286,-0.8124,-0.7753,-0.7684,-0.7684,0.0,0.0,0.0,-0.8766,-0.8867,-0.9068,-0.9376,-0.9848,-1.01,-1.01,-1.0857,-1.1278,-1.1278,-1.1746,-1.1975,-1.1975,-1.2098,-1.2076,-1.2076,-1.2076,-1.2076,-1.2058,-1.1728,-1.1553,-1.1453,-1.1058,-1.0357,-0.9666,-0.9493,-0.8958,-0.8288,-0.79,-0.7723,-0.7674,-0.7242,0.0,0.0,0.0,0.0,-0.7993,-0.859,-0.8953,-0.9326,-0.9673,-1.0351,-1.1202,-1.2349,-1.3115,-1.364,-1.3857,-1.4111,-1.4455,-1.4992,-1.5107,-1.527,-1.5795,-1.6145,-1.6429,-1.6664,-1.696,-1.7237,-1.7455,-1.7485,-1.7485,-1.7485,-1.7485,-1.7485,-1.7485,-1.7485,-1.7485,-1.7485,-1.7485,-1.7485,-1.7485,-1.769,-1.7829,-1.7871,-1.81,-1.8348,-1.8613,-1.8613,-1.8752,-1.9006,-1.9054,-1.9078,-1.9072,-1.8816,-1.881,-1.9078,-1.8553,-1.8553,-1.8547,-1.5689,-1.4516,-1.4254,-1.1637,-1.0721,-1.0721,-1.0721,-1.0721,-1.0721,0.0,0.0,0.0,0.0,0.0,0.0,0.0,0.0,0.0,0.0,-0.736,-0.7342,-0.7287,-0.7278,-0.7278,-0.7278,-0.7386,-0.7503,-0.7608,0.0,0.0,-0.821,-0.8884,-0.9253,-0.9253,-1.0054,-1.0478,-1.0478,-1.1196,-1.1572,-1.1572,-1.192,-1.2076,-1.2076,-1.2076,-1.2076,-1.2126,-1.2021,-1.1801,-1.1433,-1.0927,-1.0423,-0.9863,-0.9059,-0.8675,-0.85,-0.8043,-0.7856,-0.7809,-0.7547,-0.7453,0.0,0.0,0.0,-0.7953,-0.8358,-0.8912,-0.9349,-0.9205,-1.0472,-1.186,-1.2264,-1.3115,-1.3863,-1.39,-1.4111,-1.4455,-1.4992,-1.5107,-1.527,-1.5795,-1.6302,-1.6658,-1.6694,-1.7111,-1.7443,-1.7473,-1.7485,-1.7485,-1.7485,-1.7485,-1.7485,-1.7485,-1.7485,-1.7485,-1.7485,-1.7485,-1.7485,-1.7485,-1.7515,-1.7642,-1.7865,-1.7907,-1.8064,-1.8342,-1.8348,-1.8475,-1.874,-1.8969,-1.9078,-1.9072,-1.7893,-1.7893,-1.8944,-1.6473,-1.6208,-1.7109,-1.425,-1.3079,-1.2947,-1.1376,-1.0721,-1.0721,-1.0721,-1.0721,-1.0721,0.0,0.0,0.0,0.0,0.0,0.0,0.0,0.0,0.0,0.0,0.0,-0.7287,-0.7515,-0.7333,-0.7136,-0.6987,-0.7024,-0.7089,-0.7115,-0.7491,-0.7727,-0.7727,-0.8219,-0.8603,-0.8836,-0.9558,-1.005,-1.0312,-1.0892,-1.1177,-1.1141,-1.1064,-1.1435,-1.2076,-1.1778,-1.1828,-1.2076,-1.1778,-1.1531,-1.1323,-1.0698,-1.0043,-0.9398,-0.8919,-0.8434,-0.8051,-0.7868,-0.7828,-0.7862,-0.7776,-0.7729,-0.7776,-0.8083,0.0,0.0,0.0,-0.8709,-0.9138,-0.9574,-1.0759,-1.1842,-1.2029,-1.2898,-1.3688,-1.3688,-1.4002,-1.4413,-1.4811,-1.501,-1.527,-1.5795,-1.6205,-1.6519,-1.6676,-1.7014,-1.7316,-1.7461,-1.7485,-1.7485,-1.7485,-1.7485,-1.7485,-1.7485,-1.7485,-1.7485,-1.7485,-1.7485,-1.7485,-1.7485,-1.7485,-1.7533,-1.7654,-1.7654,-1.7787,-1.8052,-1.8058,-1.8269,-1.8686,-1.8801,-1.8933,-1.9072,-1.763,-1.7765,-1.8944,-1.6078,-1.5684,-1.6716,-1.3988,-1.2816,-1.2684,-1.1244,-1.0721,-1.0721,-1.0721,-1.0721,-1.0721,0.0,0.0,0.0,0.0,0.0,0.0,0.0,0.0,0.0,0.0,0.0,-0.7656,-0.7945,0.0,0.0,0.0,-0.7029,-0.6819,-0.661,-0.6875,-0.7073,-0.7073,-0.7473,-0.7912,-0.8286,-0.9032,-0.9594,-1.0008,-1.0505,-1.071,-1.0569,-1.0167,-1.0522,-1.1474,-1.1286,-1.137,-1.1724,-1.1434,-1.1217,-1.1006,-1.0277,-0.9621,-0.9062,-0.8804,-0.8367,-0.7892,-0.7892,-0.7941,-0.8088,-0.796,-0.7988,-0.8083,-0.8247,-0.8206,0.0,0.0,0.0,-0.896,-0.981,-1.0775,-1.1655,-1.1903,-1.2674,-1.3447,-1.3586,-1.3918,-1.4298,-1.4648,-1.4871,-1.5167,-1.5692,-1.606,-1.6374,-1.6658,-1.6923,-1.7183,-1.7449,-1.7485,-1.7485,-1.7485,-1.7485,-1.7485,-1.7485,-1.7485,-1.7485,-1.7485,-1.7485,-1.7485,-1.7485,-1.7485,-1.7485,-1.7485,-1.7485,-1.7575,-1.7774,-1.7841,-1.8076,-1.8481,-1.8292,-1.8207,-1.8453,-1.7022,-1.7055,-1.7899,-1.5429,-1.5163,-1.6203,-1.3468,-1.2293,-1.2161,-1.1111,-1.0721,-1.0721,-1.0721,-1.0721,-1.0721,0.0,0.0,0.0,0.0,0.0,0.0,0.0,0.0,0.0,0.0,0.0,-0.8443,-0.8461,-0.8452,-0.8434,-0.8399,-0.7712,-0.6838,-0.5828,-0.5823,-0.5894,-0.5894,-0.6576,0.0,-0.7455,-0.8262,-0.8805,-0.9152,-0.9953,-1.0119,-0.9649,-0.951,-0.9552,-0.9785,-1.0518,-1.0824,-1.0785,-1.1163,-1.0947,-1.0364,-0.9718,-0.9399,-0.9287,-0.8659,-0.8396,-0.8383,-0.8383,-0.8429,-0.8541,-0.8208,-0.8237,-0.835,-0.8193,-0.8093,-0.8094,0.0,0.0,0.0,-0.9775,-1.0498,-1.1114,-1.1969,-1.262,-1.3272,-1.3773,-1.3906,-1.4081,-1.4606,-1.4727,-1.4896,-1.5421,-1.5934,-1.6374,-1.6658,-1.6923,-1.7183,-1.7449,-1.7485,-1.7485,-1.7485,-1.7485,-1.7485,-1.7485,-1.7485,-1.7485,-1.7485,-1.7485,-1.7485,-1.7485,-1.7485,-1.7485,-1.7485,-1.7485,-1.7491,-1.7503,-1.775,-1.7883,-1.7919,-1.6926,-1.6539,-1.6651,-1.5371,-1.4976,-1.5038,-1.36,-1.3731,-1.4777,-1.2033,-1.085,-1.0853,-1.0721,-1.0721,-1.0721,-1.0721,-1.0721,-1.0721,0.0,0.0,0.0,0.0,0.0,0.0,0.0,0.0,0.0,0.0,0.0,0.0,0.0,-0.8645,-0.8419,-0.8201,-0.7736,-0.708,-0.6202,-0.6172,-0.5992,-0.5512,-0.6143,-0.6594,-0.6751,-0.7458,-0.7998,-0.8312,-0.8621,-0.8763,-0.8757,-0.8446,-0.8458,-0.8805,-0.9471,-0.9963,-1.027,-1.0237,-1.0072,-0.9814,-0.904,-0.8844,-0.8956,-0.8526,-0.8528,-0.8789,-0.8789,-0.8852,-0.8927,-0.8632,-0.859,-0.8618,-0.8377,-0.8215,-0.8189,-0.819,-0.8524,-0.9003,-0.9602,-1.0265,-1.0978,-1.1564,-1.2306,-1.2904,-1.3091,-1.3538,-1.396,-1.4153,-1.4473,-1.4775,-1.4962,-1.5421,-1.5922,-1.6362,-1.6513,-1.6724,-1.7171,-1.7231,-1.7292,-1.7461,-1.7485,-1.7485,-1.7485,-1.7485,-1.7485,-1.7485,-1.7485,-1.7485,-1.7485,-1.7485,-1.7485,-1.7485,-1.7485,-1.7485,-1.7485,-1.7575,-1.7708,-1.7871,-1.7478,-1.7122,-1.663,-1.6118,-1.5608,-1.4777,-1.3468,-1.3079,-1.3341,-1.1508,-1.0721,-1.0721,-1.0721,-1.0721,-1.0721,-1.0721,-1.0721,-1.0721,0.0,0.0,0.0,0.0,0.0,0.0,0.0,0.0,-0.9004,-0.9271,0.0,0.0,0.0,0.0,-0.8447,-0.7957,-0.7613,-0.7108,-0.6396,-0.6239,-0.5911,-0.5322,-0.5718,-0.6033,-0.6186,-0.6762,-0.7277,-0.7717,-0.7829,-0.7953,-0.8103,-0.7765,-0.7724,-0.79,-0.8457,-0.9026,-0.9531,-0.9584,-0.951,-0.9271,-0.8738,-0.8616,-0.88,-0.8655,-0.8774,-0.9045,-0.9045,-0.9116,-0.9204,-0.8966,-0.8871,-0.8883,-0.8549,-0.8344,-0.8221,-0.8221,-0.8514,-0.8948,-0.9466,-0.9971,-1.0596,-1.1297,-1.1884,-1.2403,-1.2759,-1.326,-1.3694,-1.387,-1.4195,-1.4497,-1.4684,-1.4998,-1.5439,-1.6048,-1.6223,-1.6441,-1.6893,-1.696,-1.7062,-1.7322,-1.7352,-1.7382,-1.7473,-1.7485,-1.7485,-1.7485,-1.7485,-1.7485,-1.7485,-1.7485,-1.7485,-1.7485,-1.7485,-1.7485,-1.7485,-1.7485,-1.7569,-1.7744,-1.7375,-1.6624,-1.5763,-1.5841,-1.4983,-1.3379,-1.2923,-1.2816,-1.2684,-1.1244,-1.0721,-1.0721,-1.0721,-1.0721,-1.0721,-1.0721,-1.0721,-1.0721,0.0,0.0,0.0,0.0,0.0,0.0,0.0,0.0,-0.9701,-0.971,0.0,0.0,0.0,0.0,0.0,-0.7821,-0.7492,-0.702,-0.626,-0.5934,-0.5605,-0.5336,-0.5322,-0.548,-0.578,-0.6178,-0.6662,-0.7249,-0.7656,-0.7772,-0.7668,-0.7543,-0.7301,-0.7005,-0.7504,-0.8051,-0.862,-0.93,-0.9271,-0.8791,-0.879,-0.8794,-0.8877,-0.9065,-0.915,-0.9162,-0.9162,-0.9235,-0.9395,-0.9104,-0.9128,-0.9136,-0.8727,-0.8452,-0.8234,-0.8234,-0.8374,-0.8757,0.0,0.0,0.0,-1.1266,-1.1526,-1.1793,-1.2837,-1.3097,-1.326,-1.3773,-1.3894,-1.4069,-1.46,-1.4708,-1.4968,-1.5728,-1.6085,-1.6356,-1.6634,-1.6682,-1.6785,-1.705,-1.708,-1.7183,-1.7449,-1.7473,-1.7473,-1.7485,-1.7485,-1.7485,-1.7485,-1.7485,-1.7485,-1.7485,-1.7485,-1.7485,-1.7485,-1.7485,-1.7485,-1.7479,-1.6172,-1.497,-1.3967,-1.4185,-1.2881,-1.063,-1.2088,-1.2684,-1.2684,-1.1244,-1.0721,-1.0721,-1.0721,-1.0721,-1.0721,-1.0721,-1.0721,-1.0721,0.0,0.0,0.0,0.0,0.0,-0.9686,-1.0091,-1.0146,-1.0257,0.0,0.0,0.0,-1.0397,-0.9996,-0.9527,-0.913,-0.8643,-0.8005,-0.7073,-0.6919,-0.6484,-0.5611,-0.5825,-0.5786,-0.5442,-0.5773,-0.6033,-0.6138,-0.6258,-0.6465,-0.6754,-0.6827,-0.6868,-0.6934,-0.7564,-0.7923,-0.8153,-0.8755,-0.9031,-0.907,-0.8867,-0.915,-0.9655,-0.9436,-0.9604,-1.0001,-1.0001,-1.0001,-1.0031,-0.9764,-0.9545,-0.9308,-0.8834,-0.867,-0.8618,-0.8508,-0.8587,-0.8778,-0.9043,0.0,0.0,0.0,0.0,0.0,-1.186,-1.2415,-1.2916,-1.3266,-1.364,-1.3954,-1.4105,-1.4449,-1.4787,-1.501,-1.5421,-1.5807,-1.6079,-1.6278,-1.6501,-1.6779,-1.6809,-1.6911,-1.7171,-1.7201,-1.728,-1.7473,-1.7485,-1.7485,-1.7485,-1.7485,-1.7485,-1.7485,-1.7485,-1.7485,-1.7485,-1.7485,-1.7485,-1.7479,-1.6172,-1.497,-1.3845,-1.3065,-1.2,-1.05,-1.1045,-1.1244,-1.1244,-1.085,-1.0721,-1.0721,-1.0721,-1.0721,-1.0721,-1.0721,-1.0721,-1.0721,0.0,0.0,-0.9475,-0.9683,-0.9861,-1.0045,-1.0275,-1.045,-1.0643,0.0,0.0,0.0,-1.0624,-1.012,-0.9674,-0.9238,-0.8962,-0.8318,-0.7247,-0.7171,-0.6817,-0.5961,-0.5951,-0.5833,-0.5464,-0.5529,-0.558,-0.565,-0.5615,-0.5874,-0.6356,-0.6428,-0.6625,-0.694,-0.7518,-0.7828,-0.7928,-0.8586,-0.8976,-0.9112,-0.9227,-0.9547,-0.9899,-0.9977,-1.029,-1.0653,-1.0653,-1.0731,-1.0791,-1.052,-1.0182,-0.9784,-0.9308,-0.9135,-0.8984,-0.8745,-0.879,-0.8862,-0.8916,-0.9183,-0.9497,-0.9825,0.0,0.0,-1.1268,-1.1974,-1.262,-1.2892,-1.3375,-1.3743,-1.3743,-1.4093,-1.4383,-1.4383,-1.4823,-1.5264,-1.5529,-1.5789,-1.6054,-1.6332,-1.6459,-1.6628,-1.6905,-1.693,-1.7038,-1.7298,-1.7322,-1.737,-1.7473,-1.7485,-1.7485,-1.7485,-1.7485,-1.7485,-1.7485,-1.7485,-1.7485,-1.7479,-1.6172,-1.4924,-1.3723,-1.2661,-1.1583,-1.0415,-1.0629,-1.0721,-1.0721,-1.0721,-1.0721,-1.0721,-1.0721,-1.0721,-1.0721,-1.0721,-1.0721,-1.0721,0.0,0.0,-0.9226,-0.9643,-1.0045,-1.033,-1.0367,-1.0717,-1.0984,0.0,-1.0994,-1.0759,-1.0286,-0.9826,-0.9353,-0.8801,-0.8707,-0.8222,-0.7161,-0.7045,-0.6786,-0.6279,-0.5936,-0.5744,-0.5684,-0.5386,-0.534,-0.5548,-0.5473,-0.5702,-0.6181,-0.6252,-0.6459,-0.6852,-0.7452,-0.7773,-0.7941,-0.8691,-0.9032,-0.9079,-0.9742,-1.0001,-1.0058,-1.0566,-1.0942,-1.1202,-1.1202,-1.1365,-1.1534,-1.125,-1.0846,-1.0369,-1.0042,-0.9748,-0.9426,-0.9035,-0.8965,-0.9058,-0.8901,-0.9048,-0.9332,-0.9637,-1.0031,0.0,-1.0912,-1.1624,-1.2252,-1.2518,-1.3031,-1.3423,-1.3423,-1.3664,-1.3863,-1.3863,-1.4292,-1.4733,-1.5022,-1.5288,-1.5541,-1.5777,-1.6036,-1.6302,-1.6585,-1.6634,-1.6761,-1.7032,-1.7074,-1.7207,-1.7473,-1.7485,-1.7485,-1.7485,-1.7485,-1.7485,-1.7485,-1.7485,-1.7485,-1.7479,-1.6048,-1.4857,-1.3679,-1.2469,-1.1389,-1.0297,-1.0575,-1.0704,-1.0721,-1.0721,-1.0721,-1.0721,-1.0721,-1.0721,-1.0721,-1.0721,-1.0721,-1.0721,-0.9475,-0.9554,-0.9603,-0.9683,-1.0045,-1.0422,-1.0735,-1.1095,-1.148,-1.184,-1.1496,-1.0987,-1.0416,-0.9923,-0.9472,-0.9114,-0.8714,-0.8227,-0.7616,-0.738,-0.7061,-0.6604,-0.6343,-0.5976,-0.5484,-0.5386,-0.5271,-0.5106,-0.5106,-0.5244,-0.5514,-0.5837,-0.6124,-0.6471,-0.7309,-0.7719,-0.7791,-0.8899,-0.933,-0.9332,-0.9712,-1.0331,-1.1064,-1.1058,-1.1341,-1.1763,-1.1763,-1.1799,-1.1805,-1.154,-1.1383,-1.1202,-1.0665,-1.0378,-1.019,-0.9717,-0.953,-0.9424,-0.9201,-0.9229,-0.9407,-0.9451,-0.9756,0.0,-1.0411,-1.093,-1.1425,-1.1703,-1.2349,-1.2862,-1.2862,-1.326,-1.3592,-1.3592,-1.3857,-1.4232,-1.4727,-1.5022,-1.5203,-1.5252,-1.5493,-1.5759,-1.6024,-1.6235,-1.6477,-1.6754,-1.6972,-1.7207,-1.7473,-1.7485,-1.7485,-1.7485,-1.7485,-1.7485,-1.7485,-1.7485,-1.7485,-1.7485,-1.5213,-1.3904,-1.3674,-1.1479,-1.0409,-1.029,-1.0463,-1.0605,-1.0721,-1.0721,-1.0721,-1.0721,-1.0721,-1.0721,-1.0721,-1.0721,-1.0721,-1.0721,-0.8805,-0.8846,-0.8904,-0.9048,-0.9374,-0.9787,-1.0111,-1.0488,-1.0838,-1.1023,-1.0951,-1.0809,-1.0762,-1.04,-1.0012,-0.9442,-0.9159,-0.8707,-0.7954,-0.7701,-0.7502,-0.7218,-0.6757,-0.6359,-0.604,-0.5594,-0.5277,-0.514,-0.497,-0.5079,-0.5444,-0.5689,-0.6077,-0.6623,-0.7281,-0.7653,-0.7852,-0.8794,-0.9336,-0.9637,-1.004,-1.0621,-1.1216,-1.1268,-1.1733,-1.2312,-1.2312,-1.2487,-1.2674,-1.2415,-1.2324,-1.221,-1.1611,-1.1301,-1.104,-1.0374,-1.0009,-0.9762,-0.9296,-0.929,-0.9401,-0.9266,-0.9446,0.0,0.0,-1.0544,-1.0997,-1.1268,-1.1854,-1.2312,-1.2312,-1.2839,-1.3291,-1.3109,-1.3537,-1.3994,-1.4081,-1.4576,-1.4914,-1.4914,-1.5143,-1.5354,-1.5487,-1.5734,-1.606,-1.6459,-1.6863,-1.7153,-1.728,-1.7412,-1.7485,-1.7485,-1.7485,-1.7485,-1.7485,-1.7485,-1.7485,-1.7485,-1.4976,-1.3665,-1.3674,-1.108,-1.0134,-1.0287,-1.0429,-1.0578,-1.0721,-1.0721,-1.0721,-1.0721,-1.0721,-1.0721,-1.0721,-1.0721,-1.0721,-1.0721,-0.7953,-0.8025,-0.8154,-0.8376,-0.8792,-0.9149,-0.9388,-0.9756,-0.9984,-0.9948,-1.0134,-1.0431,-1.0706,-1.0615,-1.0236,-0.9555,-0.9535,-0.9159,-0.8313,-0.8088,-0.7879,-0.7749,-0.7121,-0.6736,-0.663,-0.5894,-0.5461,-0.5357,-0.5101,-0.5183,-0.5596,-0.5694,-0.6132,-0.686,-0.7289,-0.7671,-0.7979,-0.8764,-0.9401,-0.9937,-1.0473,-1.0973,-1.1377,-1.1655,-1.2216,-1.2862,-1.2862,-1.3139,-1.3483,-1.3272,-1.32,-1.3073,-1.2539,-1.2195,-1.1884,-1.1065,-1.0615,-1.0184,-0.9566,-0.9472,-0.9505,-0.9361,-0.943,-0.9616,0.0,0.0,0.0,-1.084,-1.1353,-1.1769,-1.1769,-1.2367,-1.2878,-1.2571,-1.3194,-1.3558,-1.3373,-1.3936,-1.4425,-1.4479,-1.4763,-1.495,-1.495,-1.5282,-1.5692,-1.6169,-1.6658,-1.6984,-1.7086,-1.7292,-1.743,-1.7485,-1.7485,-1.7485,-1.7485,-1.7485,-1.7361,-1.712,-1.4857,-1.3545,-1.3191,-1.1046,-1.0107,-1.0287,-1.0402,-1.0555,-1.0721,-1.0721,-1.0721,-1.0721,-1.0721,-1.0721,-1.0721,-1.0721,-1.0721,-1.0721,-0.7866,-0.8207,-0.8376,-0.8414,-0.895,-0.9388,-0.9369,-0.9756,-0.9918,-0.9677,-0.9876,-0.9907,-0.944,-0.9389,-0.9318,-0.9234,-0.9234,-0.9144,-0.8895,-0.844,-0.8106,-0.7864,-0.7401,-0.6942,-0.6422,-0.6325,-0.604,-0.5553,-0.5523,-0.5541,-0.5602,-0.5839,-0.6165,-0.6588,-0.7155,-0.7672,-0.8109,-0.8999,-0.9676,-1.0284,-1.081,-1.1486,-1.2204,-1.2469,-1.2922,-1.3423,-1.3423,-1.3465,-1.3513,-1.3477,-1.3471,-1.3417,-1.3091,-1.2813,-1.2499,-1.1914,-1.1377,-1.0912,-1.0622,-1.0369,-1.0194,-1.0194,-1.0043,-0.9838,-0.9868,0.0,-0.997,-1.0,0.0,-1.1202,-1.1202,0.0,0.0,-1.1938,-1.2351,-1.2702,-1.2702,-1.3027,-1.3393,-1.3628,-1.4087,-1.4389,-1.4389,-1.5065,-1.562,-1.591,-1.6205,-1.6579,-1.7062,-1.7123,-1.7243,-1.7473,-1.7485,-1.7485,-1.7485,-1.7485,-1.6885,-1.5811,-1.4381,-1.3071,-1.1872,-1.0443,-1.0005,-1.0283,-1.0297,-1.0463,-1.0721,-1.0721,-1.0721,-1.0721,-1.0721,-1.0721,-1.0721,-1.0721,-1.0721,-1.0721,-0.7471,-0.7495,-0.7569,-0.7862,-0.8176,-0.8397,-0.8526,-0.8791,-0.921,-0.9682,-0.9682,-0.9818,-1.002,-0.9928,-0.9802,-0.9648,-0.9488,-0.9334,-0.9234,-0.8792,-0.8453,-0.83,-0.7868,-0.7442,-0.7109,-0.6653,-0.6301,-0.607,-0.5754,-0.5675,-0.5833,-0.6106,-0.6459,-0.693,-0.7474,-0.7874,-0.8288,-0.9102,-0.9813,-1.0387,-1.1075,-1.1926,-1.2777,-1.2723,-1.3133,-1.3761,-1.3918,-1.3966,-1.3966,-1.3966,-1.3966,-1.3924,-1.3664,-1.3495,-1.3296,-1.2771,-1.2234,-1.1751,-1.1492,-1.1105,-1.0749,-1.0592,-1.0472,-1.0351,-1.02,-1.0095,-1.017,-1.03,0.0,0.0,0.0,0.0,0.0,0.0,-1.2245,-1.2575,-1.2575,-1.2694,-1.2954,-1.3429,-1.3713,-1.396,-1.4268,-1.4751,-1.5215,-1.5632,-1.5903,-1.6217,-1.6604,-1.6917,-1.7141,-1.7249,-1.7406,-1.7485,-1.7485,-1.6767,-1.6166,-1.5575,-1.3545,-1.223,-1.1631,-1.0425,-0.9988,-1.028,-1.028,-1.0446,-1.0721,-1.0721,-1.0721,-1.0721,-1.0721,-1.0721,-1.0721,-1.0721,-1.0721,-1.0721,-0.7357,-0.7206,-0.7145,-0.7528,-0.7656,-0.775,-0.7967,-0.8351,-0.8884,-0.9597,-0.9801,-1.0013,-1.0602,-1.0505,-1.0357,-1.017,-0.9844,-0.9681,-0.9621,-0.9278,-0.8951,-0.886,-0.8409,-0.7955,-0.7665,-0.7072,-0.6702,-0.6629,-0.6234,-0.6137,-0.6325,-0.6532,-0.6872,-0.7328,-0.775,-0.8123,-0.8555,-0.9358,-1.0042,-1.0731,-1.1534,-1.2451,-1.3326,-1.3194,-1.3501,-1.4039,-1.4226,-1.4298,-1.4298,-1.4298,-1.4298,-1.4262,-1.4075,-1.3966,-1.3833,-1.3447,-1.2958,-1.2493,-1.23,-1.1854,-1.1395,-1.1208,-1.1051,-1.087,-1.0604,-1.049,-1.0417,-1.0553,-1.0618,0.0,0.0,0.0,-1.1484,-1.1403,0.0,-1.2107,-1.2024,-1.2087,-1.2468,-1.3236,-1.3404,-1.3671,-1.4133,-1.4395,-1.4763,-1.5143,-1.5553,-1.5897,-1.6163,-1.6622,-1.6942,-1.7086,-1.728,-1.7412,-1.7485,-1.6284,-1.5456,-1.5095,-1.2826,-1.1511,-1.1148,-1.0183,-0.9988,-1.028,-1.028,-1.0446,-1.0721,-1.0721,-1.0721,-1.0721,-1.0721,-1.0721,-1.0721,-1.0721,-1.0721,-1.0721,-0.7823,-0.7707,-0.7577,-0.7589,-0.7768,-0.7973,-0.8237,-0.8944,-0.9454,-0.9484,-1.0212,-1.0689,-1.0707,-1.0707,-1.0701,-1.0695,-1.0453,-1.0303,-1.029,-0.9976,-0.9718,-0.9454,-0.8938,-0.8411,-0.7901,-0.7659,-0.7431,-0.7176,-0.7158,-0.7158,-0.7164,-0.717,-0.7322,-0.7595,-0.7828,-0.8327,-0.9156,-0.9965,-1.0761,-1.1558,-1.2349,-1.3157,-1.3906,-1.4153,-1.4262,-1.4286,-1.4292,-1.4298,0.0,-1.4298,-1.4298,0.0,0.0,-1.4111,-1.3906,-1.3888,-1.3507,-1.3097,-1.3091,-1.2687,-1.2276,-1.2264,-1.1878,-1.1431,-1.1148,-1.0888,-1.0635,-1.059,-1.0471,-1.0408,-1.083,-1.0773,-1.0629,-1.0495,-1.0753,0.0,0.0,-1.1089,-1.167,-1.2889,-1.3322,-1.3585,-1.3882,-1.4196,-1.4316,-1.4334,-1.5065,-1.5626,-1.5891,-1.6175,-1.6567,-1.7074,-1.7098,-1.7225,-1.7479,-1.6284,-1.4976,-1.3784,-1.235,-1.1027,-0.9822,-0.9822,-0.9988,-1.028,-1.028,-1.0446,-1.0721,-1.0721,-1.0721,-1.0721,-1.0721,-1.0721,-1.0721,-1.0721,-1.0721,-1.0721,-0.7883,-0.7823,-0.7816,-0.7816,-0.7841,-0.8105,-0.8711,-0.919,-0.973,-1.049,-1.0816,-1.1117,-1.1479,-1.1516,-1.1516,-1.1516,-1.1274,-1.1123,-1.1123,-1.0864,-1.052,-1.0018,-0.9658,-0.9136,-0.8429,-0.7985,-0.7683,-0.7461,-0.7285,-0.72,-0.7206,-0.7376,-0.751,-0.7619,-0.8196,-0.8657,-0.9192,-1.0176,-1.1057,-1.189,-1.3037,-1.3767,-1.4195,-1.4473,-1.4576,-1.46,-1.4769,-1.4835,0.0,-1.4835,-1.4835,-1.4805,-1.463,-1.4515,-1.4407,-1.422,-1.3918,-1.364,0.0,0.0,-1.3067,-1.2892,-1.2578,-1.224,-1.1968,-1.1703,-1.1389,-1.1175,-1.1077,-1.1089,-1.101,-1.1091,-1.105,-1.0847,-1.1096,-1.13,0.0,-1.1403,-1.1867,-1.2451,-1.3048,-1.3397,-1.3318,-1.3742,-1.4117,-1.4274,-1.4552,-1.4974,-1.5596,-1.5885,-1.6193,-1.6543,-1.6905,-1.7135,-1.7219,-1.6205,-1.4976,-1.3665,-1.235,-1.1027,-0.9822,-0.9822,-0.9988,-1.028,-1.028,-1.0446,-1.0721,-1.0721,-1.0721,-1.0721,-1.0721,-1.0721,-1.0721,-1.0721,-1.0721,-1.0721,-0.7901,-0.7901,-0.7901,-0.7901,-0.8051,-0.8411,-0.9106,-0.9604,-1.0242,-1.1009,-1.1359,-1.1709,-1.2149,-1.2198,-1.224,-1.2343,-1.2101,-1.195,-1.195,-1.1691,-1.1347,-1.0912,-1.0459,-0.9928,-0.925,-0.8543,-0.8148,-0.7967,-0.7611,-0.7436,-0.7442,-0.7611,-0.7689,-0.7719,-0.8426,-0.8932,-0.9476,-1.0447,-1.1377,-1.23,-1.3447,-1.4123,-1.4473,-1.4751,-1.4859,-1.4877,0.0,-1.5107,-1.5107,-1.5107,-1.5107,-1.5077,-1.4908,-1.4859,-1.4823,-1.4636,-1.4401,-1.4195,-1.4195,-1.393,0.0,-1.3441,-1.3194,-1.2922,-1.2662,-1.2397,-1.2158,-1.1883,-1.1617,-1.1502,-1.1372,-1.1285,-1.1138,-1.1109,-1.121,-1.1331,0.0,-1.1461,-1.1784,-1.1964,-1.2557,-1.2946,-1.2974,-1.3318,-1.3634,-1.3978,-1.4189,-1.4564,-1.5185,-1.5559,-1.5867,-1.6133,-1.667,-1.6996,-1.7092,-1.5691,-1.45,-1.3665,-1.1868,-1.0543,-0.9822,-0.9822,-0.9988,-1.028,-1.028,-1.0446,-1.0721,-1.0721,-1.0721,-1.0721,-1.0721,-1.0721,-1.0721,-1.0721,-1.0721,-1.0721,-0.7907,-0.7913,-0.7931,-0.7973,-0.8387,-0.8902,-0.9436,-1.0242,-1.0846,-1.1148,-1.186,-1.2439,-1.2711,-1.2741,-1.285,-1.3121,-1.2811,-1.2655,-1.2741,-1.2422,-1.2164,-1.1974,-1.1063,-1.0515,-1.0287,-0.9262,-0.8723,-0.8699,-0.8177,-0.7919,-0.7919,-0.7907,-0.7907,-0.7943,-0.8465,-0.9142,-0.9946,-1.081,-1.1775,-1.2831,-1.3628,-1.4262,-1.4769,-1.5028,-1.5143,-1.5167,-1.5167,-1.5167,-1.5167,-1.5179,-1.5185,-1.5179,-1.5155,-1.5149,-1.5143,-1.5113,-1.4932,-1.4739,-1.4739,-1.4352,-1.3948,-1.3948,-1.3743,0.0,-1.3218,-1.2946,-1.2753,-1.2659,-1.2024,-1.1666,-1.2035,-1.136,-1.0918,-1.1266,-1.109,-1.094,-1.0989,-1.1236,-1.1416,-1.1443,-1.1832,-1.2336,-1.2908,-1.2788,-1.291,-1.3453,-1.3966,-1.4389,-1.4684,-1.5191,-1.5602,-1.5861,-1.6398,-1.6803,-1.6954,-1.4847,-1.3775,-1.3545,-1.1023,-0.9822,-0.9822,-0.9822,-0.9988,-1.028,-1.028,-1.0446,-1.0721,-1.0721,-1.0721,-1.0721,-1.0721,-1.0721,-1.0721,-1.0721,-1.0721,-1.0721,-0.7937,-0.8057,-0.8375,-0.8974,-0.9184,-0.9454,-0.9982,-1.0635,-1.1317,-1.2186,-1.2475,-1.2783,-1.3254,-1.3308,-1.3338,-1.3405,-1.2614,-1.2484,-1.3213,-1.1795,-1.1398,-1.2439,-1.0717,-1.0016,-1.0569,-0.9282,-0.8712,-0.9029,-0.8447,-0.8189,-0.8183,-0.7991,-0.8003,-0.8213,-0.8735,-0.9476,-1.029,-1.1292,-1.2445,-1.3646,-1.4262,-1.4708,-1.5034,0.0,-1.5638,-1.5982,-1.5982,-1.5982,-1.6012,-1.6217,-1.629,-1.6217,-1.5819,-1.5686,-1.5614,-1.5221,-1.5059,-1.501,-1.501,-1.4763,-1.4509,-1.4509,-1.4153,-1.3791,0.0,0.0,-1.3236,-1.3057,-1.2644,-1.2343,-1.2231,-1.2001,-1.1707,-1.1505,-1.115,-1.1019,-1.1083,-1.0988,-1.1127,-1.1703,-1.1592,-1.174,-1.2517,-1.2675,-1.2814,-1.3188,-1.3525,-1.3918,-1.4383,-1.4914,-1.533,-1.559,-1.6115,-1.6069,-1.5421,-1.4966,-1.3986,-1.223,-1.1511,-1.0668,-0.9822,-0.9822,-0.9988,-1.028,-1.028,-1.0446,-1.0721,-1.0721,-1.0721,-1.0721,-1.0721,-1.0721,-1.0721,-1.0721,-1.0721,-1.0721,-0.8291,-0.8549,-0.9028,-0.9706,-0.974,-0.9701,-0.9979,-1.0912,-1.173,-1.2008,-1.265,-1.3034,-1.2986,-1.2934,-1.298,-1.3182,-1.2245,-1.2057,-1.3094,-1.1495,-1.0959,-1.1795,-1.0405,-0.9795,-1.0336,-0.9059,-0.8697,-0.9158,-0.855,-0.8379,-0.8621,-0.8363,-0.8381,-0.8651,-0.9064,-0.982,-1.0755,-1.2065,-1.3115,-1.3954,-1.4497,-1.4871,0.0,-1.5523,-1.5928,-1.6314,-1.6549,-1.6561,-1.6489,-1.6646,-1.67,-1.6652,-1.6338,-1.6241,-1.6187,-1.5891,-1.5632,-1.5451,-1.5451,-1.5179,-1.4883,-1.4883,-1.466,-1.4401,-1.4286,-1.4051,-1.3779,0.0,-1.3248,-1.3012,-1.2868,-1.2608,-1.2306,-1.1842,-1.1833,-1.1787,-1.1527,-1.146,-1.1497,-1.1844,-1.1579,-1.1697,-1.2561,-1.2569,-1.2661,-1.3083,-1.3364,-1.375,-1.4194,-1.4728,-1.5147,-1.5318,-1.5958,-1.5864,-1.4761,-1.4531,-1.3462,-1.1631,-1.1148,-1.0543,-0.9822,-0.9822,-0.9988,-1.028,-1.028,-1.0446,-1.0721,-1.0721,-1.0721,-1.0721,-1.0721,-1.0721,-1.0721,-1.0721,-1.0721,-1.0721,-0.8932,-0.9292,-0.9814,-1.0441,-1.0125,-0.9837,-0.9741,-1.1042,-1.1803,-1.1337,-1.2367,-1.2928,-1.2252,-1.2189,-1.2278,-1.2504,-1.1644,-1.1437,-1.2489,-1.124,-1.0541,-1.0772,-0.9985,-0.9592,-0.9805,-0.8801,-0.8627,-0.9474,-0.8607,-0.8538,-0.9277,-0.892,-0.892,-0.9246,-0.9496,-1.0188,-1.1236,-1.2853,-1.3644,-1.3862,-1.4466,-1.4944,-1.5264,-1.5753,-1.6127,-1.6447,-1.6923,-1.6948,-1.6754,-1.6791,-1.6803,-1.6797,-1.6761,-1.6754,-1.6748,-1.6712,-1.6368,-1.5994,-1.5994,-1.5614,-1.5209,-1.5209,-1.5161,-1.5046,-1.4823,-1.4576,-1.4328,-1.4063,-1.3803,-1.3604,-1.3574,-1.3121,-1.2687,-1.2345,-1.2561,-1.2602,-1.2067,-1.2175,-1.2137,-1.1998,0.0,0.0,0.0,-1.2538,-1.2557,-1.3118,-1.3392,-1.3684,-1.4106,-1.4672,-1.5016,-1.5101,-1.5749,-1.5614,-1.4756,-1.3577,-1.2613,-1.1631,-1.0425,-0.9822,-0.9822,-0.9822,-0.9988,-1.028,-1.028,-1.0446,-1.0721,-1.0721,-1.0721,-1.0721,-1.0721,-1.0721,-1.0721,-1.0721,-1.0721,-1.0721,-1.0061,-1.0303,-1.0755,-1.1516,-1.1089,-1.0497,-1.0178,-1.0183,-1.0431,-1.0817,-1.1145,-1.134,-1.1534,-1.1577,-1.1659,-1.1759,-1.0861,-1.0697,-1.1544,-0.9807,-0.9363,-1.0786,-0.906,-0.8687,-0.9924,-0.8687,-0.8786,-1.0195,-0.9233,-0.9198,-1.0109,-0.9562,-0.9478,-0.9754,-1.0303,-1.0812,-1.15,-1.3162,-1.3625,-1.338,-1.4601,-1.5324,-1.5783,-1.6097,-1.6519,-1.696,-1.7056,-1.7062,-1.7056,-1.7274,-1.7346,-1.7304,-1.7092,-1.7026,-1.6984,-1.6761,-1.6634,-1.6555,-1.6555,-1.6163,-1.5753,-1.5753,-1.5427,-1.5095,-1.5046,-1.4998,-1.489,-1.463,-1.4352,-1.4093,-1.3876,0.0,-1.2946,-1.262,-1.2474,-1.2382,-1.2226,-1.1983,-1.1985,-1.2317,0.0,-1.24,0.0,0.0,0.0,-1.3275,-1.3566,-1.378,-1.3938,-1.458,-1.5016,-1.5101,-1.4713,-1.4653,0.0,0.0,-1.1544,-1.1631,-1.0425,-0.9822,-0.9822,-0.9822,-0.9988,-1.028,-1.028,-1.0446,-1.0721,-1.0721,-1.0721,-1.0721,-1.0721,-1.0721,-1.0721,-1.0721,-1.0721,-1.0721,-1.1099,-1.1256,-1.136,-1.164,-1.1005,-1.0353,-0.9767,-0.9185,-0.9153,-0.9984,-1.0665,-1.0969,-1.0562,-1.0671,-1.0763,-1.085,-0.9823,-0.9692,-1.063,-0.9301,-0.8688,-0.9442,-0.8459,-0.8208,-0.8804,-0.8197,-0.856,-1.006,-0.9453,-0.9769,-1.0942,-1.0544,-1.0502,-1.0725,-1.091,-1.1172,-1.1541,-1.2785,-1.3249,-1.3225,-1.4871,-1.5662,-1.5946,-1.6495,-1.6863,-1.7111,-1.7243,-1.7292,-1.7316,-1.7443,-1.7485,-1.7461,-1.7334,-1.7292,-1.7267,-1.7141,-1.7008,-1.6905,-1.6905,-1.6616,-1.6308,-1.6308,-1.6121,-1.5861,-1.5578,-1.5511,-1.5403,-1.4998,-1.4811,-1.4594,-1.4183,-1.3791,0.0,0.0,-1.3106,-1.2973,-1.2634,-1.2631,-1.2575,-1.2498,0.0,0.0,0.0,0.0,0.0,0.0,0.0,-1.3698,-1.3863,-1.4514,-1.4666,-1.4265,-1.4239,-1.3727,-1.2918,0.0,-1.093,-1.0668,-1.0061,-0.9822,-0.9822,-0.9822,-0.9988,-1.028,-1.028,-1.0446,-1.0721,-1.0721,-1.0721,-1.0721,-1.0721,-1.0721,-1.0721,-1.0721,-1.0721,-1.0721,-1.1764,-1.1887,-1.1792,-1.1457,-1.0596,-0.9824,-0.9409,-0.8627,-0.8375,-0.9088,-1.0129,-1.0455,-0.9682,-0.9735,-0.9852,-0.9883,-0.9151,-0.9033,-0.9836,-0.9071,-0.8465,-0.8323,-0.817,-0.8031,-0.7913,-0.7736,-0.8266,-0.9691,-0.9625,-1.0063,-1.113,-1.1366,-1.1444,-1.1496,-1.1373,-1.1274,-1.1121,0.0,-1.2475,-1.2674,-1.4434,-1.5302,-1.5802,-1.6136,-1.6656,-1.7201,-1.7166,-1.7244,-1.7485,-1.7485,-1.7485,-1.7485,-1.7485,-1.7485,-1.7485,-1.7485,-1.7334,-1.7177,-1.7177,-1.6984,-1.6672,-1.644,-1.6511,-1.6474,-1.5493,-1.5725,-1.5803,-1.5068,-1.4981,-1.498,-1.4545,-1.4208,0.0,0.0,-1.3774,-1.3638,-1.32,-1.3311,-1.3241,-1.2801,0.0,0.0,-1.3394,0.0,0.0,0.0,0.0,-1.3709,-1.3948,-1.439,-1.4338,-1.3738,-1.3762,-1.3132,-1.1901,0.0,-1.0578,-1.0183,-0.994,-0.9822,-0.9822,-0.9822,-0.9988,-1.028,-1.028,-1.0446,-1.0721,-1.0721,-1.0721,-1.0721,-1.0721,-1.0721,-1.0721,-1.0721,-1.0721,-1.0721,-1.1756,-1.1752,-1.1715,-1.0952,-1.0092,-0.9493,-0.9698,-0.8958,-0.8391,-0.8449,-0.8567,-0.8825,-0.8759,-0.891,-0.9058,-0.93,-0.9202,-0.9147,-0.9013,-0.8764,-0.8621,-0.8469,-0.8326,-0.8241,-0.8228,-0.794,-0.8254,-0.9271,-0.9839,-1.002,-0.9797,-1.17,-1.218,-1.1476,-1.1754,0.0,0.0,-1.0952,-1.1178,-1.0809,-1.2098,-1.3517,-1.4939,-1.4074,-1.5237,-1.7331,-1.6161,-1.6526,-1.7485,-1.7485,-1.7485,-1.7485,-1.7485,-1.7485,-1.7485,-1.7485,-1.7467,-1.7449,-1.7449,-1.7255,-1.6821,-1.5654,-1.6069,-1.6109,-1.3665,-1.5024,-1.6133,-1.4407,-1.4596,-1.5089,-1.504,-1.4606,-1.425,0.0,0.0,-1.3501,-1.3447,-1.3441,-1.3513,-1.3369,-1.341,0.0,0.0,-1.3745,0.0,0.0,-1.3928,-1.4083,-1.4141,-1.4484,-1.4741,-1.4886,-1.3179,-1.2975,-1.4411,-1.1216,-1.023,-1.1511,-1.0304,-0.9822,-0.9822,-0.9822,-0.9988,-1.028,-1.028,-1.0446,-1.0721,-1.0721,-1.0721,-1.0721,-1.0721,-1.0721,-1.0721,-1.0721,-1.0721,-1.0721,-1.0672,-1.0773,-1.0601,-0.9817,-0.9501,-0.9134,-0.8588,-0.8488,-0.8514,-0.8458,-0.8608,-0.8777,-0.8842,-0.9062,-0.9228,-0.9286,-0.9289,-0.9266,-0.9208,-0.9147,-0.9008,-0.8767,-0.8703,-0.8584,-0.8401,-0.8194,-0.8531,-0.9303,-1.0193,-1.07,-1.1017,-1.1833,-1.1711,-1.0817,0.0,-1.0048,-0.9426,-1.0441,-1.0767,-1.0703,-1.2095,-1.3192,-1.3953,-1.3697,-1.4188,-1.5095,-1.4619,-1.4738,-1.5213,-1.5213,-1.5693,-1.6408,-1.6408,-1.5811,-1.5213,-1.5213,-1.5213,-1.5213,-1.5213,-1.515,-1.4959,-1.437,-1.4657,-1.4554,-1.3374,-1.3924,-1.4412,-1.3521,-1.398,-1.4622,-1.5473,-1.5143,-1.4781,-1.4781,0.0,-1.4177,-1.4008,-1.3845,-1.3688,-1.3538,-1.3507,-1.3579,0.0,0.0,0.0,0.0,-1.4171,-1.4121,-1.405,-1.4551,-1.4604,-1.4061,-1.2861,-1.2316,-1.2584,-1.0416,-0.9763,-1.0543,-1.0061,-0.9822,-0.9822,-0.9822,-0.9988,-1.029,-1.0466,-1.0612,-1.0721,-1.0721,-1.0721,-1.0721,-1.0721,-1.0721,-1.0721,-1.0721,-1.0721,-1.0721,-0.9828,-0.9863,-0.9593,-0.8702,-0.8685,-0.8608,-0.7871,-0.81,-0.8501,-0.8613,-0.8765,-0.9004,-0.9072,-0.9296,-0.9449,-0.9449,-0.9449,-0.9449,-0.9449,-0.9405,-0.9286,-0.9079,-0.8984,-0.8835,-0.8621,-0.8431,-0.8579,-0.916,-1.013,-1.0619,-1.0827,-1.1101,-1.0905,0.0,-0.9842,-0.9485,-0.9263,-0.9784,-1.0163,-1.0342,-1.1486,-1.2298,-1.2795,-1.2631,-1.3062,-1.3665,-1.3306,-1.3426,-1.3665,-1.3665,-1.4023,-1.45,-1.4976,-1.4381,-1.3665,-1.3665,-1.3665,-1.3665,-1.3665,-1.3665,-1.3665,-1.3186,-1.3426,-1.3508,-1.2535,-1.2858,-1.3391,-1.3058,-1.3633,-1.4478,-1.5361,-1.5481,-1.5342,-1.5342,0.0,-1.4763,-1.4564,-1.4377,-1.4189,-1.4008,-1.3845,-1.3871,-1.4149,-1.4031,0.0,-1.4551,-1.4475,-1.4366,-1.4203,-1.4352,-1.4142,-1.354,-1.2385,-1.1568,-1.1097,-0.9957,-0.953,-0.9822,-0.9822,-0.9822,-0.9825,-0.9914,-1.0076,-1.0297,-1.0592,-1.0721,-1.0721,-1.0721,-1.0721,-1.0721,-1.0721,-1.0721,-1.0721,-1.0721,-1.0721,-1.0721,-0.9399,-0.9194,-0.8888,-0.7852,-0.7864,-0.8042,-0.8039,-0.8274,-0.8567,-0.8797,-0.9029,-0.918,-0.9391,-0.9513,-0.9605,-0.9605,-0.9605,-0.9605,-0.9605,-0.9466,-0.9381,-0.9374,-0.9093,-0.8937,-0.8933,-0.8635,-0.8479,-0.8476,-0.9615,0.0,-0.8182,-0.9161,-0.9841,-1.0123,-1.0128,-0.9606,-0.8713,-0.8869,-0.9018,-0.9291,-0.9483,-1.0428,-1.1382,-1.0244,-1.1503,-1.3545,-1.223,-1.259,-1.3665,-1.3665,-1.2831,-1.1993,-1.3306,-1.3665,-1.3665,-1.3665,-1.3665,-1.3665,-1.3665,-1.3665,-1.3426,-1.2109,-1.2706,-1.3062,-1.0418,-1.186,-1.3603,-1.34,-1.4114,-1.4756,-1.4864,-1.5355,-1.5879,-1.5879,0.0,-1.5101,-1.5101,-1.5095,-1.5089,-1.5089,-1.4612,-1.4395,-1.4672,-1.4178,0.0,-1.4536,-1.4867,-1.4962,-1.4968,-1.3756,-1.3308,-1.3771,-1.1575,0.0,-1.1097,-0.9957,-0.953,-0.9822,-0.9822,-0.9822,-0.9832,-1.0134,-1.0276,-1.0297,-1.0592,-1.0721,-1.0721,-1.0721,-1.0721,-1.0721,-1.0721,-1.0721,-1.0721,-1.0721,-1.0721,-1.0721,-0.7758,-0.7741,-0.7722,-0.7485,-0.7525,-0.7634,-0.7634,-0.8008,-0.8352,-0.8352,-0.8944,-0.9252,-0.9327,-0.9603,-0.9754,-0.9754,-0.9754,-0.9754,-0.9754,-0.9707,-0.9639,-0.954,-0.9445,-0.9347,-0.9242,-0.9042,-0.8893,-0.8794,0.0,0.0,0.0,-0.9809,-0.9564,-0.901,-0.923,-0.9145,-0.8882,-0.9133,-0.9327,-0.9473,-0.9571,-0.9902,-1.0353,-0.9923,-1.0301,-1.1023,-1.0543,-1.0664,-1.1023,-1.1023,-1.0785,-1.0422,-1.0902,-1.1023,-1.1023,-1.1023,-1.1023,-1.1023,-1.1023,-1.1023,-1.0902,-1.0547,-1.0785,-1.0781,-0.994,-1.0422,-1.1249,-1.2034,-1.2342,-1.3017,-1.4761,-1.5084,-1.5433,-1.633,-1.5994,-1.5644,-1.5644,-1.533,-1.5107,-1.5107,-1.4956,-1.4883,-1.4974,-1.485,0.0,-1.5221,-1.5146,-1.5066,-1.4967,-1.4167,-1.374,-1.3787,-1.1837,0.0,-1.1101,-1.0065,-0.9632,-0.9822,-0.9822,-0.9822,-0.9829,-1.0032,-1.0181,-1.029,-1.048,-1.0622,-1.0721,-1.0721,-1.0721,-1.0721,-1.0721,-1.0721,-1.0721,-1.0721,-1.0721,-1.0721,-0.7171,-0.7241,-0.7315,-0.7391,-0.7505,-0.7587,-0.7587,-0.7926,-0.8125,-0.8248,-0.8681,-0.8976,-0.9095,-0.9457,0.0,-0.9822,-0.9822,-0.9822,-0.9822,-0.9822,-0.9781,-0.9693,-0.9639,-0.9564,-0.9469,-0.9317,0.0,-0.9106,-0.9669,-0.9892,-0.9791,-0.9791,-0.9465,-0.8828,-0.9018,-0.9106,-0.912,-0.9364,-0.952,-0.9615,-0.9666,-0.9741,-0.9822,-0.9822,-0.9822,-0.9822,-0.9822,-0.9822,-0.9822,-0.9822,-0.9822,-0.9822,-0.9822,-0.9822,-0.9822,-0.9822,-0.9822,-0.9822,-0.9822,-0.9822,-0.9822,-0.9822,-0.9822,-0.9822,-0.9822,-0.9822,-1.0061,-1.0785,-1.1179,-1.1929,-1.3589,-1.4119,-1.4661,-1.5926,-1.5806,-1.5637,-1.6084,-1.591,-1.5668,-1.5559,-1.5463,0.0,0.0,-1.5167,-1.5245,0.0,-1.5348,-1.5155,-1.4762,-1.3832,-1.3133,-1.2759,-1.1159,-1.0387,-1.0507,-0.9912,-0.968,-0.9822,-0.9822,-0.9822,-0.9825,-0.9978,-1.0134,-1.0287,-1.0429,-1.0578,-1.0721,-1.0721,-1.0721,-1.0714,-1.0656,-1.0633,-1.0629,-1.0575,-1.0555,-1.0555,-0.7529,-0.7532,-0.7535,-0.754,-0.7638,-0.7712,-0.7712,-0.7804,-0.7994,-0.8369,-0.8369,-0.8491,-0.8854,-0.9095,-0.9457,-0.97,0.0,0.0,-0.9822,-0.9822,-0.9822,-0.9822,-0.9693,-0.9625,-0.9625,-0.9486,-0.9408,-0.9398,-0.9388,-0.9381,-0.9381,-0.9381,-0.9381,-0.9381,-0.9391,-0.9398,-0.9408,-0.9561,-0.9625,-0.9635,-0.9768,-0.9822,-0.9822,-0.9832,-0.9836,-0.9839,-0.9849,-0.9852,-0.9852,-0.9839,-0.9836,-0.9836,-0.9825,-0.9822,-0.9822,-0.9822,-0.9822,-0.9822,-0.9822,-0.9822,-0.9822,-0.9822,-0.9822,-0.9822,-0.9822,-0.9822,-0.9822,-0.9822,-1.0785,-1.1631,-1.1631,-1.2566,-1.3615,-1.4898,-1.4938,-1.5241,-1.6387,-1.6712,-1.6604,-1.6228,0.0,0.0,0.0,-1.5045,-1.5003,0.0,-1.5368,-1.4933,-1.4167,-1.2709,-1.1593,-1.0952,-0.9854,-0.932,-0.9605,-0.9618,-0.969,-0.9822,-0.9822,-0.9822,-0.9825,-0.9968,-1.0117,-1.0273,-1.0402,-1.0548,-1.069,-1.069,-1.069,-1.0677,-1.0531,-1.0477,-1.0463,-1.0331,-1.028,-1.028,0.0,-0.7657,-0.7687,-0.7771,-0.7812,-0.7831,-0.7831,-0.7853,-0.7872,-0.7994,-0.8244,-0.8369,-0.8491,-0.8973,-0.9335,-0.9457,-0.97,-0.9822,-0.9822,-0.9822,-0.9822,-0.9822,-0.9788,-0.9771,-0.9771,-0.9734,-0.9663,-0.9554,-0.9439,-0.9381,-0.9381,-0.9381,-0.9381,-0.9388,-0.9503,-0.9554,-0.9564,-0.971,-0.9771,-0.9774,-0.9805,-0.9822,-0.9832,-0.9951,-0.9995,-1.0012,-1.0131,-1.0171,-1.0154,-1.0036,-0.9995,-0.9975,-0.9859,-0.9822,-0.9822,-0.9822,-0.9822,-0.9822,-0.9822,-0.9822,-0.9822,-0.9822,-0.9822,-0.9822,-0.9822,-0.9822,-0.9822,-0.9822,-1.0061,-1.0543,-1.1511,-1.1956,-1.2521,-1.3827,-1.4595,-1.5259,-1.5489,-1.6249,-1.6334,-1.5249,-1.5076,-1.4681,-1.3603,-1.3441,-1.3431,0.0,0.0,-1.3082,-1.1942,-1.1524,-1.1179,-1.1036,-1.0018,-0.9537,-0.9608,-0.9717,-0.9788,-0.9822,-0.9822,-0.9822,-0.9822,-0.9859,-0.9958,-1.0107,-1.0141,-1.0243,-1.0385,-1.0385,-1.0385,-1.0382,-1.0344,-1.0331,-1.0327,-1.0293,-1.028,-1.028,-0.7766,-0.778,-0.7799,-0.7858,-0.7872,-0.7872,-0.7872,-0.7918,-0.7954,-0.7954,-0.8129,-0.8293,-0.8293,-0.8789,-0.9032,-0.9032,-0.9532,-0.9822,-0.9822,-0.9822,-0.9822,-0.9822,-0.9822,-0.9822,-0.9822,-0.9822,-0.9785,-0.9707,-0.9622,-0.9581,-0.9581,-0.9581,-0.9581,-0.9585,-0.9669,-0.9707,-0.971,-0.9788,-0.9822,-0.9825,-0.9897,-0.9924,-0.9941,-1.0097,-1.0154,-1.0168,-1.0249,-1.028,-1.0266,-1.0181,-1.0154,-1.0127,-0.9975,-0.9924,-0.9914,-0.9842,-0.9822,-0.9822,-0.9822,-0.9822,-0.9822,-0.9822,-0.9822,-0.9822,-0.9822,-0.9822,-0.9822,-0.9822,-0.9822,-1.0065,-1.0664,-1.0785,-1.1265,-1.259,-1.3214,-1.3849,-1.4442,-1.4924,-1.5039,-1.4244,-1.4114,-1.3839,-1.2927,-1.2918,-1.2918,-1.2918,-1.2918,0.0,-1.1213,-1.1217,-1.0988,-1.0412,-0.9919,-0.9642,-0.9703,-0.9781,-0.9822,-0.9822,-0.9822,-0.9822,-0.9822,-0.9822,-0.9903,-1.0049,-1.0049,-1.0137,-1.028,-1.028,-1.028,-1.0273,-1.0202,-1.0175,-1.0168,-1.0097,-1.007,-1.007,-0.7926,-0.7926,-0.7926,-0.7926,-0.7926,-0.7926,-0.7926,-0.8013,-0.8081,-0.8081,-0.8171,-0.8236,-0.8236,-0.8489,-0.8742,-0.8742,-0.9414,-0.9764,-0.9764,-0.9866,-0.9856,-0.9856,-0.9832,-0.9822,-0.9822,-0.9822,-0.9822,-0.9822,-0.9822,-0.9822,-0.9822,-0.9822,-0.9822,-0.9822,-0.9822,-0.9832,-0.9856,-0.9856,-0.9869,-0.9903,-1.0032,-1.0086,-1.01,-1.0253,-1.0314,-1.0317,-1.0337,-1.0348,-1.0344,-1.0321,-1.0314,-1.0287,-1.0134,-1.007,-1.0022,-0.9893,-0.9839,-0.9822,-0.9822,-0.9822,-0.9822,-0.9822,-0.9822,-0.9822,-0.9822,-0.9822,-0.9822,-0.9822,-0.9822,-0.9822,-0.9822,-0.9822,-1.0183,-1.1511,-1.1752,-1.223,-1.3545,-1.3665,-1.3484,-1.3076,-1.3057,-1.2867,-1.2454,-1.2436,-1.2436,-1.2436,-1.2436,-1.2048,-1.115,-1.1039,-1.0573,-0.9639,-0.9642,-0.97,-0.9819,-0.9822,-0.9822,-0.9822,-0.9822,-0.9822,-0.9822,-0.9822,-0.989,-1.0015,-1.0015,-1.009,-1.0212,-1.0212,-1.0212,-1.0198,-1.0066,-1.0015,-0.9998,-0.9869,-0.9822,-0.9822,-0.8179,-0.8179,-0.8179,-0.8179,-0.8179,-0.8179,-0.8179,-0.8195,-0.8206,-0.8206,-0.8223,-0.8236,-0.8236,-0.8489,-0.8742,-0.8742,-0.9336,-0.969,-0.969,-0.983,-1.0015,-1.0015,-0.989,-0.9822,-0.9822,-0.9822,-0.9822,-0.9822,-0.9822,-0.9822,-0.9822,-0.9822,-0.9822,-0.9822,-0.9822,-0.9893,-1.0015,-1.0015,-1.009,-1.0212,-1.0236,-1.0246,-1.0259,-1.0402,-1.046,-1.0477,-1.0605,-1.0653,-1.0633,-1.0504,-1.046,-1.0432,-1.029,-1.0154,-1.0042,-1.0022,-0.9924,-0.9822,-0.9822,-0.9822,-0.9822,-0.9822,-0.9822,-0.9822,-0.9822,-0.9822,-0.9822,-0.9822,-0.9822,-0.9822,-0.9822,-0.9822,-1.0183,-1.1511,-1.1752,-1.223,-1.3545,-1.3665,-1.3297,-1.2072,-1.1952,-1.1459,-1.035,-1.0226,-1.0226,-1.0226,-1.0226,-1.024,-1.0023,-1.0027,-0.9906,-0.9788,-0.9788,-0.9798,-0.9822,-0.9822,-0.9822,-0.9822,-0.9822,-0.9822,-0.9822,-0.9822,-0.9832,-0.9856,-0.9856,-0.9869,-0.9893,-0.9893,-0.9893,-0.989,-0.9866,-0.9856,-0.9852,-0.9829,-0.9822,-0.9822,-0.8236,-0.8236,-0.8236,-0.8236,-0.8236,-0.8236,-0.8236,-0.8291,-0.8334,-0.8334,-0.8388,-0.8426,-0.8426,-0.8555,-0.8685,-0.8685,-0.9071,-0.9332,-0.9332,-0.9914,-1.0175,-1.0175,-1.0103,-1.007,-1.007,-1.007,-1.007,-1.007,-1.007,-1.007,-1.007,-1.007,-1.007,-1.007,-1.007,-1.0107,-1.0175,-1.0175,-1.0215,-1.0287,-1.0365,-1.0395,-1.0412,-1.0558,-1.0616,-1.0622,-1.0697,-1.0721,-1.0711,-1.0639,-1.0616,-1.0588,-1.0439,-1.0344,-1.0273,-1.0195,-1.0005,-0.9822,-0.9822,-0.9822,-0.9822,-0.9822,-0.9822,-0.9822,-0.9822,-0.9822,-0.9822,-0.9822,-0.9822,-0.9822,-0.9822,-0.9822,-0.994,-1.0547,-1.0668,-1.0906,-1.1507,-1.1623,-1.1386,-1.0785,-1.0668,-1.0425,-0.9822,-0.9822,-0.9822,-0.9822,-0.9822,-0.9822,-0.9822,-0.9822,-0.9822,-0.9822,-0.9822,-0.9822,-0.9822,-0.9822,-0.9822,-0.9822,-0.9822,-0.9822,-0.9822,-0.9822,-0.9822,-0.9822,-0.9822,-0.9822,-0.9822,-0.9822,-0.9822,-0.9822,-0.9822,-0.9822,-0.9822,-0.9822,-0.9822,-0.9822,-0.8318,-0.8318,-0.8318,-0.8318,-0.8318,-0.8318,-0.8318,-0.8397,-0.8456,-0.8456,-0.8532,-0.8587,-0.8587,-0.8587,-0.8587,-0.8587,-0.8851,-0.9117,-0.9117,-0.9853,-1.024,-1.0203,-1.03,-1.028,-1.028,-1.028,-1.028,-1.028,-1.028,-1.028,-1.028,-1.028,-1.028,-1.028,-1.028,-1.0297,-1.0331,-1.0331,-1.0351,-1.0392,-1.05,-1.0544,-1.0558,-1.0677,-1.0721,-1.0721,-1.0721,-1.0721,-1.0721,-1.0721,-1.0721,-1.07,-1.0582,-1.0521,-1.047,-1.0361,-1.0114,-0.9866,-0.9832,-0.9822,-0.9822,-0.9822,-0.9822,-0.9822,-0.9822,-0.9822,-0.9822,-0.9822,-0.9822,-0.9822,-0.9822,-0.9822,-0.9943,-1.0183,-0.994,-0.9943,-1.0183,-0.994,-0.9822,-0.9822,-0.9822,-0.9822,-0.9822,-0.9822,-0.9822,-0.9822,-0.9822,-0.9822,-0.9822,-0.9822,-0.9822,-0.9822,-0.9822,-0.9822,-0.9822,-0.9822,-0.9822,-0.9822,-0.9822,-0.9822,-0.9822,-0.9822,-0.9822,-0.9822,-0.9822,-0.9822,-0.9822,-0.9822,-0.9822,-0.9822,-0.9822,-0.9822,-0.9822,-0.9822,-0.9822,-0.9822,-0.8562,-0.8562,-0.8562,-0.8562,-0.8562,-0.8562,-0.8562,-0.8568,-0.8573,-0.8573,-0.8581,-0.8587,-0.8587,-0.8587,-0.8587,-0.8587,-0.8851,-0.9117,-0.9117,-0.9769,-1.0099,-0.9964,-1.0223,-1.028,-1.028,-1.028,-1.028,-1.028,-1.028,-1.028,-1.028,-1.028,-1.028,-1.028,-1.028,-1.0351,-1.0477,-1.0477,-1.0558,-1.0687,-1.07,-1.0704,-1.0704,-1.0717,-1.0721,-1.0721,-1.0721,-1.0721,-1.0721,-1.0721,-1.0721,-1.0717,-1.0707,-1.0605,-1.049,-1.048,-1.0266,-1.0002,-0.9859,-0.9822,-0.9822,-0.9822,-0.9822,-0.9822,-0.9822,-0.9822,-0.9822,-0.9822,-0.9822,-0.9822,-0.9822,-0.9822,-1.0183,-1.139,-1.0547,-1.0183,-1.139,-1.0543,-0.9822,-0.9822,-0.9822,-0.9822,-0.9822,-0.9822,-0.9822,-0.9822,-0.9822,-0.9822,-0.9822,-0.9822,-0.9822,-0.9822,-0.9822,-0.9822,-0.9822,-0.9822,-0.9822,-0.9822,-0.9822,-0.9822,-0.9822,-0.9822,-0.9822,-0.9822,-0.9822,-0.9822,-0.9822,-0.9822,-0.9822,-0.9822,-0.9822,-0.9822,-0.9822,-0.9822,-0.9822,-0.9822,-0.8587,-0.8587,-0.8587,-0.8587,-0.8587,-0.8587,-0.8587,-0.8587,-0.8587,-0.8587,-0.8587,-0.8587,-0.8587,-0.8587,-0.8587,-0.8587,-0.872,-0.8851,-0.8851,-0.9525,-1.0035,-1.0373,-1.0451,-1.0555,-1.0555,-1.0555,-1.0555,-1.0555,-1.0555,-1.0555,-1.0555,-1.0555,-1.0555,-1.0555,-1.0555,-1.0582,-1.0633,-1.0633,-1.0666,-1.0721,-1.0721,-1.0721,-1.0721,-1.0721,-1.0721,-1.0721,-1.0721,-1.0721,-1.0721,-1.0721,-1.0721,-1.0721,-1.0721,-1.068,-1.0616,-1.0521,-1.0412,-1.0293,-1.0148,-0.9964,-0.9822,-0.9822,-0.9822,-0.9822,-0.9822,-0.9822,-0.9822,-0.9822,-0.9822,-0.9822,-0.9822,-0.9822,-0.9943,-1.0422,-1.0061,-0.994,-1.0425,-1.0061,-0.9822,-0.9822,-0.9822,-0.9822,-0.9822,-0.9822,-0.9822,-0.9822,-0.9822,-0.9822,-0.9822,-0.9822,-0.9822,-0.9822,-0.9822,-0.9822,-0.9822,-0.9822,-0.9822,-0.9822,-0.9822,-0.9822,-0.9822,-0.9822,-0.9822,-0.9822,-0.9822,-0.9822,-0.9822,-0.9822,-0.9822,-0.9822,-0.9822,-0.9822,-0.9822,-0.9822,-0.9822,-0.9822,-0.8587,-0.8587,-0.8587,-0.8587,-0.8587,-0.8587,-0.8587,-0.8587,-0.8587,-0.8587,-0.8587,-0.8587,-0.8587,-0.8587,-0.8587,-0.8587,-0.8587,-0.8587,-0.8587,-0.9259,-1.006,-1.0721,-1.0721,-1.0721,-1.0721,-1.0721,-1.0721,-1.0721,-1.0721,-1.0721,-1.0721,-1.0721,-1.0721,-1.0721,-1.0721,-1.0721,-1.0721,-1.0721,-1.0721,-1.0721,-1.0721,-1.0721,-1.0721,-1.0721,-1.0721,-1.0721,-1.0721,-1.0721,-1.0721,-1.0721,-1.0721,-1.0721,-1.0721,-1.0721,-1.07,-1.0595,-1.0527,-1.047,-1.0375,-1.0161,-0.9954,-0.9907,-0.9856,-0.9822,-0.9822,-0.9822,-0.9822,-0.9822,-0.9822,-0.9822,-0.9822,-0.9822,-0.9822,-0.9822,-0.9822,-0.9822,-0.9822,-0.9822,-0.9822,-0.9822,-0.9822,-0.9822,-0.9822,-0.9822,-0.9822,-0.9822,-0.9822,-0.9822,-0.9822,-0.9822,-0.9822,-0.9822,-0.9822,-0.9822,-0.9822,-0.9822,-0.9822,-0.9822,-0.9822,-0.9822,-0.9822,-0.9822,-0.9822,-0.9822,-0.9822,-0.9822,-0.9822,-0.9822,-0.9822,-0.9822,-0.9822,-0.9822,-0.9822,-0.9822,-0.9822,-0.9822,-0.8587,-0.8587,-0.8587,-0.8587,-0.8587,-0.8587,-0.8587,-0.8587,-0.8587,-0.8587,-0.8587,-0.8587,-0.8587,-0.8587,-0.8587,-0.8587,-0.8587,-0.8587,-0.8587,-0.9259,-1.006,-1.0721,-1.0721,-1.0721,-1.0721,-1.0721,-1.0721,-1.0721,-1.0721,-1.0721,-1.0721,-1.0721,-1.0721,-1.0721,-1.0721,-1.0721,-1.0721,-1.0721,-1.0721,-1.0721,-1.0721,-1.0721,-1.0721,-1.0721,-1.0721,-1.0721,-1.0721,-1.0721,-1.0721,-1.0721,-1.0721,-1.0721,-1.0721,-1.0721,-1.0721,-1.0721,-1.0612,-1.0493,-1.0493,-1.0388,-1.0246,-1.009,-0.9934,-0.9822,-0.9822,-0.9822,-0.9822,-0.9822,-0.9822,-0.9822,-0.9822,-0.9822,-0.9822,-0.9822,-0.9822,-0.9822,-0.9822,-0.9822,-0.9822,-0.9822,-0.9822,-0.9822,-0.9822,-0.9822,-0.9822,-0.9822,-0.9822,-0.9822,-0.9822,-0.9822,-0.9822,-0.9822,-0.9822,-0.9822,-0.9822,-0.9822,-0.9822,-0.9822,-0.9822,-0.9822,-0.9822,-0.9822,-0.9822,-0.9822,-0.9822,-0.9822,-0.9822,-0.9822,-0.9822,-0.9822,-0.9822,-0.9822,-0.9822,-0.9822,-0.9822,-0.9822,-0.8587,-0.8587,-0.8587,-0.8587,-0.8587,-0.8587,-0.8587,-0.8587,-0.8587,-0.8587,-0.8587,-0.8587,-0.8587,-0.8587,-0.8587,-0.8587,-0.8587,-0.872,-0.8984,-0.9392,-0.9927,-1.0323,-1.0588,-1.0721,-1.0721,-1.0721,-1.0721,-1.0721,-1.0721,-1.0721,-1.0721,-1.0721,-1.0721,-1.0721,-1.0721,-1.0721,-1.0721,-1.0721,-1.0721,-1.0721,-1.0721,-1.0721,-1.0721,-1.0721,-1.0721,-1.0721,-1.0721,-1.0721,-1.0721,-1.0721,-1.0721,-1.0721,-1.0721,-1.0721,-1.0721,-1.0721,-1.0687,-1.0653,-1.0653,-1.0541,-1.0368,-1.0114,-1.0015,-0.9951,-0.9846,-0.9822,-0.9822,-0.9822,-0.9822,-0.9822,-0.9822,-0.9822,-0.9822,-0.9822,-0.9822,-0.9822,-0.9822,-0.9822,-0.9822,-0.9822,-0.9822,-0.9822,-0.9822,-0.9822,-0.9822,-0.9822,-0.9822,-0.9822,-0.9822,-0.9822,-0.9822,-0.9822,-0.9822,-0.9822,-0.9822,-0.9822,-0.9822,-0.9822,-0.9822,-0.9822,-0.9822,-0.9822,-0.9822,-0.9822,-0.9822,-0.9822,-0.9822,-0.9822,-0.9822,-0.9822,-0.9822,-0.9822,-0.9822,-0.9822,-0.9822,-0.9822,-0.8587,-0.8587,-0.8587,-0.8587,-0.8587,-0.8587,-0.8587,-0.8587,-0.8587,-0.8587,-0.8587,-0.8587,-0.8587,-0.8587,-0.8587,-0.8587,-0.8587,-0.872,-0.8851,-0.9253,-0.9658,-0.9927,-1.0326,-1.0588,-1.0721,-1.0721,-1.0721,-1.0721,-1.0721,-1.0721,-1.0721,-1.0721,-1.0721,-1.0721,-1.0721,-1.0721,-1.0721,-1.0721,-1.0721,-1.0721,-1.0721,-1.0721,-1.0721,-1.0721,-1.0721,-1.0721,-1.0721,-1.0721,-1.0721,-1.0721,-1.0721,-1.0721,-1.0721,-1.0721,-1.0721,-1.0721,-1.0721,-1.0721,-1.0721,-1.0653,-1.051,-1.0215,-1.0097,-1.0008,-0.9856,-0.9822,-0.9822,-0.9822,-0.9822,-0.9822,-0.9822,-0.9822,-0.9822,-0.9822,-0.9822,-0.9822,-0.9822,-0.9822,-0.9822,-0.9822,-0.9822,-0.9822,-0.9822,-0.9822,-0.9822,-0.9822,-0.9822,-0.9822,-0.9822,-0.9822,-0.9822,-0.9822,-0.9822,-0.9822,-0.9822,-0.9822,-0.9822,-0.9822,-0.9822,-0.9822,-0.9822,-0.9822,-0.9822,-0.9822,-0.9822,-0.9822,-0.9822,-0.9822,-0.9822,-0.9822,-0.9822,-0.9822,-0.9822,-0.9822,-0.9822,-0.9822,-0.8587,-0.8587,-0.8587,-0.8587,-0.8587,-0.8587,-0.8587,-0.8587,-0.8587,-0.8587,-0.8587,-0.8587,-0.8587,-0.8587,-0.8587,-0.8587,-0.8587,-0.8587,-0.8587,-0.8851,-0.9253,-0.9661,-1.006,-1.0323,-1.0721,-1.0721,-1.0721,-1.0721,-1.0721,-1.0721,-1.0721,-1.0721,-1.0721,-1.0721,-1.0721,-1.0721,-1.0721,-1.0721,-1.0721,-1.0721,-1.0721,-1.0721,-1.0721,-1.0721,-1.0721,-1.0721,-1.0721,-1.0721,-1.0721,-1.0721,-1.0721,-1.0721,-1.0721,-1.0721,-1.0721,-1.0721,-1.0721,-1.0721,-1.0721,-1.0721,-1.0653,-1.0371,-1.0185,-1.0025,-0.9859,-0.9822,-0.9822,-0.9822,-0.9822,-0.9822,-0.9822,-0.9822,-0.9822,-0.9822,-0.9822,-0.9822,-0.9822,-0.9822,-0.9822,-0.9822,-0.9822,-0.9822,-0.9822,-0.9822,-0.9822,-0.9822,-0.9822,-0.9822,-0.9822,-0.9822,-0.9822,-0.9822,-0.9822,-0.9822,-0.9822,-0.9822,-0.9822,-0.9822,-0.9822,-0.9822,-0.9822,-0.9822,-0.9822,-0.9822,-0.9822,-0.9822,-0.9822,-0.9822,-0.9822,-0.9822,-0.9822,-0.9822,-0.9822,-0.9822,-0.9822,-0.9822,-0.8587,-0.8587,-0.8587,-0.8587,-0.8587,-0.8587,-0.8587,-0.8587,-0.8587,-0.8587,-0.8587,-0.8587,-0.8587,-0.8587,-0.8587,-0.8587,-0.8587,-0.8587,-0.8587,-0.8851,-0.9253,-0.9661,-1.006,-1.0323,-1.0721,-1.0721,-1.0721,-1.0721,-1.0721,-1.0721,-1.0721,-1.0721,-1.0721,-1.0721,-1.0721,-1.0721,-1.0721,-1.0721,-1.0721,-1.0721,-1.0721,-1.0721,-1.0721,-1.0721,-1.0721,-1.0721,-1.0721,-1.0721,-1.0721,-1.0721,-1.0721,-1.0721,-1.0721,-1.0721,-1.0721,-1.0721,-1.0721,-1.0721,-1.0721,-1.0721,-1.0677,-1.049,-1.0337,-1.0158,-0.9883,-0.9822,-0.9822,-0.9822,-0.9822,-0.9822,-0.9822,-0.9822,-0.9822,-0.9822,-0.9822,-0.9822,-0.9822,-0.9822,-0.9822,-0.9822,-0.9822,-0.9822,-0.9822,-0.9822,-0.9822,-0.9822,-0.9822,-0.9822,-0.9822,-0.9822,-0.9822,-0.9822,-0.9822,-0.9822,-0.9822,-0.9822,-0.9822,-0.9822,-0.9822,-0.9822,-0.9822,-0.9822,-0.9822,-0.9822,-0.9822,-0.9822,-0.9822,-0.9822,-0.9822,-0.9822,-0.9822,-0.9822,-0.9822,-0.9822,-0.9822,-0.9822,-0.8587,-0.8587,-0.8587,-0.8587,-0.8587,-0.8587,-0.8587,-0.8587,-0.8587,-0.8587,-0.8587,-0.8587,-0.8587,-0.8587,-0.8587,-0.8587,-0.8587,-0.8587,-0.8587,-0.872,-0.8987,-0.9389,-0.9791,-1.006,-1.0455,-1.0588,-1.0721,-1.0721,-1.0721,-1.0721,-1.0721,-1.0721,-1.0721,-1.0721,-1.0721,-1.0721,-1.0721,-1.0721,-1.0721,-1.0721,-1.0721,-1.0721,-1.0721,-1.0721,-1.0721,-1.0721,-1.0721,-1.0721,-1.0721,-1.0721,-1.0721,-1.0721,-1.0721,-1.0721,-1.0721,-1.0721,-1.0721,-1.0721,-1.0721,-1.0721,-1.0683,-1.0531,-1.0385,-1.0219,-0.9981,-0.9873,-0.9822,-0.9822,-0.9822,-0.9822,-0.9822,-0.9822,-0.9822,-0.9822,-0.9822,-0.9822,-0.9822,-0.9822,-0.9822,-0.9822,-0.9822,-0.9822,-0.9822,-0.9822,-0.9822,-0.9822,-0.9822,-0.9822,-0.9822,-0.9822,-0.9822,-0.9822,-0.9822,-0.9822,-0.9822,-0.9822,-0.9822,-0.9822,-0.9822,-0.9822,-0.9822,-0.9822,-0.9822,-0.9822,-0.9822,-0.9822,-0.9822,-0.9822,-0.9822,-0.9822,-0.9822,-0.9822,-0.9822,-0.9822,-0.9822,-0.9822,-0.8587,-0.8587,-0.8587,-0.8587,-0.8587,-0.8587,-0.8587,-0.8587,-0.8587,-0.8587,-0.8587,-0.8587,-0.8587,-0.8587,-0.8587,-0.8587,-0.8587,-0.8587,-0.8587,-0.8587,-0.872,-0.9117,-0.9389,-0.9791,-1.006,-1.0455,-1.0588,-1.0721,-1.0721,-1.0721,-1.0721,-1.0721,-1.0721,-1.0721,-1.0721,-1.0721,-1.0721,-1.0721,-1.0721,-1.0721,-1.0721,-1.0721,-1.0721,-1.0721,-1.0721,-1.0721,-1.0721,-1.0721,-1.0721,-1.0721,-1.0721,-1.0721,-1.0721,-1.0721,-1.0721,-1.0721,-1.0721,-1.0721,-1.0721,-1.0721,-1.069,-1.0561,-1.0405,-1.0246,-1.0117,-0.9951,-0.9822,-0.9822,-0.9822,-0.9822,-0.9822,-0.9822,-0.9822,-0.9822,-0.9822,-0.9822,-0.9822,-0.9822,-0.9822,-0.9822,-0.9822,-0.9822,-0.9822,-0.9822,-0.9822,-0.9822,-0.9822,-0.9822,-0.9822,-0.9822,-0.9822,-0.9822,-0.9822,-0.9822,-0.9822,-0.9822,-0.9822,-0.9822,-0.9822,-0.9822,-0.9822,-0.9822,-0.9822,-0.9822,-0.9822,-0.9822,-0.9822,-0.9822,-0.9822,-0.9822,-0.9822,-0.9822,-0.9822,-0.9822,-0.9822,-0.9822,-0.859,-0.8587,-0.8587,-0.8587,-0.8587,-0.8587,-0.8587,-0.8587,-0.8587,-0.8587,-0.8587,-0.8587,-0.8587,-0.8587,-0.8587,-0.8587,-0.8587,-0.8587,-0.8587,-0.8587,-0.872,-0.9117,-0.9117,-0.9389,-0.9794,-1.006,-1.0455,-1.0721,-1.0721,-1.0721,-1.0721,-1.0721,-1.0721,-1.0721,-1.0721,-1.0721,-1.0721,-1.0721,-1.0721,-1.0721,-1.0721,-1.0721,-1.0721,-1.0721,-1.0721,-1.0721,-1.0721,-1.0721,-1.0721,-1.0721,-1.0721,-1.0721,-1.0721,-1.0721,-1.0721,-1.0721,-1.0721,-1.0721,-1.0721,-1.0721,-1.0714,-1.0694,-1.0483,-1.0276,-1.0253,-1.0029,-0.9822,-0.9822,-0.9822,-0.9822,-0.9822,-0.9822,-0.9822,-0.9822,-0.9822,-0.9822,-0.9822,-0.9822,-0.9822,-0.9822,-0.9822,-0.9822,-0.9822,-0.9822,-0.9822,-0.9822,-0.9822,-0.9822,-0.9822,-0.9822,-0.9822,-0.9822,-0.9822,-0.9822,-0.9822,-0.9822,-0.9822,-0.9822,-0.9822,-0.9822,-0.9822,-0.9822,-0.9822,-0.9822,-0.9822,-0.9822,-0.9822,-0.9822,-0.9822,-0.9822,-0.9822,-0.9822,-0.9822,-0.9822,-0.9822,-0.9822,-0.8611,-0.8611,-0.8611,-0.8611,-0.8606,-0.8603,-0.8609,-0.8598,-0.8592,-0.86,-0.8595,-0.8587,-0.8587,-0.8587,-0.8587,-0.8587,-0.8587,-0.8587,-0.8587,-0.8587,-0.872,-0.8853,-0.8984,-0.9117,-0.9389,-0.9791,-1.006,-1.0193,-1.0455,-1.0721,-1.0721,-1.0721,-1.0721,-1.0721,-1.0721,-1.0721,-1.0721,-1.0721,-1.0721,-1.0721,-1.0721,-1.0721,-1.0721,-1.0721,-1.0721,-1.0721,-1.0721,-1.0721,-1.0721,-1.0721,-1.0721,-1.0721,-1.0721,-1.0721,-1.0721,-1.0721,-1.0721,-1.0721,-1.0721,-1.0721,-1.0721,-1.0721,-1.0558,-1.0378,-1.0297,-1.0107,-0.9924,-0.9839,-0.9822,-0.9822,-0.9822,-0.9822,-0.9822,-0.9822,-0.9822,-0.9822,-0.9822,-0.9822,-0.9822,-0.9822,-0.9822,-0.9822,-0.9822,-0.9822,-0.9822,-0.9822,-0.9822,-0.9822,-0.9822,-0.9822,-0.9822,-0.9822,-0.9822,-0.9822,-0.9822,-0.9822,-0.9822,-0.9822,-0.9822,-0.9822,-0.9822,-0.9822,-0.9822,-0.9822,-0.9822,-0.9822,-0.9822,-0.9822,-0.9822,-0.9822,-0.9822,-0.9822,-0.9822,-0.9822,-0.9822,-0.9822]}]]